Date StartTime U_cm/s V_cm/s W_cm/s Ustd_cm/s Vstd_cm/s Wstd_cm/s Uvar_(cm/s)^2 Vvar_(cm/s)^2 Wvar_(cm/s)^2 KE_(m/s)^2 TurbulentKE_(m/s)^2 HorizWindSpeed_cm/s FrictionSpeec_cm/s DragCoef SpeedOfSound_m/s SonicTemperature_C Pressure_mb 
07/13/2014  00:00:00      -88.908      -43.270        4.315       49.162       35.796       25.119     2416.883     1281.352      630.957        0.706        0.216       98.879       26.570        0.072      348.083       27.521      864.670
07/13/2014  00:01:00     -133.177      -21.695       -4.394       42.853       38.102       21.335     1836.373     1451.764      455.195        1.098        0.187      134.933       20.126        0.022      348.024       27.417      864.677
07/13/2014  00:02:00     -113.896      -19.693       -5.652       57.894       31.996       24.286     3351.670     1023.775      589.786        0.918        0.248      115.586       30.616        0.070      348.035       27.437      864.682
07/13/2014  00:03:00     -135.263      -26.273       -6.808       26.916       30.757       17.896      724.447      945.983      320.261        1.051        0.100      137.791       13.975        0.010      348.132       27.605      864.686
07/13/2014  00:04:00     -107.733       17.593       -7.471       25.189       21.375       14.700      634.465      456.901      216.078        0.664        0.065      109.160       15.512        0.020      348.139       27.617      864.685
07/13/2014  00:05:00     -123.542       19.749       -4.698       29.492       25.503       15.830      869.782      650.385      250.604        0.872        0.089      125.110       14.153        0.013      348.171       27.673      864.677
07/13/2014  00:06:00     -110.635        7.860      -10.563       14.711       23.764       14.415      216.409      564.731      207.802        0.670        0.049      110.914       12.169        0.012      348.082       27.519      864.681
07/13/2014  00:07:00     -109.449      -38.007      -17.251       24.555       26.661       20.116      602.930      710.819      404.650        0.772        0.086      115.861        8.915        0.006      348.015       27.402      864.699
07/13/2014  00:08:00     -197.920      -53.089      -11.936       63.260       46.790       28.635     4001.821     2189.305      819.955        2.457        0.351      204.916       25.005        0.015      347.962       27.308      864.727
07/13/2014  00:09:00     -170.915      -45.708      -11.678       66.426       63.545       33.713     4412.454     4037.981     1136.576        2.051        0.479      176.921       30.085        0.029      347.998       27.372      864.723
07/13/2014  00:10:00     -148.316      -33.548        4.010       66.859       46.838       33.823     4470.163     2193.831     1143.998        1.547        0.390      152.063       34.781        0.052      347.981       27.343      864.708
07/13/2014  00:11:00     -128.205      -77.326       -5.751       68.386       39.546       29.019     4676.627     1563.894      842.114        1.476        0.354      149.719       35.156        0.055      347.997       27.372      864.685
07/13/2014  00:12:00     -168.771      -64.280      -22.657       47.337       47.286       24.696     2240.819     2235.959      609.892        1.911        0.254      180.597       21.282        0.014      348.043       27.448      864.676
07/13/2014  00:13:00     -161.875      -32.037       -2.882       79.802       59.270       39.053     6368.311     3512.911     1525.154        1.932        0.570      165.015       40.438        0.060      348.009       27.389      864.688
07/13/2014  00:14:00     -161.057        6.399        4.434       75.017       61.028       37.202     5627.592     3724.428     1383.972        1.837        0.537      161.184       34.395        0.046      347.987       27.352      864.686
07/13/2014  00:15:00     -142.371        3.491      -16.203       50.824       47.310       23.875     2583.033     2238.211      570.028        1.297        0.270      142.414       17.048        0.014      347.918       27.234      864.695
07/13/2014  00:16:00      -97.878       24.081       -7.885       39.890       25.219       19.732     1591.231      636.022      389.367        0.642        0.131      100.797       20.523        0.041      347.783       27.002      864.710
07/13/2014  00:17:00      -93.261      -13.115       -9.967       34.153       40.813       24.092     1166.433     1665.666      580.414        0.619        0.171       94.179       19.558        0.043      347.819       27.065      864.711
07/13/2014  00:18:00     -118.103      -19.951       -3.895       49.417       42.357       22.863     2442.043     1794.098      522.732        0.956        0.238      119.777       16.037        0.018      347.830       27.083      864.695
07/13/2014  00:19:00     -117.472      -47.918       -4.910       41.275       26.401       23.254     1703.640      697.036      540.763        0.953        0.147      126.869       22.261        0.031      347.807       27.045      864.692
07/13/2014  00:20:00     -153.055      -36.648       -2.498       77.818       45.737       33.969     6055.664     2091.913     1153.923        1.704        0.465      157.381       36.397        0.053      347.744       26.935      864.706
07/13/2014  00:21:00     -229.293      -25.472      -20.888       60.897       32.789       24.063     3708.450     1075.101      579.046        2.951        0.268      230.704       11.344        0.002      347.669       26.801      864.730
07/13/2014  00:22:00     -134.572       -1.688      -15.233       37.226       60.941       24.355     1385.766     3713.766      593.163        1.202        0.285      134.583       18.378        0.019      347.655       26.782      864.712
07/13/2014  00:23:00     -162.414      -65.966      -20.365       61.064       39.011       28.738     3728.830     1521.860      825.878        1.861        0.304      175.299       22.465        0.016      347.612       26.707      864.696
07/13/2014  00:24:00     -136.165      -27.148        0.040       67.925       42.095       29.850     4613.774     1771.977      891.038        1.328        0.364      138.845       34.204        0.061      347.623       26.725      864.703
07/13/2014  00:25:00     -170.584      -27.227       -4.106       73.791       37.219       29.549     5445.091     1385.227      873.139        1.878        0.385      172.743       34.327        0.039      347.675       26.815      864.704
07/13/2014  00:26:00     -126.424       -7.851       -9.984       55.915       41.752       28.448     3126.468     1743.252      809.261        1.091        0.284      126.668       26.939        0.045      347.614       26.712      864.706
07/13/2014  00:27:00     -125.165       17.814       -8.940       53.193       41.640       21.735     2829.534     1733.878      472.418        1.055        0.252      126.426       18.304        0.021      347.558       26.612      864.711
07/13/2014  00:28:00      -92.927       49.552      -10.366       37.544       30.036       20.037     1409.517      902.187      401.469        0.696        0.136      105.313       14.636        0.019      347.421       26.379      864.723
07/13/2014  00:29:00     -119.040      -20.232      -18.968       35.410       51.544       24.583     1253.858     2656.788      604.334        0.973        0.226      120.747       16.606        0.019      347.438       26.407      864.720
07/13/2014  00:30:00     -136.461      -57.011      -15.346       41.140       52.470       28.274     1692.502     2753.059      799.420        1.368        0.262      147.891       26.969        0.033      347.475       26.470      864.685
07/13/2014  00:31:00     -131.832      -11.708      -14.376       46.628       38.806       25.931     2174.198     1505.879      672.441        1.104        0.218      132.350       28.433        0.046      347.463       26.450      864.651
07/13/2014  00:32:00     -112.182       28.942       -5.307       44.017       53.203       23.843     1937.466     2830.600      568.508        0.939        0.267      115.855       20.950        0.033      347.448       26.426      864.646
07/13/2014  00:33:00      -83.401       58.082       -9.399       30.384       50.229       28.090      923.180     2522.998      789.043        0.733        0.212      101.633       23.955        0.056      347.406       26.352      864.653
07/13/2014  00:34:00     -136.011       10.542      -19.417       50.090       30.311       23.075     2508.992      918.756      532.474        1.147        0.198      136.419       20.906        0.023      347.372       26.293      864.633
07/13/2014  00:35:00     -213.063      -28.151      -28.955       47.983       40.049       31.858     2302.415     1603.962     1014.951        2.597        0.246      214.915       24.560        0.013      347.459       26.440      864.607
07/13/2014  00:36:00     -221.304      -33.979      -14.870       74.321       61.509       36.599     5523.580     3783.386     1339.493        3.050        0.532      223.898       36.445        0.026      347.506       26.521      864.590
07/13/2014  00:37:00     -134.364      -73.821        8.317       79.240       50.553       37.835     6278.985     2555.571     1431.487        1.692        0.513      153.307       42.689        0.078      347.428       26.388      864.559
07/13/2014  00:38:00     -184.718       -8.276        2.278      115.710       61.493       41.407    13388.756     3781.407     1714.540        2.654        0.944      184.903       48.111        0.068      347.539       26.579      864.523
07/13/2014  00:39:00     -146.542       -1.941       -4.158       77.029       50.331       38.239     5933.508     2533.185     1462.234        1.571        0.496      146.555       34.341        0.055      347.518       26.543      864.511
07/13/2014  00:40:00     -170.435      100.038      -32.231       54.611       58.640       27.052     2982.373     3438.679      731.787        2.362        0.358      197.625       27.495        0.019      347.346       26.245      864.550
07/13/2014  00:41:00     -180.467        8.842      -23.319       45.163       73.778       30.252     2039.660     5443.210      915.168        2.079        0.420      180.684       12.464        0.005      347.366       26.282      864.543
07/13/2014  00:42:00     -188.709      -39.672       -6.146       94.613       44.213       33.537     8951.598     1954.799     1124.715        2.462        0.602      192.834       43.206        0.050      347.430       26.391      864.518
07/13/2014  00:43:00     -201.625      -44.316       -9.532       66.500       53.861       35.094     4422.285     2900.979     1231.579        2.563        0.428      206.437       26.831        0.017      347.382       26.308      864.529
07/13/2014  00:44:00     -179.128      -47.085       -0.785       79.143       61.301       37.244     6263.655     3757.841     1387.090        2.285        0.570      185.213       35.495        0.037      347.423       26.379      864.534
07/13/2014  00:45:00     -226.051      -55.292      -23.041       70.797       73.627       40.162     5012.172     5420.872     1613.010        3.336        0.602      232.715       38.464        0.027      347.522       26.547      864.533
07/13/2014  00:46:00     -128.488      -19.244        8.038       73.433       52.624       39.802     5392.475     2769.234     1584.160        1.334        0.487      129.921       43.474        0.112      347.445       26.418      864.539
07/13/2014  00:47:00     -146.099      -27.824       -3.852       62.246       64.369       31.782     3874.595     4143.367     1010.113        1.558        0.451      148.725       32.210        0.047      347.566       26.626      864.557
07/13/2014  00:48:00     -118.508      -13.822        2.613       88.283       45.212       34.188     7793.931     2044.119     1168.824        1.262        0.550      119.312       47.816        0.161      347.465       26.453      864.564
07/13/2014  00:49:00      -70.739        9.231        6.675       54.289       36.321       25.110     2947.251     1319.198      630.506        0.501        0.245       71.339       24.015        0.113      347.419       26.374      864.573
07/13/2014  00:50:00     -140.036      -38.512        1.667       63.386       51.711       28.170     4017.832     2674.037      793.546        1.429        0.374      145.235       25.176        0.030      347.517       26.543      864.602
07/13/2014  00:51:00      -97.682      -11.393       -3.294       36.909       25.382       21.045     1362.265      644.246      442.898        0.607        0.122       98.344       21.777        0.049      347.511       26.533      864.613
07/13/2014  00:52:00      -88.459      -18.732       -2.208       42.071       34.665       25.129     1769.964     1201.640      631.455        0.589        0.180       90.420       25.189        0.078      347.499       26.513      864.619
07/13/2014  00:53:00      -62.935      -18.091        5.417       37.290       41.149       26.217     1390.570     1693.215      687.323        0.404        0.189       65.484       19.205        0.086      347.463       26.449      864.623
07/13/2014  00:54:00     -124.606      -48.640       -7.215       59.899       45.774       27.104     3587.908     2095.242      734.638        1.218        0.321      133.763       25.100        0.035      347.577       26.648      864.630
07/13/2014  00:55:00     -160.511      -57.258      -11.935       69.528       49.504       29.328     4834.135     2450.629      860.117        1.866        0.407      170.418       20.368        0.014      347.654       26.778      864.627
07/13/2014  00:56:00     -119.004      -62.151        5.909       41.086       53.151       24.904     1688.023     2825.033      620.189        1.160        0.257      134.256       24.705        0.034      347.606       26.698      864.611
07/13/2014  00:57:00      -72.168      -19.951       -3.184       40.702       49.270       35.315     1656.648     2427.529     1247.126        0.547        0.267       74.875       23.524        0.099      347.602       26.692      864.617
07/13/2014  00:58:00      -96.344       58.345       -4.561       42.115       37.743       27.737     1773.652     1424.539      769.350        0.834        0.198      112.634       25.277        0.050      347.460       26.444      864.630
07/13/2014  00:59:00     -101.569       56.822      -14.977       34.742       35.097       22.345     1206.987     1231.787      499.306        0.835        0.147      116.383       20.322        0.030      347.599       26.687      864.627
07/13/2014  01:00:00      -64.571       91.458       -8.381       36.552       35.841       23.929     1336.067     1284.578      572.599        0.790        0.160      111.955       24.073        0.046      347.531       26.568      864.614
07/13/2014  01:01:00      -69.808       41.389       -3.298       23.041       29.250       16.590      530.900      855.550      275.238        0.413        0.083       81.156       12.588        0.024      347.483       26.484      864.613
07/13/2014  01:02:00      -97.019       16.380       -5.558       41.921       41.377       25.377     1757.331     1712.085      643.985        0.691        0.206       98.392       23.880        0.059      347.552       26.602      864.600
07/13/2014  01:03:00     -147.869      -15.500      -10.868       40.578       40.895       25.091     1646.588     1672.405      629.562        1.309        0.197      148.679       23.356        0.025      347.601       26.688      864.594
07/13/2014  01:04:00     -150.693      -50.397       -2.889       58.311       49.682       31.119     3400.172     2468.258      968.364        1.605        0.342      158.897       33.986        0.046      347.612       26.706      864.593
07/13/2014  01:05:00     -154.027        5.440       -3.455       62.669       55.944       31.815     3927.433     3129.739     1012.208        1.592        0.403      154.123       33.969        0.049      347.545       26.591      864.603
07/13/2014  01:06:00     -137.059       23.660       -3.718       35.363       48.041       22.553     1250.535     2307.953      508.643        1.171        0.203      139.086       17.875        0.017      347.520       26.548      864.605
07/13/2014  01:07:00     -106.675       -3.909       -5.670       62.026       36.555       32.494     3847.206     1336.239     1055.852        0.883        0.312      106.746       33.041        0.096      347.505       26.522      864.607
07/13/2014  01:08:00     -144.248      -10.509      -10.109       46.831       40.505       26.146     2193.122     1640.691      683.629        1.277        0.226      144.631       26.056        0.032      347.575       26.644      864.615
07/13/2014  01:09:00     -146.715       26.823      -13.944       39.172       34.834       21.623     1534.428     1213.375      467.574        1.283        0.161      149.146       17.613        0.014      347.577       26.647      864.621
07/13/2014  01:10:00     -102.579      -10.026       -3.038       62.968       45.831       29.971     3964.977     2100.460      898.268        0.880        0.348      103.068       33.836        0.108      347.581       26.652      864.614
07/13/2014  01:11:00     -118.062      -56.727        0.971       65.518       75.145       37.241     4292.612     5646.703     1386.913        1.424        0.566      130.983       34.302        0.069      347.544       26.590      864.596
07/13/2014  01:12:00     -139.547      -53.600       -5.832       66.666       63.314       34.303     4444.356     4008.600     1176.669        1.600        0.481      149.487       32.322        0.047      347.521       26.549      864.595
07/13/2014  01:13:00     -131.163       -6.539       -8.159       54.321       51.342       29.554     2950.764     2635.951      873.461        1.189        0.323      131.326       28.845        0.048      347.451       26.430      864.602
07/13/2014  01:14:00      -86.936       -4.846        6.474       43.200       33.106       23.555     1866.201     1095.981      554.818        0.557        0.176       87.071       24.628        0.080      347.412       26.363      864.600
07/13/2014  01:15:00     -107.165       15.665       -4.792       40.247       31.891       16.832     1619.817     1017.020      283.327        0.734        0.146      108.304       12.565        0.013      347.495       26.506      864.587
07/13/2014  01:16:00     -102.345       79.847      -12.820       38.895       32.662       22.950     1512.846     1066.807      526.710        1.006        0.155      129.807       18.314        0.020      347.423       26.382      864.587
07/13/2014  01:17:00     -129.764       85.081      -14.102       50.734       46.921       31.938     2573.937     2201.550     1020.005        1.503        0.290      155.169       24.624        0.025      347.505       26.522      864.585
07/13/2014  01:18:00     -102.973       -7.920        0.525       43.416       44.618       29.086     1884.924     1990.789      846.019        0.769        0.236      103.277       21.831        0.045      347.487       26.492      864.586
07/13/2014  01:19:00     -205.051       -0.155      -26.684       59.602       44.575       30.786     3552.367     1986.890      947.772        2.462        0.324      205.051       26.924        0.017      347.529       26.561      864.601
07/13/2014  01:20:00     -131.312      -54.278       -8.725       50.504       36.458       31.405     2550.643     1329.155      986.304        1.256        0.243      142.088       31.957        0.051      347.406       26.353      864.621
07/13/2014  01:21:00     -102.431      -37.351      -11.603       43.619       40.010       27.020     1902.616     1600.780      730.104        0.813        0.212      109.029       23.806        0.048      347.372       26.294      864.629
07/13/2014  01:22:00      -66.391      -40.142       -8.195       67.174       27.072       30.477     4512.285      732.906      928.826        0.613        0.309       77.584       17.496        0.051      347.352       26.259      864.636
07/13/2014  01:23:00      -95.480      -64.532        0.544       59.494       41.272       20.477     3539.556     1703.361      419.308        0.947        0.283      115.243       18.861        0.027      347.370       26.288      864.644
07/13/2014  01:24:00      -20.221      -50.414        5.653       30.146       37.812       16.169      908.778     1429.741      261.429        0.279        0.130       54.318       16.402        0.091      347.356       26.266      864.647
07/13/2014  01:25:00      -65.657      -67.466        5.108       53.179       44.712       28.374     2828.026     1999.148      805.090        0.726        0.282       94.141       30.449        0.105      347.415       26.367      864.663
07/13/2014  01:26:00      -96.532       12.638       -5.113       46.550       32.138       22.260     2166.873     1032.880      495.513        0.660        0.185       97.356       24.004        0.061      347.332       26.224      864.687
07/13/2014  01:27:00      -93.478      -39.351       -2.106       47.462       34.479       20.540     2252.634     1188.828      421.904        0.708        0.193      101.423       21.769        0.046      347.272       26.121      864.699
07/13/2014  01:28:00      -22.671      -31.497        4.110       42.941       25.801       18.711     1843.939      665.709      350.096        0.219        0.143       38.808       19.682        0.257      347.265       26.109      864.681
07/13/2014  01:29:00      -50.640      -28.994       -2.970       59.062       33.219       22.577     3488.291     1103.510      509.721        0.426        0.255       58.353       24.449        0.176      347.436       26.404      864.643
07/13/2014  01:30:00      -96.734      -18.147      -10.163       37.819       24.425       15.502     1430.304      596.558      240.302        0.603        0.113       98.421       17.590        0.032      347.454       26.434      864.633
07/13/2014  01:31:00      -78.561       56.231      -15.706       34.695       26.793       18.826     1203.732      717.887      354.433        0.593        0.114       96.612       19.916        0.042      347.293       26.157      864.662
07/13/2014  01:32:00      -82.242       16.403       -8.123       24.839       45.520       16.760      616.954     2072.061      280.904        0.503        0.148       83.862       12.509        0.022      347.269       26.114      864.668
07/13/2014  01:33:00        3.830      -48.483       21.001       53.509       31.973       26.903     2863.237     1022.245      723.782        0.371        0.230       48.634       25.574        0.277      347.205       26.008      864.656
07/13/2014  01:34:00      -49.348      -67.292       17.479       68.682       32.962       37.028     4717.259     1086.465     1371.046        0.722        0.359       83.447       40.255        0.233      347.331       26.223      864.639
07/13/2014  01:35:00      -35.024      -99.260        4.800       45.907       34.667       22.692     2107.490     1201.810      514.928        0.746        0.191      105.258       21.906        0.043      347.350       26.256      864.635
07/13/2014  01:36:00      -23.199      -24.137        2.244       35.661       23.571       15.785     1271.714      555.578      249.175        0.160        0.104       33.478       16.441        0.241      347.353       26.261      864.645
07/13/2014  01:37:00      -13.320       41.446        0.976       20.532       43.109       14.923      421.549     1858.398      222.696        0.220        0.125       43.534       15.662        0.129      347.125       25.869      864.666
07/13/2014  01:38:00      -33.771      109.743      -16.879       16.942       20.603       12.394      287.046      424.498      153.599        0.717        0.043      114.821       11.248        0.010      347.015       25.678      864.682
07/13/2014  01:39:00      -39.159       47.762      -12.074       28.751       26.453       10.728      826.625      699.745      115.088        0.280        0.082       61.763        8.210        0.018      347.073       25.777      864.690
07/13/2014  01:40:00      -15.678       -5.490        6.618       12.208       13.497        8.179      149.042      182.159       66.904        0.036        0.020       16.611        6.483        0.152      347.143       25.899      864.687
07/13/2014  01:41:00      -57.764        3.418       -0.512       29.244       16.741       17.912      855.215      280.276      320.843        0.240        0.073       57.865       15.124        0.068      347.292       26.157      864.681
07/13/2014  01:42:00      -29.167       21.915        0.010       26.887       19.941       13.317      722.901      397.652      177.336        0.131        0.065       36.483       14.518        0.158      347.135       25.886      864.686
07/13/2014  01:43:00      -11.253       -5.596        0.074       27.531       13.482       10.056      757.930      181.755      101.132        0.060        0.052       12.567        7.963        0.401      346.999       25.650      864.682
07/13/2014  01:44:00       11.561      -19.475       -7.857       17.052       11.482       11.287      290.767      131.844      127.396        0.056        0.028       22.648       10.529        0.216      346.804       25.317      864.671
07/13/2014  01:45:00       -2.854      -23.248       -6.504       14.604       12.508        8.154      213.266      156.462       66.492        0.051        0.022       23.423        4.303        0.034      347.065       25.765      864.666
07/13/2014  01:46:00       25.090        4.231        1.088       12.674       14.779        6.926      160.620      218.405       47.976        0.054        0.021       25.444        5.485        0.046      346.924       25.521      864.665
07/13/2014  01:47:00       48.985       38.163        8.197        8.587       10.474        8.478       73.736      109.705       71.884        0.209        0.013       62.096        4.022        0.004      346.787       25.284      864.654
07/13/2014  01:48:00       -6.079       67.148      -11.477       23.638       13.442       11.022      558.735      180.678      121.484        0.277        0.043       67.422       15.162        0.051      346.964       25.590      864.657
07/13/2014  01:49:00      -71.937       69.785      -14.793       33.774       28.309       20.944     1140.673      801.384      438.630        0.632        0.119      100.224       20.816        0.043      346.664       25.074      864.685
07/13/2014  01:50:00      -51.237       56.156       -8.243       31.733       14.138       11.795     1007.002      199.895      139.124        0.360        0.067       76.018       14.933        0.039      346.828       25.355      864.676
07/13/2014  01:51:00       11.606       53.339        2.895       22.783       18.013       15.094      519.065      324.451      227.825        0.203        0.054       54.587       15.169        0.077      346.836       25.371      864.658
07/13/2014  01:52:00      -36.235       29.571       -6.570       15.242       19.371        7.890      232.315      375.233       62.260        0.145        0.033       46.770        5.154        0.012      347.037       25.717      864.669
07/13/2014  01:53:00      -36.121       35.206       -3.973       14.521       20.973       11.989      210.860      439.874      143.739        0.168        0.040       50.441        9.157        0.033      346.895       25.472      864.681
07/13/2014  01:54:00      -43.121       43.646       -8.913       10.740       15.306        7.657      115.350      234.273       58.637        0.213        0.020       61.355        7.251        0.014      346.970       25.603      864.681
07/13/2014  01:55:00      -41.642       30.024       -9.266       11.539       11.502        6.594      133.150      132.298       43.480        0.152        0.015       51.337        7.220        0.020      347.045       25.729      864.667
07/13/2014  01:56:00      -66.249      -30.679       -8.632       15.606       22.135        7.030      243.556      489.960       49.414        0.309        0.039       73.008        5.231        0.005      346.896       25.472      864.675
07/13/2014  01:57:00      -77.577      -34.504       -2.564       15.624       14.588       11.836      244.097      212.822      140.087        0.391        0.030       84.904        2.570        0.001      346.765       25.249      864.684
07/13/2014  01:58:00      -43.915      -23.559        1.451       19.962       11.163        7.919      398.463      124.612       62.705        0.154        0.029       49.835        7.819        0.025      346.782       25.276      864.683
07/13/2014  01:59:00      -17.458      -17.380        7.145       30.610       14.423       13.055      936.961      208.034      170.438        0.099        0.066       24.634       13.182        0.286      346.671       25.087      864.674
07/13/2014  02:00:00      -17.632       -6.672        2.202       12.641       17.634       10.841      159.792      310.973      117.521        0.047        0.029       18.852        9.837        0.272      346.659       25.066      864.664
07/13/2014  02:01:00      -42.478      -24.675        0.209       36.447       32.193       17.373     1328.404     1036.401      301.813        0.254        0.133       49.125       17.172        0.122      346.886       25.456      864.655
07/13/2014  02:02:00      -89.406       -3.794       -7.213       22.766       28.924       10.326      518.312      836.584      106.619        0.476        0.073       89.486       12.057        0.018      346.817       25.337      864.654
07/13/2014  02:03:00      -95.242      -13.530       -2.851       30.508       29.619       20.528      930.716      877.285      421.386        0.575        0.111       96.198       18.688        0.038      346.828       25.357      864.643
07/13/2014  02:04:00      -83.371       -1.906       -6.202       27.403       22.615       16.242      750.942      511.434      263.809        0.426        0.076       83.393       15.163        0.033      346.839       25.375      864.642
07/13/2014  02:05:00      -54.277       21.724       -9.901       16.319       15.082        9.369      266.311      227.461       87.784        0.205        0.029       58.463        7.782        0.018      346.743       25.211      864.630
07/13/2014  02:06:00      -92.328       28.749      -13.887       30.003       29.876       16.715      900.204      892.574      279.393        0.581        0.104       96.700       12.434        0.017      346.878       25.441      864.624
07/13/2014  02:07:00     -102.901       27.742      -13.523       16.885       38.073       15.054      285.118     1449.522      226.630        0.675        0.098      106.575       10.669        0.010      346.747       25.217      864.607
07/13/2014  02:08:00      -69.753      -28.868       -2.276       34.389       26.001       17.180     1182.628      676.042      295.146        0.393        0.108       75.490       18.010        0.057      346.669       25.082      864.611
07/13/2014  02:09:00      -86.673      -32.523      -12.046       31.245       30.541       22.935      976.242      932.775      526.033        0.557        0.122       92.574       21.169        0.052      346.635       25.024      864.594
07/13/2014  02:10:00      -98.291      -27.548       -6.195       40.584       40.417       21.764     1647.087     1633.546      473.681        0.711        0.188      102.078       20.316        0.040      346.565       24.903      864.582
07/13/2014  02:11:00     -166.905      -91.404       -9.099       41.494       28.625       22.532     1721.784      819.402      507.687        1.967        0.152      190.294       15.163        0.006      346.555       24.885      864.573
07/13/2014  02:12:00     -179.120      -59.804       -2.304       72.611       43.242       32.250     5272.346     1869.871     1040.048        2.192        0.409      188.840       38.447        0.041      346.581       24.930      864.571
07/13/2014  02:13:00     -131.954      -36.025        7.346       74.210       51.123       33.304     5507.196     2613.583     1109.175        1.399        0.461      136.784       35.920        0.069      346.656       25.059      864.564
07/13/2014  02:14:00      -79.451      -12.473       -3.367       49.424       39.343       25.833     2442.692     1547.835      667.338        0.557        0.233       80.424       26.267        0.107      346.582       24.934      864.552
07/13/2014  02:15:00     -143.243       12.374       -9.395       43.134       33.113       18.982     1860.573     1096.479      360.323        1.204        0.166      143.777       16.286        0.013      346.437       24.684      864.554
07/13/2014  02:16:00     -181.049      -54.980       -8.124       48.885       42.294       30.733     2389.727     1788.766      944.493        2.049        0.256      189.213       24.257        0.016      346.479       24.754      864.551
07/13/2014  02:17:00     -126.657      -30.952        1.575       45.609       38.792       23.830     2080.151     1504.819      567.885        1.058        0.208      130.384       22.995        0.031      346.488       24.772      864.545
07/13/2014  02:18:00     -128.913      -34.588      -12.023       40.839       32.820       25.375     1667.802     1077.182      643.904        1.067        0.169      133.472       18.728        0.020      346.617       24.993      864.558
07/13/2014  02:19:00      -74.762       -5.833        0.366       53.933       27.075       22.756     2908.791      733.036      517.850        0.489        0.208       74.990       28.359        0.143      346.499       24.790      864.561
07/13/2014  02:20:00     -107.728        7.128      -11.563       33.190       32.866       16.500     1101.567     1080.163      272.238        0.712        0.123      107.963       17.444        0.026      346.397       24.616      864.579
07/13/2014  02:21:00     -128.545      -66.863      -19.520       51.977       35.800       23.613     2701.617     1281.637      557.592        1.296        0.227      144.895       22.486        0.024      346.508       24.806      864.577
07/13/2014  02:22:00      -40.472      -26.049        8.513       46.678       38.343       21.203     2178.857     1470.159      449.549        0.324        0.205       48.131       26.062        0.293      346.371       24.571      864.566
07/13/2014  02:23:00      -71.610      -35.336        2.416       22.129       23.635       17.341      489.702      558.622      300.696        0.387        0.067       79.854       14.551        0.033      346.443       24.694      864.552
07/13/2014  02:24:00      -80.101      -32.059       -5.183       22.483       24.833       11.884      505.487      616.697      141.238        0.437        0.063       86.278       10.278        0.014      346.487       24.769      864.552
07/13/2014  02:25:00      -83.767        3.310       -3.425       43.101       20.190       11.193     1857.690      407.626      125.273        0.471        0.120       83.833       16.120        0.037      346.450       24.706      864.559
07/13/2014  02:26:00      -99.637      -39.843       -0.583       36.061       18.886       19.414     1300.383      356.695      376.919        0.677        0.102      107.309       21.772        0.041      346.435       24.680      864.560
07/13/2014  02:27:00      -68.973      -31.104        5.607       28.033       18.636       19.133      785.832      347.300      366.090        0.363        0.075       75.662       14.979        0.039      346.416       24.648      864.551
07/13/2014  02:28:00      -57.671      -24.378        1.101       29.332       15.320        9.409      860.355      234.693       88.538        0.255        0.059       62.612       12.198        0.038      346.510       24.811      864.555
07/13/2014  02:29:00      -46.709      -11.165       -0.085       23.392       15.174       10.859      547.166      230.243      117.913        0.160        0.045       48.025       12.140        0.064      346.403       24.624      864.566
07/13/2014  02:30:00      -14.768      -23.390        0.057       18.925       11.977        9.056      358.154      143.443       82.006        0.067        0.029       27.662        8.934        0.104      346.413       24.641      864.562
07/13/2014  02:31:00        0.902       -8.823       -6.370       12.943       10.709        8.877      167.520      114.678       78.797        0.024        0.018        8.869        5.309        0.358      346.511       24.812      864.557
07/13/2014  02:32:00        1.851       -0.817        1.144        5.027        4.395        4.441       25.274       19.316       19.719        0.003        0.003        2.024        3.546        3.070      346.325       24.490      864.567
07/13/2014  02:33:00        1.619        0.729        2.909        5.078        9.555        3.677       25.784       91.295       13.522        0.007        0.007        1.776        2.683        2.283      346.338       24.513      864.569
07/13/2014  02:34:00      -11.188       32.580       -0.677       14.142       21.264       11.048      199.987      452.148      122.050        0.098        0.039       34.447       13.107        0.145      346.376       24.579      864.566
07/13/2014  02:35:00      -34.234       24.132       -3.401       18.483       16.990       10.904      341.625      288.665      118.896        0.126        0.037       41.885       13.113        0.098      346.391       24.605      864.575
07/13/2014  02:36:00      -57.086       -1.067       -5.426       11.865       17.138        9.220      140.789      293.728       85.001        0.190        0.026       57.096        5.975        0.011      346.448       24.702      864.596
07/13/2014  02:37:00      -26.689      -20.984       -7.104       20.403       13.615        9.446      416.286      185.362       89.220        0.095        0.035       33.950        8.064        0.056      346.386       24.597      864.596
07/13/2014  02:38:00       -6.919      -27.503       -1.567        9.098       13.827        8.379       82.773      191.190       70.208        0.058        0.017       28.359        3.409        0.014      346.248       24.359      864.605
07/13/2014  02:39:00        1.449        0.024       10.328        6.422        7.527        5.653       41.244       56.657       31.953        0.012        0.006        1.449        3.952        7.439      346.110       24.120      864.607
07/13/2014  02:40:00      -23.281       26.021       -0.621       20.634       16.979       13.361      425.750      288.301      178.514        0.106        0.045       34.916       15.385        0.194      346.154       24.196      864.615
07/13/2014  02:41:00       -6.048        3.593        6.778        7.574       15.689        7.434       57.364      246.131       55.261        0.023        0.018        7.035        3.682        0.274      346.108       24.118      864.604
07/13/2014  02:42:00      -12.555       34.718       -4.546       20.002       13.816        9.519      400.084      190.887       90.618        0.103        0.034       36.918        8.177        0.049      346.040       24.000      864.596
07/13/2014  02:43:00      -34.489        1.628       -3.122       10.500        9.885        7.476      110.254       97.711       55.890        0.073        0.013       34.527        6.439        0.035      346.049       24.016      864.596
07/13/2014  02:44:00      -36.438      -15.535       -8.442       14.702       11.237        9.057      216.160      126.267       82.036        0.103        0.021       39.612        6.716        0.029      346.101       24.105      864.597
07/13/2014  02:45:00      -81.294      -31.919      -13.431       17.306       16.554        8.020      299.515      274.040       64.322        0.422        0.032       87.336        8.082        0.009      346.157       24.202      864.618
07/13/2014  02:46:00      -84.248      -71.341       -1.439       34.624       26.029       19.656     1198.827      677.502      386.375        0.723        0.113      110.396       13.422        0.015      345.954       23.855      864.643
07/13/2014  02:47:00      -70.543      -39.694        0.501       42.028       27.829       19.130     1766.355      774.440      365.953        0.473        0.145       80.944       20.355        0.063      345.888       23.741      864.644
07/13/2014  02:48:00      -55.740       -4.986        2.234       33.621       18.971        9.326     1130.375      359.901       86.974        0.236        0.079       55.963       10.882        0.038      345.876       23.719      864.645
07/13/2014  02:49:00      -51.114      -17.875        1.073       17.349       13.844        6.715      300.985      191.667       45.094        0.174        0.027       54.150        6.094        0.013      345.918       23.793      864.642
07/13/2014  02:50:00      -70.288      -14.972       -3.241       15.437       17.957       10.494      238.306      322.458      110.119        0.292        0.034       71.865        6.850        0.009      345.999       23.931      864.642
07/13/2014  02:51:00      -25.473      -29.682        4.146       31.956       18.034       11.981     1021.165      325.207      143.555        0.152        0.074       39.114       12.187        0.097      345.914       23.786      864.643
07/13/2014  02:52:00      -26.760      -36.293        4.317       24.657       20.480       12.457      607.961      419.426      155.169        0.162        0.059       45.091       13.646        0.092      346.109       24.121      864.639
07/13/2014  02:53:00      -36.511      -31.262        2.646       21.687       27.273       11.839      470.344      743.810      140.165        0.184        0.068       48.066       10.509        0.048      346.063       24.041      864.634
07/13/2014  02:54:00      -40.015       15.256       -3.108       12.383       16.710        9.578      153.346      279.233       91.738        0.118        0.026       42.825        7.645        0.032      345.885       23.736      864.638
07/13/2014  02:55:00       -4.565        9.592        2.542       13.234       13.872        9.069      175.151      192.442       82.248        0.028        0.022       10.623        9.377        0.779      345.800       23.589      864.653
07/13/2014  02:56:00        4.910       52.015       -3.025        8.045        8.793        4.349       64.715       77.314       18.915        0.145        0.008       52.247        3.217        0.004      345.847       23.670      864.658
07/13/2014  02:57:00       10.996       25.914        1.920        6.787       10.988        6.516       46.061      120.730       42.456        0.050        0.010       28.150        6.750        0.057      345.738       23.483      864.661
07/13/2014  02:58:00       16.123       36.775        6.299        8.394        8.977        8.014       70.467       80.590       64.222        0.093        0.011       40.154        5.930        0.022      345.736       23.480      864.673
07/13/2014  02:59:00       10.250       47.223       -8.229       13.207       13.050        5.927      174.433      170.309       35.127        0.139        0.019       48.323        3.401        0.005      345.682       23.386      864.695
07/13/2014  03:00:00      -13.171       54.774      -10.702       17.185       15.695        8.130      295.310      246.324       66.102        0.195        0.030       56.335        7.862        0.019      345.787       23.568      864.703
07/13/2014  03:01:00      -41.988       32.214      -11.956       10.072       10.200        5.861      101.451      104.044       34.355        0.159        0.012       52.922        5.623        0.011      345.838       23.655      864.708
07/13/2014  03:02:00      -54.384        9.709       -3.133       13.899       12.743        7.845      193.186      162.387       61.538        0.174        0.021       55.244        4.774        0.007      345.727       23.463      864.718
07/13/2014  03:03:00      -49.783        4.189       -6.657       14.562       14.712        9.483      212.056      216.454       89.936        0.153        0.026       49.959        7.191        0.021      345.689       23.397      864.739
07/13/2014  03:04:00      -51.841       -5.777       -8.550       18.720       13.050        6.324      350.443      170.313       39.992        0.168        0.028       52.162        1.567        0.001      345.649       23.329      864.742
07/13/2014  03:05:00       10.047       -1.232        3.028       12.525       12.123        5.236      156.878      146.956       27.413        0.022        0.017       10.122        4.530        0.200      345.710       23.437      864.734
07/13/2014  03:06:00      -12.888      -15.974       -2.473       23.209       14.795        6.645      538.665      218.879       44.157        0.061        0.040       20.525       10.077        0.241      345.862       23.696      864.731
07/13/2014  03:07:00      -51.581      -37.177       -5.615       14.988       11.322        6.868      224.638      128.194       47.172        0.224        0.020       63.583        2.128        0.001      345.651       23.334      864.726
07/13/2014  03:08:00      -37.545      -23.758       -3.344       12.580        9.442        9.036      158.261       89.149       81.649        0.116        0.016       44.431        7.739        0.030      345.649       23.326      864.726
07/13/2014  03:09:00      -71.894      -29.425       -6.304       15.258       14.137        6.820      232.800      199.866       46.509        0.328        0.024       77.683        5.183        0.004      345.670       23.366      864.724
07/13/2014  03:10:00      -90.823      -25.546      -11.440        8.497       10.988        8.634       72.202      120.744       74.550        0.465        0.013       94.347        2.764        0.001      345.618       23.275      864.717
07/13/2014  03:11:00      -89.040      -17.973      -16.118       10.327       12.177        8.733      106.637      148.284       76.262        0.442        0.017       90.836        5.037        0.003      345.565       23.185      864.699
07/13/2014  03:12:00      -78.796        0.842      -13.361       19.137       15.134       11.844      366.231      229.030      140.287        0.356        0.037       78.801        9.713        0.015      345.504       23.082      864.688
07/13/2014  03:13:00      -23.006       24.922       -5.154       14.233       19.208        6.933      202.589      368.936       48.065        0.090        0.031       33.917        6.068        0.032      345.693       23.407      864.688
07/13/2014  03:14:00       -2.390       34.042       -4.006       13.899       15.349        5.069      193.185      235.601       25.695        0.082        0.023       34.126        3.845        0.013      345.813       23.612      864.674
07/13/2014  03:15:00       14.221        6.094        3.239       12.981       11.146        6.840      168.508      124.224       46.782        0.029        0.017       15.471        5.298        0.117      345.764       23.530      864.660
07/13/2014  03:16:00      -15.581       -5.460        4.505       25.934       18.444       13.286      672.583      340.193      176.509        0.074        0.059       16.510       17.240        1.090      345.692       23.403      864.647
07/13/2014  03:17:00      -51.797      -22.148       -9.675       15.523       14.429       10.468      240.952      208.185      109.586        0.191        0.028       56.333        6.127        0.012      345.484       23.049      864.646
07/13/2014  03:18:00      -47.384      -25.184       -9.858       13.752        8.080        7.419      189.111       65.283       55.037        0.164        0.015       53.661        4.547        0.007      345.514       23.097      864.641
07/13/2014  03:19:00      -61.453      -14.041      -10.770        9.863       11.880        7.140       97.281      141.141       50.979        0.219        0.014       63.037        2.073        0.001      345.537       23.140      864.630
07/13/2014  03:20:00      -74.434        9.501       -9.255        7.991        8.034        7.544       63.848       64.538       56.905        0.295        0.009       75.038        4.430        0.003      345.504       23.080      864.634
07/13/2014  03:21:00      -85.248        1.266      -12.679       19.692       16.758        7.692      387.761      280.824       59.170        0.408        0.036       85.257        4.124        0.002      345.413       22.925      864.639
07/13/2014  03:22:00     -101.202      -29.003      -12.303       23.252       12.548        8.709      540.670      157.451       75.851        0.600        0.039      105.276       10.336        0.010      345.308       22.745      864.637
07/13/2014  03:23:00     -111.804      -29.940      -14.825        8.270        9.898        6.466       68.394       97.972       41.809        0.691        0.010      115.743        2.144        0.000      345.382       22.871      864.632
07/13/2014  03:24:00      -72.544      -21.172       -9.958       12.411       10.130        6.318      154.030      102.613       39.912        0.305        0.015       75.570        5.908        0.006      345.532       23.129      864.635
07/13/2014  03:25:00      -49.348       -9.459      -12.453        6.486        7.161        4.370       42.066       51.274       19.099        0.140        0.006       50.247        2.742        0.003      345.640       23.312      864.641
07/13/2014  03:26:00      -45.540       -2.099       -5.815        4.603        4.460        3.474       21.185       19.890       12.068        0.108        0.003       45.588        3.066        0.005      345.746       23.497      864.646
07/13/2014  03:27:00      -63.849       -3.421       -8.925        8.366       11.881        6.238       69.993      141.150       38.913        0.221        0.013       63.941        4.702        0.005      345.551       23.162      864.654
07/13/2014  03:28:00      -82.221      -32.991      -12.233       17.090       15.144        8.401      292.081      229.356       70.581        0.430        0.030       88.593        5.090        0.003      345.405       22.911      864.668
07/13/2014  03:29:00      -71.343      -41.443      -13.644       19.240       16.992       12.143      370.188      288.714      147.457        0.390        0.040       82.506        8.281        0.010      345.249       22.644      864.672
07/13/2014  03:30:00      -50.903      -44.867      -10.076       30.825       19.437       16.911      950.186      377.811      285.995        0.316        0.081       67.854       11.309        0.028      345.294       22.721      864.668
07/13/2014  03:31:00       -7.910      -27.758        7.768       19.424       18.545       15.685      377.291      343.916      246.007        0.093        0.048       28.863       14.021        0.236      345.252       22.651      864.653
07/13/2014  03:32:00      -38.076      -27.625       -7.557       22.622       15.270       10.787      511.773      233.169      116.364        0.157        0.043       47.042        6.009        0.016      345.306       22.742      864.658
07/13/2014  03:33:00      -72.131      -39.059       -6.103       22.335       16.137       10.989      498.850      260.392      120.763        0.382        0.044       82.028       10.543        0.017      345.244       22.636      864.652
07/13/2014  03:34:00      -62.218      -37.947        1.130       33.663       17.886       15.630     1133.198      319.917      244.302        0.350        0.085       72.877       19.469        0.071      345.194       22.549      864.640
07/13/2014  03:35:00      -37.970      -55.048        1.411       25.211       22.072       12.085      635.579      487.155      146.039        0.287        0.063       66.873        5.825        0.008      345.477       23.035      864.641
07/13/2014  03:36:00      -53.172      -35.286        2.173       25.952       28.072       12.897      673.521      788.037      166.330        0.285        0.081       63.815       11.830        0.034      345.427       22.948      864.633
07/13/2014  03:37:00      -57.789      -32.365       -1.262       35.976       18.704       10.661     1294.277      349.833      113.655        0.307        0.088       66.235       11.843        0.032      345.358       22.831      864.632
07/13/2014  03:38:00      -90.470      -43.018        3.252       23.002       20.621       11.824      529.093      425.220      139.817        0.557        0.055      100.177        8.898        0.008      345.221       22.596      864.641
07/13/2014  03:39:00      -89.756      -49.522        0.627       26.266       26.145       17.794      689.899      683.537      316.632        0.610        0.085      102.511       11.158        0.012      345.135       22.448      864.650
07/13/2014  03:40:00      -62.765      -49.082       -3.097       32.881       14.825       11.080     1081.185      219.771      122.767        0.389        0.071       79.678       12.688        0.025      345.095       22.382      864.649
07/13/2014  03:41:00      -44.503      -56.715       -7.816       30.471       20.818       12.788      928.484      433.371      163.522        0.339        0.076       72.091       14.082        0.038      345.183       22.530      864.649
07/13/2014  03:42:00      -32.422      -21.368        6.156       40.700       17.820       14.973     1656.499      317.558      224.200        0.187        0.110       38.830       17.319        0.199      345.189       22.543      864.661
07/13/2014  03:43:00      -38.122      -49.829        2.695       29.726       22.557       15.807      883.652      508.813      249.867        0.279        0.082       62.739       15.333        0.060      345.334       22.790      864.678
07/13/2014  03:44:00      -57.730      -49.028       -1.595       20.007       17.716       14.121      400.281      313.861      199.393        0.333        0.046       75.740       14.285        0.036      345.329       22.780      864.691
07/13/2014  03:45:00      -55.667      -35.577       -3.149       15.076       10.655        9.774      227.283      113.521       95.534        0.241        0.022       66.064        4.870        0.005      345.335       22.791      864.711
07/13/2014  03:46:00      -36.935      -35.248        4.832       25.470       18.140       14.584      648.700      329.077      212.705        0.191        0.060       51.055       16.309        0.102      345.313       22.754      864.725
07/13/2014  03:47:00      -64.879       -0.815       -5.987       35.137       12.006       12.633     1234.629      144.151      159.605        0.289        0.077       64.884       15.659        0.058      345.148       22.471      864.736
07/13/2014  03:48:00      -80.936      -17.141       -2.785       33.689       19.802       17.381     1134.944      392.122      302.083        0.434        0.091       82.732       17.920        0.047      345.014       22.243      864.722
07/13/2014  03:49:00      -79.988      -50.362        2.655       36.716       28.072       19.359     1348.058      788.057      374.757        0.573        0.126       94.522       15.953        0.028      345.063       22.328      864.712
07/13/2014  03:50:00      -50.424      -55.049        8.500       44.629       35.031       23.467     1991.776     1227.142      550.684        0.471        0.188       74.652       24.919        0.111      345.170       22.509      864.711
07/13/2014  03:51:00     -110.273     -107.911        0.679       54.731       47.294       24.386     2995.528     2236.708      594.691        1.481        0.291      154.288       28.599        0.034      345.339       22.796      864.697
07/13/2014  03:52:00      -94.571      -76.988       -2.343       49.581       40.275       25.807     2458.307     1622.092      665.992        0.981        0.237      121.946       24.681        0.041      345.302       22.735      864.698
07/13/2014  03:53:00     -112.024      -65.429       -8.364       43.971       33.190       21.477     1933.469     1101.564      461.276        1.020        0.175      129.732       15.122        0.014      345.264       22.670      864.706
07/13/2014  03:54:00      -98.753      -62.682       -1.835       64.348       33.593       23.993     4140.638     1128.471      575.659        0.976        0.292      116.966       25.144        0.046      345.267       22.677      864.734
07/13/2014  03:55:00      -32.505      -44.505       14.915       35.321       35.154       19.507     1247.547     1235.770      380.524        0.306        0.143       55.111       18.329        0.111      345.226       22.605      864.747
07/13/2014  03:56:00      -48.059      -59.309        5.186       38.083       39.587       20.831     1450.309     1567.147      433.916        0.465        0.173       76.336       22.558        0.087      345.232       22.616      864.759
07/13/2014  03:57:00      -40.673      -67.313        5.588       44.709       50.935       24.612     1998.877     2594.370      605.763        0.571        0.260       78.647       19.504        0.061      345.252       22.649      864.771
07/13/2014  03:58:00      -85.542      -79.858       -0.774       37.734       36.125       23.234     1423.836     1305.024      539.817        0.848        0.163      117.024       20.223        0.030      345.224       22.601      864.769
07/13/2014  03:59:00      -83.128     -104.988        1.695       43.992       62.338       26.219     1935.318     3885.998      687.450        1.222        0.325      133.913       17.940        0.018      345.211       22.579      864.762
07/13/2014  04:00:00     -102.802     -109.828       -2.635       66.265       58.289       35.672     4391.043     3397.655     1272.518        1.585        0.453      150.434       30.338        0.041      345.183       22.531      864.762
07/13/2014  04:01:00      -81.201     -142.063        0.037       53.936       41.258       30.828     2909.073     1702.193      950.350        1.617        0.278      163.632       26.719        0.027      345.166       22.501      864.754
07/13/2014  04:02:00      -77.485     -127.315       -6.373       39.389       53.327       25.882     1551.487     2843.730      669.894        1.366        0.253      149.040       17.069        0.013      345.145       22.468      864.743
07/13/2014  04:03:00      -88.191     -104.203       -5.430       46.180       51.752       21.329     2132.615     2678.249      454.934        1.196        0.263      136.514       19.371        0.020      345.106       22.401      864.747
07/13/2014  04:04:00      -87.243      -99.134       -7.014       40.253       48.115       26.687     1620.280     2315.034      712.213        1.107        0.232      132.057       17.302        0.017      345.103       22.395      864.736
07/13/2014  04:05:00      -94.040      -84.724        0.020       39.745       52.628       22.076     1579.702     2769.756      487.354        1.043        0.242      126.577       13.860        0.012      345.093       22.378      864.723
07/13/2014  04:06:00      -90.650      -81.648        4.132       52.118       55.451       27.420     2716.243     3074.846      751.863        1.072        0.327      121.999       25.992        0.045      345.109       22.405      864.740
07/13/2014  04:07:00     -120.654      -67.554       -5.893       35.713       40.601       23.992     1275.410     1648.454      575.609        1.133        0.175      138.278       23.428        0.029      345.039       22.285      864.742
07/13/2014  04:08:00     -116.989      -86.438       -4.114       48.208       48.857       23.587     2323.982     2387.006      556.352        1.322        0.263      145.458       23.880        0.027      345.054       22.311      864.735
07/13/2014  04:09:00     -111.410      -43.648       -9.455       27.438       30.683       17.036      752.857      941.441      290.232        0.820        0.099      119.655        9.115        0.006      345.009       22.236      864.750
07/13/2014  04:10:00     -146.660      -20.753        3.910       60.975       46.002       29.340     3717.911     2116.226      860.828        1.432        0.335      148.121       24.660        0.028      344.961       22.152      864.745
07/13/2014  04:11:00     -120.118      -44.106       -4.791       64.347       35.734       29.075     4140.517     1276.947      845.327        1.133        0.313      127.959       36.674        0.082      344.943       22.120      864.750
07/13/2014  04:12:00      -84.598      -25.559        1.450       46.676       31.670       28.262     2178.692     1002.985      798.728        0.590        0.199       88.374       22.465        0.065      344.886       22.023      864.752
07/13/2014  04:13:00      -84.414      -28.711        9.686       42.016       38.368       21.988     1765.318     1472.137      483.493        0.588        0.186       89.163       19.112        0.046      344.845       21.952      864.746
07/13/2014  04:14:00     -115.540      -61.744       -2.118       39.991       45.662       21.362     1599.307     2085.041      456.354        1.065        0.207      131.003       22.365        0.029      344.838       21.941      864.760
07/13/2014  04:15:00      -81.954      -29.474        5.368       49.129       36.627       19.918     2413.639     1341.537      396.744        0.588        0.208       87.092       23.175        0.071      344.788       21.855      864.767
07/13/2014  04:16:00     -107.256      -18.225       -3.489       41.700       29.559       21.076     1738.903      873.738      444.217        0.745        0.153      108.794       22.494        0.043      344.696       21.697      864.769
07/13/2014  04:17:00     -100.538      -40.965       -1.600       27.811       24.255       18.616      773.452      588.323      346.559        0.675        0.085      108.564       18.239        0.028      344.658       21.632      864.778
07/13/2014  04:18:00     -113.473      -41.997       -1.930       31.276       32.705       15.175      978.192     1069.587      230.278        0.846        0.114      120.996       16.341        0.018      344.619       21.568      864.783
07/13/2014  04:19:00     -126.492      -39.563       -3.201       24.958       23.728       15.708      622.893      563.032      246.755        0.950        0.072      132.535       10.219        0.006      344.621       21.571      864.788
07/13/2014  04:20:00     -107.204      -39.199       -7.777       34.298       30.196       13.271     1176.329      911.825      176.119        0.768        0.113      114.145       15.299        0.018      344.585       21.508      864.804
07/13/2014  04:21:00      -78.889      -24.015       -5.191       33.239       24.596       18.071     1104.828      604.975      326.546        0.443        0.102       82.464       16.910        0.042      344.523       21.403      864.815
07/13/2014  04:22:00     -103.403      -13.000       -1.993       33.819       22.616       16.253     1143.746      511.477      264.171        0.639        0.096      104.217       16.353        0.025      344.452       21.282      864.817
07/13/2014  04:23:00      -87.983      -19.169       -0.667       29.029       24.713       18.291      842.695      610.726      334.559        0.495        0.089       90.047       15.208        0.029      344.409       21.207      864.823
07/13/2014  04:24:00      -99.387      -32.855        0.595       30.301       28.899       17.482      918.145      835.145      305.611        0.651        0.103      104.677       13.896        0.018      344.441       21.261      864.827
07/13/2014  04:25:00     -132.461      -41.848       -4.803       24.399       24.770       15.489      595.290      613.550      239.919        1.038        0.072      138.915       13.029        0.009      344.492       21.348      864.827
07/13/2014  04:26:00     -127.547      -31.271       -8.639       37.647       26.342       22.087     1417.280      693.920      487.831        0.996        0.130      131.325       20.061        0.023      344.529       21.412      864.822
07/13/2014  04:27:00     -106.603      -71.297       -1.998       42.184       26.438       20.350     1779.488      698.979      414.105        0.967        0.145      128.247       18.910        0.022      344.501       21.363      864.823
07/13/2014  04:28:00     -114.119      -54.095       -2.884       40.069       24.152       14.794     1605.525      583.305      218.866        0.918        0.120      126.291        7.094        0.003      344.539       21.430      864.824
07/13/2014  04:29:00     -155.777      -65.062       -9.780       20.250       22.488       13.786      410.080      505.695      190.050        1.485        0.055      168.818       10.080        0.004      344.525       21.405      864.821
07/13/2014  04:30:00     -124.215      -55.206       -9.044       17.413       20.157       14.706      303.202      406.294      216.256        0.974        0.046      135.931        7.225        0.003      344.507       21.376      864.820
07/13/2014  04:31:00     -112.149      -71.990       -3.286       34.574       37.166       16.113     1195.390     1381.343      259.642        1.030        0.142      133.266       15.828        0.014      344.494       21.353      864.829
07/13/2014  04:32:00      -76.802      -43.533        7.443       54.854       33.262       24.481     3008.913     1106.340      599.302        0.628        0.236       88.282       27.691        0.098      344.467       21.306      864.819
07/13/2014  04:33:00      -92.741      -75.315        0.482       55.583       40.642       31.883     3089.455     1651.789     1016.551        1.001        0.288      119.471       31.281        0.069      344.524       21.404      864.827
07/13/2014  04:34:00      -74.602      -62.701        8.757       50.714       33.174       25.632     2571.946     1100.521      657.013        0.695        0.216       97.452       19.884        0.042      344.504       21.370      864.838
07/13/2014  04:35:00      -88.065      -63.501        4.283       39.365       35.150       25.903     1549.610     1235.527      670.991        0.763        0.173      108.572       23.032        0.045      344.508       21.377      864.844
07/13/2014  04:36:00     -118.416      -92.855        0.134       36.200       32.472       21.473     1310.445     1054.441      461.071        1.273        0.141      150.481       18.747        0.016      344.559       21.464      864.851
07/13/2014  04:37:00      -85.097      -70.752        5.214       77.065       44.071       29.089     5939.088     1942.292      846.171        1.050        0.436      110.667       34.138        0.095      344.611       21.552      864.867
07/13/2014  04:38:00     -107.155      -73.327       -6.008       41.774       41.676       19.422     1745.090     1736.909      377.220        1.038        0.193      129.842       16.754        0.017      344.628       21.583      864.871
07/13/2014  04:39:00      -96.344      -46.736       -3.317       26.339       30.995       18.710      693.751      960.661      350.059        0.674        0.100      107.082       14.168        0.018      344.671       21.655      864.873
07/13/2014  04:40:00     -107.696      -42.678        0.761       25.323       19.685       14.992      641.256      387.499      224.775        0.734        0.063      115.844       15.378        0.018      344.642       21.606      864.898
07/13/2014  04:41:00      -73.291      -51.280        5.204       49.599       31.509       20.660     2460.106      992.800      426.843        0.595        0.194       89.449       24.690        0.076      344.649       21.618      864.906
07/13/2014  04:42:00      -62.019      -41.455        4.704       35.110       23.072       21.111     1232.707      532.296      445.693        0.390        0.111       74.598       17.117        0.053      344.674       21.662      864.923
07/13/2014  04:43:00      -77.171      -48.422       -0.914       26.290       21.767       15.361      691.139      473.814      235.952        0.485        0.070       91.104       12.489        0.019      344.628       21.582      864.943
07/13/2014  04:44:00     -113.756      -74.955       -3.595       35.404       23.002       18.162     1253.446      529.115      329.862        1.034        0.106      136.230       12.601        0.009      344.703       21.709      864.947
07/13/2014  04:45:00     -112.103      -57.628       -1.883       37.360       25.926       19.332     1395.743      672.142      373.727        0.917        0.122      126.048       19.137        0.023      344.687       21.683      864.946
07/13/2014  04:46:00      -82.202      -58.880        5.858       46.364       33.915       21.971     2149.635     1150.213      482.737        0.702        0.189      101.114       25.232        0.062      344.637       21.597      864.964
07/13/2014  04:47:00      -81.869      -51.036        7.697       48.388       25.627       21.625     2341.416      656.731      467.655        0.642        0.173       96.474       20.374        0.045      344.646       21.613      864.968
07/13/2014  04:48:00     -111.171      -51.671        2.788       40.502       27.162       22.317     1640.433      737.754      498.047        0.896        0.144      122.593       23.471        0.037      344.638       21.600      864.970
07/13/2014  04:49:00      -93.399      -55.031       -0.151       48.284       28.774       21.757     2331.381      827.956      473.349        0.769        0.182      108.406       23.385        0.047      344.640       21.601      864.980
07/13/2014  04:50:00     -101.762      -62.690        0.445       51.144       38.046       21.691     2615.711     1447.521      470.512        0.941        0.227      119.522       20.437        0.029      344.703       21.711      864.993
07/13/2014  04:51:00      -92.388      -58.984        3.539       47.972       31.269       20.564     2301.271      977.780      422.889        0.786        0.185      109.611       21.890        0.040      344.688       21.682      864.991
07/13/2014  04:52:00      -73.489      -57.593        1.416       32.589       25.259       22.295     1062.034      638.028      497.073        0.546        0.110       93.368       15.979        0.029      344.688       21.684      864.986
07/13/2014  04:53:00      -76.589      -50.915        4.877       49.589       23.593       20.057     2459.038      556.620      402.290        0.595        0.171       91.968       26.617        0.084      344.727       21.752      864.983
07/13/2014  04:54:00      -35.655      -29.800        3.092       29.869       23.250       16.414      892.152      540.570      269.421        0.194        0.085       46.468       17.405        0.140      344.708       21.719      864.985
07/13/2014  04:55:00     -102.301      -30.815      -11.181       13.986       23.784       11.950      195.615      565.661      142.803        0.622        0.045      106.841       12.015        0.013      344.555       21.458      864.983
07/13/2014  04:56:00     -101.495      -26.772       -4.728       19.336       19.734       10.260      373.881      389.425      105.263        0.595        0.043      104.967        7.634        0.005      344.541       21.433      864.978
07/13/2014  04:57:00      -83.630      -41.103        2.536       23.293       20.899       14.164      542.583      436.761      200.616        0.493        0.059       93.185       11.818        0.016      344.565       21.476      864.980
07/13/2014  04:58:00      -71.779      -43.119        0.559       21.696       17.166       14.509      470.728      294.688      210.524        0.399        0.049       83.734        5.720        0.005      344.580       21.499      864.988
07/13/2014  04:59:00      -59.331      -45.722       -0.039       34.099       25.786       16.887     1162.717      664.932      285.163        0.386        0.106       74.904       15.501        0.043      344.580       21.499      864.984
07/13/2014  05:00:00     -100.014      -40.636       -0.628       26.312       19.747       16.798      692.297      389.961      282.169        0.651        0.068      107.954       16.205        0.023      344.529       21.412      864.981
07/13/2014  05:01:00     -105.481      -26.178       -5.026       17.022       15.484        9.669      289.732      239.741       93.486        0.623        0.031      108.681        4.917        0.002      344.524       21.404      864.983
07/13/2014  05:02:00      -53.458      -43.202        3.119       26.973       22.281       15.378      727.556      496.460      236.496        0.310        0.073       68.733       12.968        0.036      344.498       21.362      864.986
07/13/2014  05:03:00      -58.477      -44.011        1.125       27.787       21.883       16.439      772.100      478.886      270.241        0.344        0.076       73.188       16.492        0.051      344.611       21.552      864.990
07/13/2014  05:04:00      -60.115      -28.669       -0.564       33.623       21.524       16.137     1130.503      463.277      260.411        0.314        0.093       66.601       13.552        0.041      344.599       21.531      864.989
07/13/2014  05:05:00      -60.823      -33.047       -7.044       16.998       19.555       13.315      288.919      382.410      177.284        0.284        0.042       69.221       10.894        0.025      344.583       21.504      864.991
07/13/2014  05:06:00      -84.053      -33.124       -3.470       22.389       22.590       13.825      501.273      510.299      191.129        0.469        0.060       90.345        8.689        0.009      344.574       21.489      864.991
07/13/2014  05:07:00      -73.793      -47.128       -1.507       24.252       18.091       12.602      588.165      327.290      158.799        0.437        0.054       87.558        7.456        0.007      344.553       21.453      864.996
07/13/2014  05:08:00      -69.651      -43.085        2.846       40.495       24.007       16.365     1639.853      576.333      267.798        0.460        0.124       81.899       11.124        0.018      344.526       21.408      865.005
07/13/2014  05:09:00      -42.644      -41.859        2.577       26.607       23.451       13.856      707.916      549.967      191.985        0.251        0.072       59.755        9.677        0.026      344.529       21.413      865.002
07/13/2014  05:10:00      -61.372      -40.791        5.925       25.564       22.054       16.256      653.505      486.378      264.247        0.343        0.070       73.691       15.354        0.043      344.518       21.396      865.006
07/13/2014  05:11:00      -62.100      -31.431        7.254       23.570       21.657       13.856      555.559      469.019      192.001        0.306        0.061       69.601       11.110        0.025      344.472       21.314      865.017
07/13/2014  05:12:00      -62.776      -39.794        1.815       25.235       21.411       12.963      636.790      458.425      168.031        0.340        0.063       74.326       12.482        0.028      344.498       21.359      865.036
07/13/2014  05:13:00      -76.975      -17.219       -6.619       16.662       14.243       11.079      277.638      202.863      122.735        0.343        0.030       78.878        9.866        0.016      344.447       21.273      865.064
07/13/2014  05:14:00      -62.093      -34.019       -4.292       29.185       14.246        9.050      851.778      202.941       81.910        0.308        0.057       70.801        4.960        0.005      344.490       21.346      865.085
07/13/2014  05:15:00      -21.974      -27.043       -3.676       21.474       19.985        9.538      461.143      399.394       90.965        0.109        0.048       34.845       13.719        0.155      344.528       21.414      865.097
07/13/2014  05:16:00      -30.743      -45.576        6.695       28.122       23.889       16.540      790.860      570.676      273.581        0.235        0.082       54.976       15.054        0.075      344.526       21.408      865.090
07/13/2014  05:17:00      -82.702      -68.899        3.234       30.569       23.675       21.190      934.436      560.497      449.014        0.677        0.097      107.642       16.424        0.023      344.475       21.322      865.083
07/13/2014  05:18:00      -86.583      -66.290        3.257       36.387       29.231       21.099     1324.037      854.473      445.186        0.726        0.131      109.046       17.038        0.024      344.492       21.348      865.081
07/13/2014  05:19:00     -100.066      -51.444       -0.123       34.624       30.780       23.462     1198.818      947.381      550.480        0.768        0.135      112.515       19.639        0.030      344.471       21.315      865.085
07/13/2014  05:20:00     -102.805      -35.556       -2.087       41.707       35.132       21.403     1739.450     1234.273      458.076        0.763        0.172      108.780       21.376        0.039      344.433       21.247      865.083
07/13/2014  05:21:00     -116.501      -50.997       -1.032       34.765       32.769       14.017     1208.632     1073.823      196.480        0.933        0.124      127.174        8.738        0.005      344.463       21.301      865.085
07/13/2014  05:22:00     -115.090      -49.478       -4.452       20.108       18.322       13.945      404.351      335.681      194.476        0.832        0.047      125.275       13.170        0.011      344.434       21.250      865.087
07/13/2014  05:23:00     -113.198      -39.059       -4.656       19.414       22.412       11.381      376.886      502.288      129.516        0.768        0.050      119.747        8.967        0.006      344.377       21.154      865.092
07/13/2014  05:24:00      -94.995      -56.536        7.873       47.563       36.195       22.692     2262.215     1310.062      514.905        0.818        0.204      110.546       22.293        0.041      344.411       21.211      865.092
07/13/2014  05:25:00      -75.633      -46.848        4.662       48.004       35.463       23.140     2304.375     1257.604      535.454        0.602        0.205       88.966       19.019        0.046      344.435       21.250      865.100
07/13/2014  05:26:00      -81.903      -52.654       10.269       50.602       33.339       21.333     2560.560     1111.520      455.101        0.686        0.206       97.368       23.950        0.061      344.385       21.167      865.104
07/13/2014  05:27:00     -110.781      -37.375       -2.898       42.629       23.291       17.839     1817.246      542.476      318.245        0.818        0.134      116.916       11.076        0.009      344.402       21.196      865.102
07/13/2014  05:28:00     -104.684      -43.812       -5.512       36.853       23.784       22.157     1358.162      565.700      490.916        0.766        0.121      113.483       19.058        0.028      344.389       21.173      865.097
07/13/2014  05:29:00     -115.901      -69.303       -4.020       38.639       24.401       21.271     1492.981      595.384      452.460        1.040        0.127      135.041       16.385        0.015      344.382       21.161      865.087
07/13/2014  05:30:00      -79.333      -43.980        6.589       43.807       32.431       21.319     1919.016     1051.752      454.519        0.585        0.171       90.708       20.654        0.052      344.303       21.027      865.075
07/13/2014  05:31:00     -115.024      -55.334        1.305       50.707       40.683       19.636     2571.243     1655.083      385.565        1.045        0.231      127.642       20.780        0.027      344.332       21.076      865.085
07/13/2014  05:32:00     -113.515      -47.408       -1.624       41.544       37.854       19.234     1725.898     1432.935      369.952        0.933        0.176      123.017       18.124        0.022      344.281       20.988      865.087
07/13/2014  05:33:00     -120.875      -38.326       -8.446       33.037       36.134       22.596     1091.440     1305.638      510.587        0.953        0.145      126.806       13.363        0.011      344.268       20.966      865.086
07/13/2014  05:34:00     -122.244      -29.334      -12.205       35.820       25.627       19.459     1283.046      656.754      378.665        0.914        0.116      125.715       20.025        0.025      344.262       20.957      865.088
07/13/2014  05:35:00     -107.297      -25.476        0.606       24.199       23.651       15.173      585.601      559.351      230.219        0.677        0.069      110.280       10.243        0.009      344.199       20.848      865.100
07/13/2014  05:36:00     -111.982      -43.764       -2.699       27.378       25.107       13.214      749.551      630.386      174.606        0.801        0.078      120.230       12.761        0.011      344.184       20.825      865.112
07/13/2014  05:37:00     -110.190      -43.367       -1.324       26.258       23.037       13.643      689.466      530.699      186.119        0.772        0.070      118.417        7.873        0.004      344.125       20.722      865.118
07/13/2014  05:38:00      -99.422      -49.242        4.724       37.691       27.536       18.360     1420.631      758.220      337.091        0.742        0.126      110.948       19.309        0.030      344.154       20.770      865.120
07/13/2014  05:39:00      -91.101      -69.306       -1.201       41.893       33.887       21.153     1754.984     1148.357      447.452        0.823        0.168      114.467       19.158        0.028      344.151       20.766      865.127
07/13/2014  05:40:00     -120.176      -78.281       -8.672       31.875       30.402       22.109     1016.025      924.264      488.805        1.154        0.121      143.424       18.337        0.016      344.228       20.897      865.135
07/13/2014  05:41:00      -95.819      -67.205       -0.817       53.187       37.779       24.695     2828.846     1427.228      609.867        0.928        0.243      117.038       27.995        0.057      344.193       20.837      865.153
07/13/2014  05:42:00      -94.000      -72.040       -2.759       33.015       27.851       19.861     1089.990      775.654      394.460        0.815        0.113      118.430       14.416        0.015      344.229       20.898      865.153
07/13/2014  05:43:00     -106.748      -66.385       -3.397       30.021       33.072       23.742      901.246     1093.787      563.695        0.919        0.128      125.706       14.932        0.014      344.173       20.804      865.162
07/13/2014  05:44:00     -129.699      -43.043       -5.218       36.466       27.078       18.481     1329.796      733.196      341.539        1.055        0.120      136.655       20.469        0.022      344.137       20.743      865.169
07/13/2014  05:45:00     -127.695      -33.553        3.718       41.613       29.757       19.032     1731.606      885.506      362.214        1.021        0.149      132.029       16.935        0.016      344.100       20.678      865.174
07/13/2014  05:46:00     -104.724      -37.702        1.610       54.122       32.577       16.306     2929.228     1061.260      265.873        0.832        0.213      111.304       22.507        0.041      344.110       20.696      865.198
07/13/2014  05:47:00     -108.465      -51.648       -2.875       30.359       28.618       15.689      921.663      818.997      246.140        0.821        0.099      120.134       14.741        0.015      344.121       20.717      865.210
07/13/2014  05:48:00     -103.748      -34.860        5.701       28.335       20.572       14.875      802.897      423.192      221.264        0.673        0.072      109.448       15.037        0.019      344.060       20.610      865.226
07/13/2014  05:49:00      -99.487      -31.894       -5.628       17.406       21.682       12.580      302.961      470.113      158.252        0.594        0.047      104.474        8.700        0.007      344.155       20.774      865.238
07/13/2014  05:50:00      -80.808      -32.029       -6.489       23.092       22.292       11.287      533.237      496.941      127.388        0.438        0.058       86.924        8.955        0.011      344.135       20.740      865.268
07/13/2014  05:51:00      -71.513      -51.448        0.927       25.566       18.557       13.509      653.632      344.376      182.491        0.447        0.059       88.097       13.080        0.022      344.074       20.636      865.272
07/13/2014  05:52:00      -93.784      -49.495       -1.879       26.982       18.031       15.573      728.017      325.125      242.518        0.627        0.065      106.043       11.745        0.012      344.063       20.616      865.275
07/13/2014  05:53:00     -100.970      -71.700        0.930       36.510       24.791       23.591     1332.948      614.589      556.520        0.892        0.125      123.838       20.441        0.027      344.026       20.553      865.273
07/13/2014  05:54:00     -116.080      -53.296       -2.333       41.268       33.869       19.795     1703.051     1147.102      391.855        0.978        0.162      127.730       15.996        0.016      344.017       20.537      865.270
07/13/2014  05:55:00     -145.224      -66.576       -5.906       28.114       32.389       17.078      790.375     1049.047      291.662        1.384        0.107      159.757       13.251        0.007      343.999       20.507      865.270
07/13/2014  05:56:00     -138.383      -16.049      -11.783       34.637       23.376       19.848     1199.717      546.440      393.952        1.084        0.107      139.310       18.113        0.017      343.997       20.502      865.276
07/13/2014  05:57:00     -141.965      -10.227      -10.361       18.115       13.865       12.981      328.160      192.249      168.514        1.053        0.034      142.333       10.657        0.006      344.063       20.616      865.267
07/13/2014  05:58:00      -98.545       -2.213       -5.346       36.004       24.244       18.382     1296.253      587.792      337.882        0.598        0.111       98.569       19.132        0.038      344.004       20.516      865.261
07/13/2014  05:59:00      -98.943      -34.032       -6.194       26.730       20.381       13.049      714.517      415.395      170.273        0.614        0.065      104.633       11.962        0.013      344.023       20.546      865.253
07/13/2014  06:00:00      -86.029      -12.325       -1.554       27.188       18.573       17.528      739.182      344.948      307.235        0.447        0.070       86.907       12.668        0.021      343.990       20.490      865.256
07/13/2014  06:01:00      -88.214      -19.808       -5.399       21.069       15.666       13.088      443.893      245.419      171.283        0.453        0.043       90.410       12.323        0.019      344.014       20.531      865.261
07/13/2014  06:02:00      -76.953      -38.821       -5.614       22.008       27.750       15.805      484.359      770.043      249.787        0.448        0.075       86.190       15.580        0.033      344.032       20.563      865.263
07/13/2014  06:03:00      -99.189      -31.426       -5.505       15.593       18.217       12.687      243.139      331.865      160.951        0.580        0.037      104.048        8.683        0.007      343.961       20.441      865.262
07/13/2014  06:04:00      -93.292      -15.039       -9.872       21.202       22.104       19.126      449.515      488.576      365.813        0.517        0.065       94.496       15.730        0.028      343.881       20.304      865.260
07/13/2014  06:05:00      -78.950       -4.126       -9.914       30.531       25.133       18.020      932.130      631.651      324.734        0.412        0.094       79.058       15.872        0.040      343.903       20.341      865.259
07/13/2014  06:06:00      -89.873      -20.256       -8.277       22.687       21.795       14.343      514.684      475.002      205.708        0.488        0.060       92.127       12.473        0.018      343.888       20.319      865.258
07/13/2014  06:07:00     -131.084      -22.133       -8.404       31.606       21.558       17.977      998.918      464.768      323.185        0.976        0.089      132.939       15.920        0.014      343.901       20.339      865.255
07/13/2014  06:08:00     -124.523      -37.174      -10.798       32.898       28.738       18.571     1082.290      825.868      344.886        0.963        0.113      129.954       17.593        0.018      343.900       20.336      865.260
07/13/2014  06:09:00     -107.277      -40.606       10.491       38.954       37.161       20.648     1517.442     1380.942      426.335        0.830        0.166      114.705       21.852        0.036      343.926       20.381      865.274
07/13/2014  06:10:00     -136.747      -25.538       -1.658       34.983       32.100       22.161     1223.800     1030.387      491.113        1.105        0.137      139.111       19.267        0.019      343.985       20.482      865.289
07/13/2014  06:11:00     -140.400      -35.826       -6.612       34.322       31.160       16.644     1177.974      970.966      277.028        1.173        0.121      144.898       14.272        0.010      344.031       20.560      865.295
07/13/2014  06:12:00     -139.983      -39.010       -2.118       36.669       37.576       20.471     1344.590     1411.992      419.080        1.215        0.159      145.317       22.165        0.023      344.033       20.565      865.310
07/13/2014  06:13:00     -103.122      -18.104        1.000       44.561       33.190       24.355     1985.696     1101.561      593.190        0.732        0.184      104.699       19.711        0.035      344.047       20.588      865.312
07/13/2014  06:14:00     -114.927      -16.169        4.290       48.899       46.370       28.697     2391.092     2150.171      823.522        0.943        0.268      116.059       24.353        0.044      343.990       20.492      865.308
07/13/2014  06:15:00     -122.638      -45.958        1.835       44.665       38.212       26.893     1994.948     1460.123      723.248        1.067        0.209      130.966       23.463        0.032      344.031       20.563      865.308
07/13/2014  06:16:00      -91.149      -36.470        3.355       48.550       30.771       22.577     2357.083      946.832      509.729        0.673        0.191       98.174       22.093        0.051      344.046       20.588      865.313
07/13/2014  06:17:00     -121.471      -91.605       -5.176       48.696       47.717       24.211     2371.279     2276.877      586.183        1.420        0.262      152.140       25.076        0.027      344.090       20.661      865.317
07/13/2014  06:18:00      -77.944      -70.803        0.292       34.312       31.367       17.819     1177.306      983.861      317.506        0.678        0.124      105.301       15.772        0.022      344.107       20.692      865.326
07/13/2014  06:19:00      -83.624      -77.238       -1.508       60.545       40.848       23.846     3665.678     1668.552      568.614        0.943        0.295      113.836       25.963        0.052      344.171       20.800      865.342
07/13/2014  06:20:00      -86.669      -48.622        1.184       65.169       43.686       23.462     4246.950     1908.484      550.467        0.829        0.335       99.376       28.500        0.082      344.149       20.763      865.350
07/13/2014  06:21:00      -80.760      -53.745        1.302       50.752       33.198       18.685     2575.733     1102.140      349.141        0.672        0.201       97.009       16.261        0.028      344.159       20.780      865.357
07/13/2014  06:22:00      -98.511      -65.524       -1.279       36.718       30.297       17.956     1348.208      917.896      322.409        0.829        0.129      118.313       19.817        0.028      344.165       20.791      865.354
07/13/2014  06:23:00     -110.112      -69.920        0.348       30.223       28.600       25.368      913.442      817.980      643.529        0.969        0.119      130.435       20.506        0.025      344.186       20.826      865.346
07/13/2014  06:24:00      -86.952      -80.992       -8.360       33.172       26.620       21.794     1100.360      708.601      474.972        0.824        0.114      118.829       16.998        0.020      344.201       20.852      865.347
07/13/2014  06:25:00      -58.317      -73.131       -4.753       38.517       29.411       21.521     1483.573      865.005      463.139        0.579        0.141       93.537       15.828        0.029      344.267       20.964      865.358
07/13/2014  06:26:00      -73.379      -63.025        0.178       35.903       38.813       19.839     1289.041     1506.447      393.593        0.627        0.159       96.730       18.782        0.038      344.267       20.964      865.363
07/13/2014  06:27:00      -77.613      -47.220        3.746       32.035       27.209       16.487     1026.227      740.348      271.823        0.515        0.102       90.849       19.297        0.045      344.308       21.035      865.377
07/13/2014  06:28:00      -70.449      -51.948       -1.596       40.962       34.615       15.830     1677.858     1198.189      250.581        0.539        0.156       87.531       17.802        0.041      344.269       20.967      865.384
07/13/2014  06:29:00      -36.773      -36.154        7.368       39.158       32.235       18.563     1533.312     1039.067      344.593        0.281        0.146       51.569       22.341        0.188      344.313       21.043      865.384
07/13/2014  06:30:00      -82.691      -43.012       -0.535       25.942       22.929       17.197      672.982      525.726      295.722        0.509        0.075       93.208       16.479        0.031      344.306       21.030      865.387
07/13/2014  06:31:00      -66.764      -45.068        4.070       30.989       23.229       16.423      960.339      539.606      269.699        0.414        0.088       80.552       15.649        0.038      344.338       21.086      865.397
07/13/2014  06:32:00      -44.795      -38.234        3.429       34.996       26.065       15.646     1224.749      679.406      244.807        0.281        0.107       58.893       13.691        0.054      344.383       21.163      865.405
07/13/2014  06:33:00      -56.335      -55.994        8.263       33.547       26.355       21.406     1125.376      694.566      458.209        0.433        0.114       79.429       20.135        0.064      344.345       21.099      865.423
07/13/2014  06:34:00      -84.594      -54.562       -1.066       33.339       29.254       21.606     1111.515      855.769      466.838        0.628        0.122      100.664       15.508        0.024      344.341       21.091      865.433
07/13/2014  06:35:00     -125.108      -62.909       -3.326       27.330       31.436       20.600      746.907      988.241      424.353        1.089        0.108      140.034       13.579        0.009      344.409       21.206      865.426
07/13/2014  06:36:00      -56.875      -59.712        1.511       23.772       26.125       13.715      565.116      682.506      188.096        0.412        0.072       82.464       12.145        0.022      344.441       21.261      865.429
07/13/2014  06:37:00      -27.240      -44.053        4.643       31.152       19.031       14.365      970.461      362.194      206.340        0.212        0.077       51.795       12.126        0.055      344.492       21.350      865.437
07/13/2014  06:38:00      -56.574      -41.340       -0.301       31.978       33.270       11.779     1022.615     1106.878      138.737        0.359        0.113       70.069       15.102        0.046      344.521       21.399      865.435
07/13/2014  06:39:00      -52.136      -55.387        0.234       14.856       20.382        9.827      220.712      415.426       96.574        0.326        0.037       76.065        5.806        0.006      344.530       21.415      865.427
07/13/2014  06:40:00      -46.634      -47.705        1.453       22.031       26.314       13.198      485.375      692.434      174.198        0.290        0.068       66.712       15.338        0.053      344.585       21.509      865.427
07/13/2014  06:41:00      -55.065      -28.298       -0.185       33.913       22.481       14.249     1150.077      505.384      203.039        0.285        0.093       61.910       16.150        0.068      344.605       21.543      865.420
07/13/2014  06:42:00      -25.079      -28.186        0.233       22.981        9.886       11.440      528.117       97.724      130.875        0.109        0.038       37.729        7.408        0.039      344.593       21.523      865.414
07/13/2014  06:43:00      -42.958      -31.930       -1.507       14.425       10.330        9.492      208.068      106.700       90.103        0.164        0.020       53.525        8.671        0.026      344.687       21.683      865.409
07/13/2014  06:44:00      -58.562      -34.633        0.571       16.806       18.616       11.721      282.457      346.540      137.381        0.270        0.038       68.036        8.858        0.017      344.711       21.724      865.396
07/13/2014  06:45:00      -56.146      -39.083        2.814       17.008       19.275       13.842      289.280      371.534      191.611        0.277        0.043       68.409       11.621        0.029      344.750       21.790      865.386
07/13/2014  06:46:00      -59.268      -18.539       -2.063       11.857       13.538        7.602      140.582      183.277       57.788        0.212        0.019       62.100        3.880        0.004      344.714       21.730      865.375
07/13/2014  06:47:00      -66.252        0.096        0.420       28.722       16.374       13.252      824.949      268.117      175.608        0.283        0.063       66.253       14.935        0.051      344.765       21.815      865.339
07/13/2014  06:48:00      -80.795       15.190       -8.769       13.111       16.039       11.704      171.906      257.247      136.976        0.370        0.028       82.210       10.582        0.017      344.658       21.634      865.314
07/13/2014  06:49:00      -80.677       -3.000      -10.164       15.137       15.198       10.913      229.121      230.966      119.096        0.360        0.029       80.733        7.305        0.008      344.707       21.715      865.295
07/13/2014  06:50:00      -61.009       -7.263        1.838       23.945       19.867       12.487      573.361      394.687      155.921        0.245        0.056       61.440       11.196        0.033      344.789       21.856      865.274
07/13/2014  06:51:00      -49.611      -15.728        1.700       19.048       17.579       11.351      362.817      309.007      128.856        0.176        0.040       52.044        8.899        0.029      344.862       21.982      865.269
07/13/2014  06:52:00      -21.622      -17.172        4.313       19.389       19.430       13.673      375.949      377.511      186.940        0.086        0.047       27.611       16.155        0.342      345.195       22.551      865.259
07/13/2014  06:53:00      -20.754       -3.845       11.373       18.247       21.864       15.686      332.940      478.039      246.045        0.082        0.053       21.108       12.443        0.348      345.139       22.456      865.264
07/13/2014  06:54:00      -53.885      -30.265       -4.457       13.187       13.836        8.367      173.910      191.434       70.005        0.214        0.022       61.802        6.976        0.013      344.918       22.077      865.258
07/13/2014  06:55:00      -39.855      -34.002        0.622       25.345       13.722       12.623      642.384      188.283      159.336        0.187        0.050       52.388       15.349        0.086      345.043       22.294      865.270
07/13/2014  06:56:00      -37.889      -29.426        2.152       16.419       13.495        9.217      269.584      182.105       84.950        0.142        0.027       47.974        8.597        0.032      344.942       22.119      865.270
07/13/2014  06:57:00      -27.541      -37.374        3.620       20.754       20.119       11.688      430.740      404.787      136.601        0.157        0.049       46.426       10.010        0.046      345.178       22.524      865.284
07/13/2014  06:58:00      -43.928      -54.072       -2.811       14.619       15.049       11.306      213.701      226.470      127.834        0.271        0.028       69.667        9.535        0.019      345.129       22.443      865.298
07/13/2014  06:59:00      -31.277      -55.311       -4.775       14.431       10.467        8.505      208.244      109.557       72.327        0.223        0.020       63.542        6.348        0.010      345.130       22.442      865.319
07/13/2014  07:00:00      -40.660      -87.856       -1.524       14.060       14.348        8.873      197.672      205.860       78.729        0.493        0.024       96.809        5.032        0.003      345.196       22.553      865.335
07/13/2014  07:01:00      -49.421      -73.152       -5.575       25.109       34.313       14.941      630.469     1177.400      223.239        0.493        0.102       88.281        7.763        0.008      345.251       22.648      865.354
07/13/2014  07:02:00      -23.479      -19.913       12.964       19.572       34.532       17.033      383.051     1192.468      290.140        0.149        0.093       30.786       17.493        0.323      345.432       22.959      865.360
07/13/2014  07:03:00      -48.791      -83.609        1.405       24.728       19.493       17.500      611.496      379.985      306.264        0.534        0.065       96.804        9.255        0.009      345.157       22.488      865.368
07/13/2014  07:04:00      -34.201      -37.633        5.524       31.755       20.549       21.626     1008.382      422.269      467.682        0.226        0.095       50.853       20.123        0.157      345.289       22.712      865.364
07/13/2014  07:05:00      -45.754      -29.839        2.599       40.057       22.795       16.065     1604.597      519.600      258.087        0.269        0.119       54.624       20.391        0.139      345.227       22.608      865.369
07/13/2014  07:06:00      -28.159      -61.695       -1.569       30.308       30.089       16.911      918.592      905.353      285.979        0.336        0.105       67.818       17.680        0.068      345.201       22.564      865.375
07/13/2014  07:07:00      -37.124      -64.279       -6.525       21.182       17.677       17.707      448.685      312.483      313.529        0.331        0.054       74.229       12.096        0.027      345.104       22.398      865.376
07/13/2014  07:08:00      -38.424      -90.108       -3.718       25.150       29.297       15.329      632.525      858.320      234.966        0.567        0.086       97.958       10.451        0.011      345.060       22.323      865.391
07/13/2014  07:09:00      -27.621      -51.958       14.420       27.120       28.651       19.489      735.483      820.886      379.832        0.280        0.097       58.844       17.644        0.090      345.196       22.553      865.386
07/13/2014  07:10:00      -58.686      -47.344        2.037       34.182       27.784       15.799     1168.425      771.976      249.599        0.394        0.109       75.402       14.098        0.035      345.170       22.509      865.383
07/13/2014  07:11:00      -57.702      -60.539        0.282       26.847       34.190       16.161      720.736     1168.978      261.164        0.457        0.108       83.633       18.971        0.051      345.183       22.532      865.382
07/13/2014  07:12:00      -45.412      -85.068      -10.938       43.780       29.835       22.753     1916.701      890.135      517.695        0.637        0.166       96.430       24.696        0.066      345.164       22.500      865.385
07/13/2014  07:13:00        2.848      -47.767       -1.408       23.308       38.391       22.599      543.265     1473.903      510.731        0.241        0.126       47.852       21.621        0.204      345.503       23.080      865.392
07/13/2014  07:14:00      -30.245      -35.901        3.903       22.434       28.956       13.642      503.266      838.473      186.111        0.187        0.076       46.942       14.993        0.102      345.380       22.871      865.397
07/13/2014  07:15:00      -40.905      -29.523       -2.239       21.675       17.388       11.445      469.792      302.335      130.989        0.173        0.045       50.446        8.133        0.026      345.327       22.775      865.404
07/13/2014  07:16:00      -31.995      -12.274        1.961       10.333        9.559        6.424      106.777       91.381       41.263        0.071        0.012       34.269        2.944        0.007      345.364       22.841      865.403
07/13/2014  07:17:00      -22.835      -17.829       -2.947       14.138       10.103        5.709      199.875      102.080       32.592        0.059        0.017       28.971        3.006        0.011      345.381       22.871      865.419
07/13/2014  07:18:00      -28.872      -46.702        6.530       21.856       22.040       12.267      477.675      485.762      150.470        0.209        0.056       54.906       10.121        0.034      345.376       22.863      865.416
07/13/2014  07:19:00      -26.640      -48.624        4.166       20.339       11.621       11.164      413.678      135.056      124.637        0.188        0.034       55.443        4.084        0.005      345.378       22.867      865.429
07/13/2014  07:20:00      -18.713      -23.627        6.665       19.896       15.225       15.698      395.840      231.787      246.417        0.091        0.044       30.139       12.332        0.167      345.693       23.406      865.439
07/13/2014  07:21:00      -17.199       -7.610       11.391       18.781       13.947       13.888      352.715      194.530      192.864        0.061        0.037       18.807       12.625        0.451      345.742       23.490      865.446
07/13/2014  07:22:00      -35.626      -79.625       -2.202       19.875       30.998       17.947      395.019      960.846      322.105        0.465        0.084       87.231       11.727        0.018      345.350       22.817      865.456
07/13/2014  07:23:00      -56.286      -73.699       -4.065       13.173       16.822       12.141      173.522      282.968      147.401        0.461        0.030       92.735        6.178        0.004      345.295       22.724      865.447
07/13/2014  07:24:00      -14.254        1.843       32.579       19.281       22.490       13.754      371.776      505.779      189.168        0.117        0.053       14.373        8.628        0.360      345.892       23.749      865.437
07/13/2014  07:25:00       -4.680      -48.177       25.184       22.257       35.091       30.739      495.379     1231.351      944.861        0.282        0.134       48.404       22.784        0.222      345.855       23.686      865.428
07/13/2014  07:26:00      -23.588      -18.206        2.848       27.038       17.059       15.532      731.061      290.998      241.232        0.108        0.063       29.797       13.109        0.194      345.768       23.535      865.439
07/13/2014  07:27:00       -8.919       -2.918        9.231       12.695       11.226       18.306      161.154      126.017      335.095        0.040        0.031        9.384       12.011        1.638      346.102       24.108      865.440
07/13/2014  07:28:00       11.573        5.094       25.970       21.313       18.539       18.238      454.239      343.693      332.614        0.098        0.057       12.645       16.367        1.675      346.165       24.216      865.434
07/13/2014  07:29:00        9.443       21.862       33.371       22.904       21.327       20.222      524.604      454.842      408.947        0.153        0.069       23.814       17.871        0.563      346.304       24.456      865.431
07/13/2014  07:30:00        6.668        5.500       28.747       16.332       16.419       16.396      266.731      269.573      268.843        0.085        0.040        8.644       11.632        1.811      346.535       24.851      865.436
07/13/2014  07:31:00       34.610        6.105        7.396       24.289       20.317       20.232      589.957      412.772      409.318        0.135        0.071       35.144       16.791        0.228      345.946       23.840      865.432
07/13/2014  07:32:00      -10.650      -18.169       18.979       19.307       29.439       21.710      372.767      866.667      471.335        0.126        0.086       21.060       14.635        0.483      346.244       24.353      865.437
07/13/2014  07:33:00       -8.900      -28.373       36.979       15.391       35.718       13.195      236.881     1275.745      174.100        0.197        0.084       29.736        7.039        0.056      346.444       24.696      865.430
07/13/2014  07:34:00      -11.726      -30.214       24.454       21.002       20.367       16.859      441.083      414.825      284.218        0.139        0.057       32.410       12.605        0.151      346.356       24.545      865.423
07/13/2014  07:35:00      -30.375      -14.411        9.998       12.935       10.539       11.496      167.325      111.076      132.150        0.082        0.021       33.620        7.144        0.045      345.862       23.695      865.416
07/13/2014  07:36:00      -34.511       -7.341       12.341        8.825       13.230        8.366       77.877      175.045       69.991        0.086        0.016       35.284        5.460        0.024      345.834       23.648      865.410
07/13/2014  07:37:00      -24.212        4.889        9.171       14.682        7.251       12.366      215.552       52.573      152.919        0.056        0.021       24.701        8.437        0.117      345.877       23.722      865.421
07/13/2014  07:38:00      -10.038       13.362       32.651       14.043       15.652       18.672      197.198      244.997      348.656        0.107        0.040       16.713       12.143        0.528      346.724       25.180      865.431
07/13/2014  07:39:00        4.517       20.477       41.848       28.738       26.249       16.685      825.862      688.995      278.374        0.199        0.090       20.969       14.989        0.511      346.415       24.647      865.448
07/13/2014  07:40:00        4.756       34.479       43.806       25.932       26.738       27.807      672.453      714.923      773.231        0.265        0.108       34.806       23.044        0.438      346.363       24.557      865.464
07/13/2014  07:41:00        5.767      -16.825       24.575       18.068       31.781       24.326      326.436     1010.052      591.763        0.142        0.096       17.786       12.317        0.480      346.546       24.873      865.475
07/13/2014  07:42:00       13.328      -35.326       30.909       27.144       45.762       36.881      736.802     2094.115     1360.232        0.329        0.210       37.757       33.840        0.803      346.621       25.000      865.491
07/13/2014  07:43:00       -1.015       18.077       45.647       19.237       31.611       15.708      370.070      999.239      246.738        0.201        0.081       18.105       11.199        0.383      346.806       25.319      865.494
07/13/2014  07:44:00       47.643        2.689       12.037       36.191       40.507       36.689     1309.796     1640.829     1346.065        0.336        0.215       47.719       31.505        0.436      346.222       24.314      865.506
07/13/2014  07:45:00      -10.669      -28.844       32.019       19.913       26.216       16.735      396.525      687.254      280.060        0.167        0.068       30.754       11.122        0.131      346.427       24.668      865.515
07/13/2014  07:46:00        0.125       14.009       48.960       23.668       34.366       14.244      560.154     1181.043      202.903        0.227        0.097       14.009       13.413        0.917      346.671       25.086      865.524
07/13/2014  07:47:00       10.630       -4.850       34.200       26.922       58.613       35.539      724.778     3435.492     1263.029        0.336        0.271       11.684       34.482        8.709      346.592       24.949      865.535
07/13/2014  07:48:00       27.566      -31.103       11.625       41.113       58.284       44.314     1690.308     3397.009     1963.751        0.446        0.353       41.560       42.527        1.047      346.463       24.729      865.544
07/13/2014  07:49:00        4.540      -47.512       20.843       24.563       43.522       36.854      603.354     1894.143     1358.222        0.328        0.193       47.729       18.398        0.149      346.548       24.874      865.551
07/13/2014  07:50:00        1.239      -11.070       37.997       25.263       35.767       28.594      638.204     1279.310      817.644        0.215        0.137       11.139       26.325        5.585      346.922       25.517      865.549
07/13/2014  07:51:00       39.695      -37.330       -0.266       37.558       39.658       28.756     1410.596     1572.747      826.919        0.339        0.191       54.491       24.258        0.198      346.624       25.005      865.550
07/13/2014  07:52:00       54.326      -50.781       -7.945       44.175       65.675       41.657     1951.400     4313.260     1735.288        0.679        0.400       74.364       38.468        0.268      346.534       24.851      865.547
07/13/2014  07:53:00       23.447       30.855       55.505       36.330       30.364       30.972     1319.864      921.955      959.282        0.389        0.160       38.753       23.822        0.378      346.565       24.903      865.548
07/13/2014  07:54:00       29.692       41.992       57.078       38.463       33.375       29.430     1479.429     1113.884      866.117        0.468        0.173       51.429       27.332        0.282      346.450       24.705      865.556
07/13/2014  07:55:00       30.685       17.922       38.742       30.340       33.515       24.274      920.524     1123.285      589.245        0.270        0.132       35.536       23.249        0.428      346.626       25.010      865.551
07/13/2014  07:56:00       38.425       16.730       35.050       34.735       42.291       29.866     1206.486     1788.512      891.972        0.344        0.194       41.910       29.092        0.482      346.480       24.758      865.551
07/13/2014  07:57:00       97.371       65.448       40.547       36.592       30.606       26.960     1338.998      936.735      726.835        0.921        0.150      117.323       18.857        0.026      346.173       24.229      865.546
07/13/2014  07:58:00       32.055       26.239       43.061       46.156       36.194       34.745     2130.408     1309.985     1207.204        0.411        0.232       41.425       26.232        0.401      346.532       24.848      865.556
07/13/2014  07:59:00       28.291       36.787       59.954       46.055       42.543       36.490     2121.071     1809.942     1331.545        0.550        0.263       46.408       37.224        0.643      346.625       25.007      865.539
07/13/2014  08:00:00       47.493       57.042       41.666       44.240       46.782       44.471     1957.148     2188.568     1977.690        0.668        0.306       74.225       30.489        0.169      346.318       24.479      865.539
07/13/2014  08:01:00       71.452       39.127       14.297       33.946       25.827       24.558     1152.345      667.025      603.071        0.463        0.121       81.464        9.769        0.014      346.393       24.609      865.517
07/13/2014  08:02:00       70.137       20.419       16.808       27.121       26.900       22.572      735.560      723.618      509.505        0.379        0.098       73.049       17.975        0.061      346.511       24.812      865.513
07/13/2014  08:03:00       45.318       23.527       10.812       52.928       45.046       35.294     2801.353     2029.163     1245.651        0.440        0.304       51.061       21.980        0.185      346.648       25.047      865.503
07/13/2014  08:04:00       29.236       35.486       41.204       40.398       29.460       30.362     1631.968      867.889      921.866        0.362        0.171       45.978       28.784        0.392      346.938       25.545      865.515
07/13/2014  08:05:00       39.877       41.923       31.525       41.142       34.928       26.136     1692.648     1219.976      683.107        0.397        0.180       57.859       18.857        0.106      346.633       25.021      865.517
07/13/2014  08:06:00        5.547        1.308       34.797       31.155       29.794       24.194      970.641      887.673      585.372        0.184        0.122        5.699       27.118       22.641      346.999       25.650      865.528
07/13/2014  08:07:00       49.935      -67.992       10.535       62.382       75.013       64.117     3891.519     5626.963     4111.000        1.043        0.681       84.359       56.578        0.450      346.827       25.354      865.533
07/13/2014  08:08:00       64.668      -47.314        2.674       58.814       53.393       37.227     3459.077     2850.832     1385.867        0.706        0.385       80.128       36.040        0.202      346.778       25.270      865.546
07/13/2014  08:09:00       22.416      -25.006       34.956       33.352       52.256       29.783     1112.361     2730.736      887.042        0.354        0.237       33.582       29.455        0.769      346.875       25.437      865.562
07/13/2014  08:10:00       25.088      -13.424       44.974       44.274       57.221       37.775     1960.162     3274.239     1426.970        0.475        0.333       28.453       40.279        2.004      346.971       25.604      865.569
07/13/2014  08:11:00       14.603        1.866       42.382       43.368       39.289       41.452     1880.765     1543.616     1718.259        0.358        0.257       14.722       30.387        4.260      346.958       25.580      865.579
07/13/2014  08:12:00        6.163       62.150       71.923       20.723       37.822       25.160      429.435     1430.541      633.041        0.578        0.125       62.455       27.904        0.200      346.581       24.931      865.585
07/13/2014  08:13:00        0.051      -29.328       36.659       30.624       63.759       30.420      937.844     4065.165      925.386        0.407        0.296       29.328       39.524        1.816      347.180       25.963      865.592
07/13/2014  08:14:00       31.745      -42.477       21.671       39.347       64.937       39.353     1548.149     4216.836     1548.638        0.530        0.366       53.029       39.488        0.555      346.824       25.351      865.593
07/13/2014  08:15:00      -11.822       73.739       99.388       17.238       52.133       27.638      297.161     2717.824      763.875        0.962        0.189       74.680       31.890        0.182      347.005       25.661      865.601
07/13/2014  08:16:00       22.399       19.849       45.841       40.630       32.132       30.541     1650.758     1032.478      932.749        0.331        0.181       29.928       17.461        0.340      347.120       25.859      865.608
07/13/2014  08:17:00       10.306       65.085       71.030       40.761       34.158       20.738     1661.449     1166.794      430.063        0.632        0.163       65.896       18.736        0.081      346.873       25.434      865.617
07/13/2014  08:18:00       39.243       27.955       35.685       25.470       29.074       30.324      648.717      845.307      919.554        0.300        0.121       48.182       21.169        0.193      346.632       25.019      865.618
07/13/2014  08:19:00       55.395       23.266       11.669       31.363       30.432       25.389      983.652      926.082      644.597        0.315        0.128       60.083       18.048        0.090      346.761       25.241      865.619
07/13/2014  08:20:00       33.000       26.530       21.868       29.806       32.675       25.446      888.413     1067.660      647.478        0.244        0.130       42.342       16.315        0.148      346.952       25.571      865.611
07/13/2014  08:21:00       31.453       26.898       19.048       27.991       19.216       19.633      783.520      369.267      385.437        0.181        0.077       41.386       12.041        0.085      347.012       25.673      865.604
07/13/2014  08:22:00       -2.893       -0.765       15.107       22.763       13.859       13.702      518.143      192.084      187.742        0.057        0.045        2.993       12.587       17.687      347.165       25.937      865.602
07/13/2014  08:23:00      -33.185       22.659        8.245       10.974       24.073       19.802      120.431      579.495      392.105        0.139        0.055       40.183        9.709        0.058      346.843       25.381      865.597
07/13/2014  08:24:00      -26.555        7.785        6.893       14.342       10.163       15.189      205.685      103.285      230.699        0.068        0.027       27.672       10.429        0.142      347.020       25.688      865.598
07/13/2014  08:25:00        8.480        8.822       31.902       16.456       14.523       11.681      270.807      210.928      136.441        0.089        0.031       12.236        7.803        0.407      347.689       26.841      865.587
07/13/2014  08:26:00      -14.185        7.088       13.645       18.810       15.912       11.435      353.804      253.194      130.750        0.059        0.037       15.858        8.122        0.262      347.297       26.165      865.586
07/13/2014  08:27:00       36.893       16.554       17.591       25.876       30.818       29.811      669.545      949.734      888.718        0.223        0.125       40.437       23.243        0.330      347.104       25.833      865.572
07/13/2014  08:28:00       38.485       47.339       22.785       19.324       14.075       29.434      373.426      198.102      866.353        0.284        0.072       61.009       20.095        0.108      346.766       25.249      865.568
07/13/2014  08:29:00       -4.811        9.107        4.625       25.583       17.063       11.770      654.467      291.132      138.534        0.061        0.054       10.300        6.581        0.408      347.189       25.980      865.560
07/13/2014  08:30:00      -62.203       -5.238        1.743       27.525       19.386       15.600      757.614      375.817      243.349        0.264        0.069       62.423        9.463        0.023      346.834       25.367      865.567
07/13/2014  08:31:00      -55.335      -42.923        1.582       29.656       23.233       13.774      879.455      539.767      189.735        0.326        0.080       70.031       12.042        0.030      346.948       25.563      865.560
07/13/2014  08:32:00      -21.498       -8.987       23.082       36.483       26.582       20.803     1331.044      706.582      432.754        0.177        0.124       23.301       23.630        1.028      348.074       27.507      865.558
07/13/2014  08:33:00        1.310       -6.596       25.427       15.144       18.460       16.304      229.328      340.778      265.811        0.076        0.042        6.724        8.689        1.670      348.063       27.487      865.550
07/13/2014  08:34:00       -2.331      -29.418       18.273       42.402       28.146       21.568     1797.894      792.179      465.163        0.213        0.153       29.510       24.533        0.691      347.334       26.229      865.547
07/13/2014  08:35:00      -64.956      -49.358        0.975       30.683       31.062       19.896      941.432      964.853      395.836        0.448        0.115       81.581       18.486        0.051      346.863       25.417      865.541
07/13/2014  08:36:00      -61.642      -32.277        1.642       19.043       28.343       12.744      362.639      803.325      162.411        0.309        0.066       69.581        6.087        0.008      346.817       25.337      865.531
07/13/2014  08:37:00      -61.626      -36.911       -1.196       24.901       21.407       15.162      620.082      458.239      229.878        0.323        0.065       71.835       12.702        0.031      346.838       25.376      865.531
07/13/2014  08:38:00      -58.906      -69.727       -3.013       17.291       34.222       16.519      298.995     1171.164      272.878        0.504        0.087       91.279       11.024        0.015      346.756       25.231      865.532
07/13/2014  08:39:00      -55.821      -35.943       -2.760       17.038       34.045       12.521      290.295     1159.063      156.766        0.301        0.080       66.392       11.458        0.030      346.777       25.268      865.536
07/13/2014  08:40:00      -62.119      -55.101        0.719       32.503       27.432       20.966     1056.446      752.503      439.562        0.457        0.112       83.036       19.710        0.056      346.936       25.543      865.540
07/13/2014  08:41:00      -12.494      -60.984        5.785       30.345       29.996       17.829      920.800      899.782      317.872        0.302        0.107       62.251       18.509        0.088      346.967       25.596      865.533
07/13/2014  08:42:00      -37.786      -53.422       -0.227       26.956       26.876       18.728      726.615      722.294      350.730        0.304        0.090       65.435       10.794        0.027      346.906       25.490      865.534
07/13/2014  08:43:00      -23.082      -34.940       10.841       18.135       21.707       17.155      328.889      471.206      294.292        0.148        0.055       41.876        7.361        0.031      346.932       25.537      865.527
07/13/2014  08:44:00      -38.721       38.567        2.237       21.441       22.199       21.376      459.736      492.776      456.917        0.220        0.070       54.651       15.648        0.082      347.219       26.031      865.514
07/13/2014  08:45:00      -16.495       48.161       14.706       25.593       39.359       28.214      654.979     1549.104      796.007        0.290        0.150       50.907       29.832        0.343      347.946       27.285      865.507
07/13/2014  08:46:00        7.245       16.383       26.411       20.332       29.588       26.192      413.401      875.468      686.039        0.150        0.099       17.914       16.371        0.835      348.059       27.480      865.487
07/13/2014  08:47:00       -0.186        2.924       27.145       19.255       13.223       15.310      370.766      174.836      234.404        0.076        0.039        2.929        8.767        8.956      348.281       27.863      865.472
07/13/2014  08:48:00      -23.358        5.754       23.950       20.372       13.559       15.279      415.038      183.846      233.463        0.099        0.042       24.056       12.025        0.250      347.709       26.876      865.461
07/13/2014  08:49:00      -31.721      -63.124       -2.595       23.790       38.018       25.610      565.975     1445.342      655.865        0.383        0.133       70.646       25.484        0.130      347.135       25.887      865.457
07/13/2014  08:50:00      -82.694      -74.739       -0.722       71.519       48.125       28.019     5114.973     2315.975      785.067        1.032        0.411      111.464       29.660        0.071      346.921       25.518      865.443
07/13/2014  08:51:00     -149.711      -53.379      -19.349       21.715       19.209       13.540      471.540      368.974      183.322        1.333        0.051      158.943       11.939        0.006      346.850       25.395      865.435
07/13/2014  08:52:00     -121.029       -0.116      -10.364       18.013       17.562       12.513      324.454      308.418      156.568        0.777        0.039      121.029       10.868        0.008      346.910       25.496      865.434
07/13/2014  08:53:00      -60.416      -24.291       -9.619       32.359       13.638       12.061     1047.120      186.005      145.478        0.286        0.069       65.117       16.642        0.065      347.000       25.651      865.427
07/13/2014  08:54:00      -23.076        3.095       -2.706       14.676       17.762       12.903      215.379      315.495      166.480        0.062        0.035       23.283        9.693        0.173      347.354       26.263      865.415
07/13/2014  08:55:00      -12.565       47.173        8.019       19.154       47.822       31.372      366.861     2286.948      984.207        0.304        0.182       48.818       31.019        0.404      347.849       27.118      865.403
07/13/2014  08:56:00      -29.410       -0.505       17.555       19.055       13.700       15.452      363.084      187.679      238.779        0.098        0.039       29.414       12.321        0.175      347.723       26.899      865.389
07/13/2014  08:57:00      -90.536      -71.564       -1.879       89.858       53.364       23.346     8074.412     2847.704      545.056        1.239        0.573      115.404       31.997        0.077      347.217       26.025      865.398
07/13/2014  08:58:00      -59.915      -78.385        2.315       55.337       51.902       25.635     3062.184     2693.770      657.142        0.807        0.321       98.661       19.568        0.039      347.137       25.887      865.395
07/13/2014  08:59:00      -30.459      -16.265        5.528       37.788       30.589       32.533     1427.928      935.696     1058.364        0.232        0.171       34.530       32.201        0.870      347.381       26.310      865.387
07/13/2014  09:00:00      -96.445      -10.864        2.743       64.224       35.109       33.389     4124.703     1232.631     1114.815        0.795        0.324       97.055       39.383        0.165      347.597       26.684      865.374
07/13/2014  09:01:00      -81.864      -38.634        6.857       50.078       42.111       23.981     2507.781     1773.373      575.077        0.655        0.243       90.522       12.490        0.019      347.358       26.270      865.367
07/13/2014  09:02:00     -107.016      -38.330       -5.305       43.047       36.268       26.472     1853.065     1315.383      700.765        0.841        0.193      113.673       28.652        0.064      347.294       26.159      865.372
07/13/2014  09:03:00     -103.090        7.157       -3.245       27.407       26.894       20.811      751.168      723.304      433.114        0.630        0.095      103.338       13.881        0.018      347.182       25.967      865.362
07/13/2014  09:04:00     -113.690       49.863       -4.344       53.039       32.072       36.230     2813.117     1028.636     1312.600        1.029        0.258      124.144       26.192        0.045      347.357       26.268      865.353
07/13/2014  09:05:00      -28.029       19.393      -18.990       33.952       22.914       26.786     1152.768      525.036      717.509        0.196        0.120       34.084       10.999        0.104      347.702       26.863      865.338
07/13/2014  09:06:00       -5.382      -19.970       10.738       35.955       47.336       27.304     1292.763     2240.657      745.486        0.241        0.214       20.682       23.554        1.297      347.967       27.322      865.330
07/13/2014  09:07:00      -25.788      -86.970        2.986       31.117       31.748       24.432      968.277     1007.949      596.931        0.540        0.129       90.713       18.655        0.042      347.241       26.068      865.338
07/13/2014  09:08:00      -27.344      -68.275        8.001       21.669       45.730       17.472      469.528     2091.211      305.267        0.417        0.143       73.547       12.480        0.029      347.343       26.244      865.331
07/13/2014  09:09:00      -41.713      -80.211        7.211       46.327       46.882       23.755     2146.161     2197.898      564.319        0.657        0.245       90.409       17.829        0.039      347.500       26.513      865.320
07/13/2014  09:10:00      -45.346     -132.764        1.565       47.798       37.376       28.159     2284.606     1396.993      792.903        1.208        0.224      140.294       20.525        0.021      347.292       26.156      865.323
07/13/2014  09:11:00      -48.535      -94.065       -5.841       39.735       45.089       24.623     1578.907     2032.994      606.272        0.773        0.211      105.849       22.837        0.047      347.400       26.340      865.323
07/13/2014  09:12:00      -30.054     -158.221        1.478       26.692       40.280       18.452      712.448     1622.518      340.461        1.431        0.134      161.051       12.650        0.006      347.358       26.270      865.323
07/13/2014  09:13:00      -17.041     -186.985       10.062       23.469       44.238       20.086      550.794     1957.035      403.430        1.913        0.146      187.760       11.924        0.004      347.394       26.331      865.312
07/13/2014  09:14:00      -36.833      -34.345       11.846       26.542       56.034       25.150      704.469     3139.783      632.517        0.358        0.224       50.361       28.001        0.309      347.924       27.246      865.311
07/13/2014  09:15:00       -8.032      -32.962       19.934       19.944       35.142       19.977      397.768     1234.943      399.071        0.179        0.102       33.927       14.320        0.178      348.323       27.936      865.309
07/13/2014  09:16:00      -40.840      -26.494       -0.052       33.029       34.436       21.566     1090.883     1185.826      465.096        0.256        0.137       48.681       18.917        0.151      347.994       27.366      865.308
07/13/2014  09:17:00      -35.556      -53.110       -4.624       29.831       22.294       19.182      889.881      497.036      367.965        0.293        0.088       63.914       14.282        0.050      347.803       27.036      865.325
07/13/2014  09:18:00       -6.062      -45.294       27.574       39.861       41.050       27.423     1588.889     1685.068      752.015        0.344        0.201       45.698       29.199        0.408      348.169       27.670      865.318
07/13/2014  09:19:00      -29.173      -65.376       -2.873       30.949       45.065       23.216      957.824     2030.874      538.995        0.433        0.176       71.589       19.459        0.074      347.671       26.809      865.321
07/13/2014  09:20:00       -2.531      -23.995       13.323       11.618       15.171       16.442      134.982      230.163      270.349        0.070        0.032       24.128       10.826        0.201      348.310       27.913      865.315
07/13/2014  09:21:00      -14.025        0.625       15.934       18.155       34.837       28.947      329.587     1213.609      837.907        0.142        0.119       14.039       23.297        2.754      348.450       28.157      865.306
07/13/2014  09:22:00       -3.026       59.685        2.921       25.743       33.127       34.016      662.720     1097.417     1157.058        0.325        0.146       59.762       15.234        0.065      348.242       27.798      865.300
07/13/2014  09:23:00       14.160       26.547       -1.314       12.405       19.486       19.358      153.877      379.696      374.714        0.091        0.045       30.088        8.963        0.089      348.145       27.627      865.294
07/13/2014  09:24:00        0.649       36.816       14.009       29.685       28.643       27.856      881.200      820.429      775.960        0.201        0.124       36.822       12.185        0.110      348.271       27.845      865.296
07/13/2014  09:25:00       20.449       31.368       49.271       30.362       23.463       17.852      921.855      550.499      318.678        0.281        0.090       37.445        7.341        0.038      348.542       28.314      865.286
07/13/2014  09:26:00      -35.510       16.234       20.897       16.640       13.031       21.634      276.901      169.803      468.033        0.144        0.046       39.045        9.386        0.058      348.319       27.929      865.296
07/13/2014  09:27:00      -41.197       18.367        3.462       17.286       14.591       14.581      298.794      212.908      212.602        0.139        0.036       45.106       11.506        0.065      348.029       27.429      865.286
07/13/2014  09:28:00       -8.501       14.842       48.696       12.235       23.863       16.437      149.697      569.434      270.160        0.183        0.049       17.105       12.987        0.577      349.530       30.027      865.284
07/13/2014  09:29:00       10.537      -66.760       11.389       30.730       56.894       31.501      944.355     3236.922      992.289        0.493        0.259       67.586       35.777        0.280      348.476       28.200      865.270
07/13/2014  09:30:00       21.424      -73.045       -5.996       38.192       36.479       28.910     1458.607     1330.712      835.784        0.473        0.181       76.122       24.010        0.099      348.169       27.669      865.269
07/13/2014  09:31:00      -66.662      -48.999        1.098       33.586       34.227       27.374     1128.028     1171.470      749.359        0.495        0.152       82.733       19.401        0.055      348.138       27.616      865.262
07/13/2014  09:32:00      -48.134      -31.057       -5.315       34.505       24.781       22.100     1190.593      614.104      488.422        0.280        0.115       57.284       19.506        0.116      348.062       27.485      865.250
07/13/2014  09:33:00      -29.251      -28.733       -0.566       17.513       20.614       20.505      306.700      424.938      420.442        0.142        0.058       41.002       15.772        0.148      348.193       27.711      865.247
07/13/2014  09:34:00      -26.604      -34.927       -0.772       29.138       21.673       17.762      848.996      469.712      315.505        0.178        0.082       43.905       15.649        0.127      348.249       27.807      865.233
07/13/2014  09:35:00      -44.890       -4.506       12.789       33.576       25.264       19.135     1127.336      638.247      366.153        0.216        0.107       45.116       21.011        0.217      348.540       28.312      865.228
07/13/2014  09:36:00      -30.170       -0.138        7.272       27.669       19.242       15.667      765.569      370.236      245.450        0.117        0.069       30.171       13.879        0.212      348.491       28.227      865.214
07/13/2014  09:37:00      -27.566      -10.033        0.266       15.742       15.489       15.816      247.823      239.905      250.141        0.080        0.037       29.335       11.618        0.157      348.688       28.568      865.198
07/13/2014  09:38:00      -15.642      -49.742       -2.782       22.603       29.497       31.575      510.910      870.058      997.009        0.255        0.119       52.143       11.088        0.045      348.496       28.236      865.188
07/13/2014  09:39:00      -16.830      -10.653       30.423       27.922       65.998       55.035      779.648     4355.719     3028.905        0.474        0.408       19.918       44.265        4.939      348.972       29.061      865.164
07/13/2014  09:40:00       -7.751       12.312       46.165       21.899       27.746       24.397      479.563      769.831      595.215        0.209        0.092       14.548       19.910        1.873      349.359       29.731      865.163
07/13/2014  09:41:00      -26.837      -22.445        5.796       21.700       30.927       23.432      470.897      956.477      549.076        0.162        0.099       34.986       24.375        0.485      348.726       28.633      865.152
07/13/2014  09:42:00      -21.239      -50.389       -6.048       26.106       22.614       16.331      681.513      511.392      266.715        0.224        0.073       54.682       11.768        0.046      348.314       27.919      865.145
07/13/2014  09:43:00        2.830        5.912       25.474       24.940       42.182       31.032      622.009     1779.298      962.999        0.203        0.168        6.554       33.798       26.590      348.780       28.726      865.129
07/13/2014  09:44:00        9.808       28.731       19.169       47.052       39.398       27.397     2213.875     1552.216      750.615        0.290        0.226       30.359       22.424        0.546      348.618       28.445      865.120
07/13/2014  09:45:00      -31.450      -41.245       15.705       23.425       27.266       21.439      548.738      743.431      459.626        0.234        0.088       51.868        5.495        0.011      348.577       28.375      865.107
07/13/2014  09:46:00      -12.205       -2.640       44.890       22.426       32.626       21.264      502.905     1064.487      452.146        0.209        0.101       12.487       21.973        3.096      349.599       30.146      865.107
07/13/2014  09:47:00       36.299       31.925       16.806       39.459       20.222       33.399     1557.040      408.942     1115.479        0.285        0.154       48.341       28.741        0.353      348.786       28.738      865.108
07/13/2014  09:48:00       19.094       25.376        8.201       15.635       18.564       17.427      244.463      344.625      303.688        0.098        0.045       31.757        7.630        0.058      348.550       28.330      865.104
07/13/2014  09:49:00       -9.188      -30.060        7.598       12.915       28.098       20.096      166.803      789.493      403.847        0.120        0.068       31.433       14.554        0.214      348.633       28.472      865.105
07/13/2014  09:50:00      -22.205      -31.958       -4.812       19.704       18.100       10.265      388.264      327.612      105.369        0.118        0.041       38.915        4.836        0.015      348.279       27.858      865.094
07/13/2014  09:51:00      -16.900        1.669        2.490       15.335       16.173       25.615      235.148      261.568      656.115        0.072        0.058       16.982       14.366        0.716      349.121       29.318      865.088
07/13/2014  09:52:00       -8.919      -14.712       26.668       19.806       41.613       20.312      392.269     1731.659      412.574        0.177        0.127       17.205       24.363        2.005      349.198       29.452      865.086
07/13/2014  09:53:00       30.882       41.142       17.427       27.090       27.261       31.552      733.872      743.138      995.522        0.271        0.124       51.443        4.437        0.007      348.786       28.737      865.078
07/13/2014  09:54:00       42.919       72.546       26.513       38.158       33.316       40.966     1456.058     1109.935     1678.177        0.603        0.212       84.290       23.839        0.080      348.696       28.580      865.075
07/13/2014  09:55:00       55.349       33.496        8.593       30.793       28.466       30.192      948.214      810.314      911.554        0.346        0.134       64.695       19.742        0.093      348.756       28.685      865.058
07/13/2014  09:56:00       36.569       50.673        9.621       44.036       42.306       39.650     1939.137     1789.784     1572.158        0.465        0.265       62.490       29.497        0.223      349.084       29.253      865.054
07/13/2014  09:57:00       59.866       45.119        7.249       28.255       32.194       22.979      798.335     1036.476      528.034        0.402        0.118       74.965       20.129        0.072      348.839       28.828      865.052
07/13/2014  09:58:00       23.890       49.913        7.705       23.814       26.179       36.233      567.094      685.346     1312.852        0.284        0.128       55.336       14.810        0.072      349.052       29.197      865.046
07/13/2014  09:59:00       20.486       30.376       32.768       25.713       25.604       31.455      661.142      655.565      989.407        0.236        0.115       36.639       25.413        0.481      349.047       29.189      865.050
07/13/2014  10:00:00       75.653       52.430       23.756       13.605       13.979       23.957      185.094      195.419      573.914        0.500        0.048       92.045        2.744        0.001      348.485       28.216      865.040
07/13/2014  10:01:00       59.249       60.319        4.751       17.111       16.319       21.155      292.786      266.311      447.549        0.409        0.050       84.550       10.692        0.016      348.493       28.229      865.039
07/13/2014  10:02:00       44.556       32.629       34.007       31.707       32.528       34.620     1005.351     1058.056     1198.518        0.373        0.163       55.226       25.711        0.217      349.208       29.469      865.025
07/13/2014  10:03:00       72.571       69.959       30.224       28.806       21.269       24.933      829.797      452.371      621.670        0.649        0.095      100.801       17.705        0.031      348.619       28.448      865.027
07/13/2014  10:04:00       19.060        6.833       25.128       27.864       59.147       17.399      776.377     3498.343      302.728        0.281        0.229       20.247        6.855        0.115      348.844       28.837      865.024
07/13/2014  10:05:00        7.567      -10.225       32.516       16.142       28.961       17.554      260.569      838.733      308.138        0.131        0.070       12.720        7.606        0.358      349.573       30.102      865.016
07/13/2014  10:06:00      -51.632       39.908        8.515       23.190       17.934       24.632      537.790      321.636      606.757        0.290        0.073       65.258       12.743        0.038      349.087       29.258      865.012
07/13/2014  10:07:00      -51.053       21.999        0.704       20.810       14.820       28.803      433.073      219.639      829.603        0.229        0.074       55.591       10.413        0.035      349.132       29.336      865.006
07/13/2014  10:08:00      -32.008        6.060        6.258       34.128        7.672       18.248     1164.747       58.860      332.998        0.133        0.078       32.577       20.862        0.410      349.071       29.231      865.006
07/13/2014  10:09:00       32.986       32.295       28.042       40.229       28.310       18.232     1618.390      801.449      332.414        0.283        0.138       46.163       14.849        0.103      349.769       30.440      865.001
07/13/2014  10:10:00       14.788       57.018       18.081       50.836       43.389       25.418     2584.321     1882.599      646.096        0.445        0.256       58.905       21.257        0.130      349.729       30.372      865.008
07/13/2014  10:11:00       26.500       40.952       15.417       57.490       46.678       34.702     3305.141     2178.808     1204.253        0.465        0.334       48.778       36.351        0.555      349.494       29.964      865.000
07/13/2014  10:12:00       89.018       66.007        7.142       57.309       45.178       35.859     3284.314     2041.020     1285.874        0.947        0.331      110.820       25.061        0.051      349.339       29.695      864.986
07/13/2014  10:13:00       41.715       73.489        0.814       49.913       45.217       38.330     2491.265     2044.571     1469.195        0.657        0.300       84.503       24.693        0.085      349.365       29.740      864.976
07/13/2014  10:14:00       77.097       64.540        2.928       32.547       22.374       26.444     1059.290      500.591      699.286        0.619        0.113      100.545       15.527        0.024      349.173       29.406      864.965
07/13/2014  10:15:00       15.039       38.767       12.980       33.277       30.246       24.942     1107.383      914.814      622.089        0.227        0.132       41.582       20.542        0.244      349.605       30.157      864.952
07/13/2014  10:16:00       22.850       28.713       20.386       31.323       33.751       31.465      981.116     1139.133      990.028        0.244        0.156       36.696       22.871        0.388      349.589       30.128      864.950
07/13/2014  10:17:00       46.608      -13.117       16.748       35.498       29.116       23.108     1260.118      847.752      533.965        0.263        0.132       48.419       14.457        0.089      349.592       30.135      864.933
07/13/2014  10:18:00       30.568      -45.265       18.351       40.064       42.249       25.047     1605.156     1784.948      627.364        0.367        0.201       54.619       25.073        0.211      349.487       29.951      864.922
07/13/2014  10:19:00       -7.928       11.318       39.810       22.640       29.092       27.635      512.585      846.365      763.716        0.195        0.106       13.819       22.642        2.685      350.188       31.169      864.906
07/13/2014  10:20:00       53.038       25.653       58.994       50.077       53.349       36.380     2507.692     2846.131     1323.485        0.681        0.334       58.917       30.790        0.273      349.602       30.152      864.908
07/13/2014  10:21:00       67.028       75.401       65.477       71.161       44.148       34.664     5063.822     1949.040     1201.574        1.134        0.411      100.886       38.613        0.146      349.560       30.079      864.893
07/13/2014  10:22:00      134.551      101.149       25.826       27.240       31.168       35.240      742.030      971.438     1241.883        1.598        0.148      168.330       12.872        0.006      349.128       29.329      864.893
07/13/2014  10:23:00       85.941       53.881       -6.789       25.309       19.505       21.019      640.568      380.451      441.816        0.590        0.073      101.435        9.989        0.010      349.138       29.346      864.906
07/13/2014  10:24:00       29.704       35.317        9.826       30.104       27.290       22.539      906.244      744.731      507.987        0.219        0.108       46.148       13.156        0.081      349.724       30.362      864.894
07/13/2014  10:25:00       48.659       75.752       21.252       40.607       38.821       42.056     1648.892     1507.046     1768.710        0.674        0.246       90.034       29.852        0.110      349.740       30.389      864.887
07/13/2014  10:26:00      -43.112        3.057       -8.990       23.649       39.763       21.688      559.258     1581.105      470.388        0.228        0.131       43.220       16.329        0.143      349.356       29.723      864.884
07/13/2014  10:27:00      -56.158       13.290      -10.443       24.869       18.673       15.128      618.460      348.687      228.862        0.232        0.060       57.709        9.892        0.029      349.280       29.593      864.868
07/13/2014  10:28:00        1.836        6.529       32.231       22.467       16.694       17.492      504.744      278.694      305.955        0.109        0.054        6.782       10.622        2.453      350.812       32.255      864.854
07/13/2014  10:29:00      -27.820      118.453        1.322       28.166       64.291       29.907      793.320     4133.302      894.442        1.031        0.291      121.676       29.421        0.058      349.942       30.742      864.833
07/13/2014  10:30:00       37.186       17.538       20.171       30.615       26.290       27.335      937.287      691.175      747.219        0.224        0.119       41.114       13.915        0.115      350.462       31.645      864.830
07/13/2014  10:31:00       73.052       31.180       36.530       47.611       66.043       52.534     2266.800     4361.643     2759.779        0.851        0.469       79.428       51.286        0.417      349.377       29.761      864.814
07/13/2014  10:32:00       70.770      -24.297       10.570       48.219       65.520       40.753     2325.119     4292.913     1660.832        0.699        0.414       74.825       31.753        0.180      349.473       29.928      864.795
07/13/2014  10:33:00       47.235       32.025       25.268       40.406       32.164       40.750     1632.618     1034.519     1660.559        0.411        0.216       57.068       20.875        0.134      349.735       30.381      864.782
07/13/2014  10:34:00       61.287       27.398       23.607       52.046       32.186       25.499     2708.740     1035.967      650.213        0.473        0.220       67.132       22.859        0.116      349.782       30.463      864.781
07/13/2014  10:35:00       61.999       23.561       29.872       45.826       35.522       33.584     2100.012     1261.782     1127.892        0.489        0.224       66.325       23.053        0.121      349.573       30.100      864.764
07/13/2014  10:36:00       61.465       48.811       52.932       74.366       54.801       61.149     5530.352     3003.192     3739.228        1.062        0.614       78.489       55.053        0.492      349.930       30.719      864.766
07/13/2014  10:37:00       11.216       33.086       47.387       38.936       62.547       56.279     1516.001     3912.187     3167.276        0.603        0.430       34.935       44.930        1.654      350.075       30.971      864.754
07/13/2014  10:38:00       19.449      -22.656       56.779       50.116       98.176       45.840     2511.585     9638.560     2101.308        0.918        0.713       29.859       58.301        3.812      349.811       30.514      864.756
07/13/2014  10:39:00       57.690      -42.994       13.020       40.732       58.994       34.146     1659.073     3480.312     1165.951        0.582        0.315       71.948       32.117        0.199      349.817       30.523      864.760
07/13/2014  10:40:00       34.241       -9.368       31.415       38.426       31.548       24.810     1476.592      995.270      615.535        0.267        0.154       35.499       26.155        0.543      350.127       31.064      864.751
07/13/2014  10:41:00       83.462       39.291       27.966       59.792       40.958       35.266     3575.089     1677.581     1243.699        0.789        0.325       92.248       14.622        0.025      349.917       30.698      864.748
07/13/2014  10:42:00        3.029      -26.378       12.724       28.726       38.685       36.119      825.182     1496.536     1304.592        0.225        0.181       26.551       14.571        0.301      350.341       31.436      864.730
07/13/2014  10:43:00        9.074      120.536        4.565       50.708       79.894       45.457     2571.342     6383.021     2066.329        1.282        0.551      120.877       41.975        0.121      350.351       31.451      864.731
07/13/2014  10:44:00       67.953      102.875        2.110       71.141       61.532       47.113     5061.060     3786.174     2219.593        1.313        0.553      123.292       33.905        0.076      350.233       31.247      864.714
07/13/2014  10:45:00        9.419      -33.852       10.052       57.492       61.589       27.239     3305.275     3793.173      741.978        0.459        0.392       35.138       17.071        0.236      350.258       31.288      864.712
07/13/2014  10:46:00       47.832      -22.537       49.737       69.070       79.755       49.222     4770.640     6360.866     2422.836        0.941        0.678       52.875       49.629        0.881      350.522       31.750      864.710
07/13/2014  10:47:00       57.081      -14.154       23.856       45.923       55.876       54.930     2108.940     3122.161     3017.302        0.614        0.412       58.810       43.518        0.548      349.939       30.736      864.708
07/13/2014  10:48:00       -5.631      -67.500       11.964       38.340       71.479       38.799     1469.966     5109.291     1505.385        0.641        0.404       67.734       37.879        0.313      350.366       31.479      864.698
07/13/2014  10:49:00      -10.082      -53.480      -18.414       40.466       37.700       22.984     1637.477     1421.298      528.264        0.344        0.179       54.422       17.022        0.098      350.214       31.215      864.682
07/13/2014  10:50:00      -26.728      -56.826       29.012       31.515       40.420       30.814      993.223     1633.759      949.517        0.418        0.179       62.798       23.220        0.137      350.546       31.791      864.685
07/13/2014  10:51:00       16.441      -24.920       34.262       38.822       49.585       32.047     1507.124     2458.681     1027.025        0.353        0.250       29.855       32.080        1.155      350.677       32.019      864.671
07/13/2014  10:52:00       10.614      -58.784       29.297       31.852       75.101       39.509     1014.539     5640.133     1560.964        0.632        0.411       59.734       45.050        0.569      350.534       31.771      864.673
07/13/2014  10:53:00       21.594       53.553       62.759       40.740       31.523       31.017     1659.774      993.714      962.043        0.544        0.181       57.743       22.610        0.153      350.185       31.165      864.670
07/13/2014  10:54:00       36.807       18.619       37.712       33.618       48.956       33.456     1130.174     2396.642     1119.314        0.388        0.232       41.248       28.508        0.478      350.309       31.378      864.660
07/13/2014  10:55:00       14.170       27.447       50.104       39.672       49.700       34.227     1573.905     2470.042     1171.501        0.434        0.261       30.889       28.547        0.854      350.551       31.802      864.647
07/13/2014  10:56:00      130.999       81.286       31.191       79.281       54.776       44.178     6285.434     3000.383     1951.686        1.799        0.562      154.169       29.777        0.037      350.138       31.079      864.636
07/13/2014  10:57:00      170.330      101.229       17.439       60.237       53.153       45.954     3628.521     2825.192     2111.775        2.406        0.428      198.140       21.429        0.012      350.511       31.728      864.621
07/13/2014  10:58:00      121.339       91.206       40.140       71.778       53.140       46.508     5152.114     2823.878     2162.965        1.739        0.507      151.795       39.666        0.068      350.366       31.477      864.612
07/13/2014  10:59:00      135.415       75.535       25.557       53.252       41.880       45.135     2835.725     1753.945     2037.163        1.566        0.331      155.057       27.165        0.031      350.132       31.070      864.602
07/13/2014  11:00:00      134.057      101.961       48.365       69.270       45.885       47.939     4798.350     2105.402     2298.139        1.995        0.460      168.426       34.277        0.041      350.262       31.294      864.588
07/13/2014  11:01:00      132.845      118.665       25.282       60.701       49.595       51.448     3684.639     2459.628     2646.891        2.058        0.440      178.127       36.727        0.043      350.165       31.127      864.576
07/13/2014  11:02:00       87.184       94.085        1.854       52.065       41.280       34.599     2710.803     1704.076     1197.114        1.103        0.281      128.269       27.967        0.048      350.215       31.214      864.573
07/13/2014  11:03:00      105.376       94.325       15.022       45.046       41.191       35.015     2029.163     1696.680     1226.065        1.259        0.248      141.426       26.046        0.034      350.340       31.432      864.563
07/13/2014  11:04:00       65.148       43.238       35.612       75.988       79.511       46.166     5774.172     6322.013     2131.257        1.080        0.711       78.190       31.603        0.163      350.601       31.885      864.557
07/13/2014  11:05:00       66.413      104.461       89.593       77.066       51.971       57.475     5939.203     2701.019     3303.337        1.764        0.597      123.785       52.419        0.179      350.372       31.489      864.558
07/13/2014  11:06:00      105.771        0.417       46.838       84.267      104.539       59.327     7100.996    10928.420     3519.712        1.746        1.077      105.772       69.143        0.427      350.424       31.578      864.548
07/13/2014  11:07:00       74.188       41.753       58.643       90.525       65.354       50.931     8194.696     4271.184     2593.971        1.287        0.753       85.131       39.643        0.217      350.554       31.804      864.547
07/13/2014  11:08:00       71.328      -46.979       25.425       50.708       73.624       43.603     2571.324     5420.523     1901.256        0.892        0.495       85.409       40.081        0.220      350.252       31.280      864.546
07/13/2014  11:09:00       46.958     -112.583      -12.701       42.621       49.409       34.108     1816.521     2441.264     1163.379        1.023        0.271      121.983       25.600        0.044      350.385       31.511      864.544
07/13/2014  11:10:00       58.361      -90.223       23.922       56.681       71.870       37.133     3212.714     5165.289     1378.889        1.094        0.488      107.453       36.520        0.116      350.612       31.906      864.531
07/13/2014  11:11:00       68.649     -127.169       -7.170       58.375       65.542       47.124     3407.590     4295.737     2220.689        1.543        0.496      144.515       47.744        0.109      350.546       31.791      864.515
07/13/2014  11:12:00       52.686      -56.785        7.257       53.430       85.588       47.961     2854.745     7325.319     2300.210        0.926        0.624       77.462       58.260        0.566      350.678       32.020      864.508
07/13/2014  11:13:00       33.044       26.530       24.761       25.566       23.240       32.167      653.620      540.119     1034.739        0.232        0.111       42.376       17.587        0.172      350.766       32.173      864.499
07/13/2014  11:14:00       15.995       22.675       42.284       43.015       39.600       34.748     1850.328     1568.191     1207.411        0.359        0.231       27.748       29.238        1.110      351.116       32.783      864.497
07/13/2014  11:15:00       53.026       26.061       86.081       69.754       96.863       62.023     4865.613     9382.377     3846.827        1.449        0.905       59.084       71.449        1.462      350.816       32.260      864.500
07/13/2014  11:16:00       98.039     -162.848       -9.631       75.367      111.167       57.228     5680.206    12358.071     3275.052        2.876        1.066      190.082       43.950        0.053      350.825       32.274      864.495
07/13/2014  11:17:00      115.977     -111.878       12.017       62.276      109.385       41.470     3878.260    11965.112     1719.798        2.183        0.878      161.144       35.248        0.048      350.709       32.072      864.501
07/13/2014  11:18:00       33.640       -7.803       37.270       46.716       61.832       42.579     2182.367     3823.220     1812.948        0.520        0.391       34.534       37.343        1.169      351.085       32.729      864.491
07/13/2014  11:19:00       88.654     -152.067      -15.219      104.377      113.522       89.477    10894.498    12887.195     8006.191        3.150        1.589      176.023       81.823        0.216      350.714       32.081      864.465
07/13/2014  11:20:00      -12.853     -137.322       10.137       90.266      103.240       68.279     8147.935    10658.601     4662.090        2.129        1.173      137.922       55.494        0.162      350.853       32.323      864.485
07/13/2014  11:21:00       42.388      -56.976        5.144       72.101       71.734       48.142     5198.605     5145.712     2317.620        0.886        0.633       71.014       42.476        0.358      351.020       32.616      864.499
07/13/2014  11:22:00       45.701        7.505       76.957       59.719       87.066       60.771     3566.316     7580.453     3693.172        1.145        0.742       46.314       59.473        1.649      351.039       32.650      864.498
07/13/2014  11:23:00       23.295       -9.300       31.634       36.278       46.727       38.079     1316.080     2183.429     1450.044        0.329        0.247       25.083       37.442        2.228      350.661       31.992      864.505
07/13/2014  11:24:00        2.699        4.317       24.296       25.578       39.550       30.192      654.220     1564.216      911.552        0.187        0.156        5.091       23.986       22.198      351.124       32.799      864.486
07/13/2014  11:25:00       43.443      -42.059       12.641       25.053       37.115       24.166      627.674     1377.498      583.999        0.320        0.129       60.467       17.888        0.088      350.693       32.047      864.459
07/13/2014  11:26:00       69.900      -82.300       -2.902       61.539       66.123       50.180     3787.081     4372.209     2518.030        1.117        0.534      107.979       48.229        0.199      350.756       32.156      864.464
07/13/2014  11:27:00       36.098      -94.795       -2.361       50.206       82.467       42.967     2520.633     6800.837     1846.173        1.073        0.558      101.436       42.931        0.179      350.988       32.560      864.443
07/13/2014  11:28:00       46.874      -51.582       22.721       61.208       89.957       61.135     3746.460     8092.279     3737.463        1.047        0.779       69.699       62.268        0.798      351.310       33.122      864.409
07/13/2014  11:29:00      131.589     -168.812      -20.197       90.225       62.254       44.093     8140.488     3875.617     1944.169        3.009        0.698      214.040       49.239        0.053      350.547       31.790      864.382
07/13/2014  11:30:00       56.748      -98.637       22.937       62.689       93.753       49.858     3929.930     8789.602     2485.863        1.434        0.760      113.796       55.548        0.238      350.976       32.538      864.360
07/13/2014  11:31:00       71.427       17.804       58.290       53.727       90.608       42.009     2886.634     8209.780     1764.724        1.084        0.643       73.612       41.643        0.320      350.920       32.443      864.369
07/13/2014  11:32:00       38.602       44.845       66.929       44.919       53.015       35.037     2017.719     2810.623     1227.570        0.702        0.303       59.171       18.469        0.097      351.278       33.067      864.366
07/13/2014  11:33:00       77.905       82.394       54.207       50.651       64.283       63.110     2565.478     4132.261     3982.923        1.324        0.534      113.393       35.319        0.097      351.045       32.658      864.365
07/13/2014  11:34:00       87.730      -18.348       32.736      116.648       83.876       50.763    13606.787     7035.168     2576.853        1.616        1.161       89.628       49.148        0.301      350.988       32.559      864.366
07/13/2014  11:35:00       72.541       -3.713       47.384       55.724       76.174       54.971     3105.131     5802.511     3021.775        0.972        0.596       72.636       56.354        0.602      350.804       32.241      864.355
07/13/2014  11:36:00      114.767      -90.878       15.015       89.959      122.307       56.209     8092.643    14958.943     3159.457        2.393        1.311      146.391       71.916        0.241      351.011       32.597      864.331
07/13/2014  11:37:00       70.435      -97.696       18.679       67.746       87.696       65.720     4589.554     7690.539     4319.165        1.572        0.830      120.439       63.508        0.278      351.164       32.865      864.326
07/13/2014  11:38:00       75.909      -73.201       46.021       68.055       97.313       58.592     4631.453     9469.902     3432.986        1.538        0.877      105.454       59.793        0.321      351.150       32.842      864.322
07/13/2014  11:39:00       56.022     -130.935      -13.178       53.193       49.459       31.978     2829.505     2446.219     1022.623        1.338        0.315      142.416       26.517        0.035      350.662       31.993      864.298
07/13/2014  11:40:00       96.196     -130.458       23.751      102.973      139.442       87.415    10603.412    19444.073     7641.462        3.226        1.884      162.089       94.504        0.340      351.133       32.812      864.281
07/13/2014  11:41:00      147.364     -190.105       -4.479       87.405      130.703       71.842     7639.550    17083.220     5161.345        4.387        1.494      240.533       79.544        0.109      351.018       32.609      864.271
07/13/2014  11:42:00      181.066     -243.396      -53.490       75.358      110.202       54.976     5678.805    12144.566     3022.404        5.786        1.042      303.358       40.899        0.018      350.745       32.134      864.266
07/13/2014  11:43:00       84.770     -118.998       15.082       94.623      126.031       60.209     8953.592    15883.794     3625.070        2.501        1.423      146.104       81.293        0.310      351.107       32.765      864.256
07/13/2014  11:44:00       34.073      -66.767        9.800       46.194       69.060       37.436     2133.898     4769.220     1401.472        0.701        0.415       74.958       33.473        0.199      351.126       32.800      864.242
07/13/2014  11:45:00       20.793        5.274       24.346       34.637       29.531       23.413     1199.721      872.074      548.181        0.184        0.131       21.452       21.881        1.040      351.505       33.461      864.231
07/13/2014  11:46:00       83.713       -3.348       47.637       66.253       47.170       33.797     4389.487     2225.053     1142.247        0.852        0.388       83.780       22.137        0.070      351.183       32.901      864.215
07/13/2014  11:47:00      126.516       61.837       32.907       83.129       74.446       49.925     6910.361     5542.215     2492.480        1.793        0.747      140.819       39.590        0.079      351.075       32.711      864.190
07/13/2014  11:48:00       47.427      -11.691       22.707       45.117       57.174       38.930     2035.588     3268.853     1515.539        0.486        0.341       48.847       28.912        0.350      351.222       32.968      864.173
07/13/2014  11:49:00      154.888      100.468       53.624       93.022       55.302       59.375     8653.154     3058.366     3525.402        2.610        0.762      184.619       34.347        0.035      351.390       33.258      864.164
07/13/2014  11:50:00      152.333      121.047       62.012       91.148       80.577       79.419     8307.909     6492.674     6307.429        3.140        1.055      194.571       49.050        0.064      351.208       32.940      864.152
07/13/2014  11:51:00       31.071       79.341       56.849       52.109       47.787       60.221     2715.383     2283.617     3626.571        0.956        0.431       85.208       33.877        0.158      350.920       32.443      864.144
07/13/2014  11:52:00       52.932       74.186       -3.984       32.925       63.533       32.495     1084.032     4036.429     1055.927        0.725        0.309       91.134       31.057        0.116      351.019       32.615      864.133
07/13/2014  11:53:00       50.815       -6.356        7.778       41.191       42.109       28.180     1696.710     1773.159      794.120        0.347        0.213       51.211       21.128        0.170      350.944       32.484      864.126
07/13/2014  11:54:00       91.155       48.845       21.411       46.198       49.128       41.090     2134.267     2413.562     1688.429        0.869        0.312      103.417       26.089        0.064      351.374       33.231      864.118
07/13/2014  11:55:00       76.816       38.610       54.840      117.780      134.384       82.638    13872.198    18059.181     6828.972        2.457        1.938       85.974       79.640        0.858      351.587       33.603      864.089
07/13/2014  11:56:00      111.016     -144.002       -3.858      106.246      124.259       65.255    11288.177    15440.221     4258.238        3.203        1.549      181.828       80.061        0.194      351.268       33.044      864.091
07/13/2014  11:57:00      161.938     -205.459      -34.216       69.856       83.096       45.310     4879.876     6904.932     2052.990        4.172        0.692      261.605       39.926        0.023      351.284       33.072      864.081
07/13/2014  11:58:00      102.652       73.816       76.325      110.269       63.494       50.688    12159.221     4031.537     2569.260        2.028        0.938      126.437       40.122        0.101      351.770       33.923      864.099
07/13/2014  11:59:00      122.435       55.471       36.167      129.431       79.055       57.741    16752.257     6249.690     3333.988        2.285        1.317      134.415       54.700        0.166      351.376       33.235      864.092
07/13/2014  12:00:00       77.198       12.294       47.551      106.435       70.079       58.269    11328.460     4911.122     3395.245        1.400        0.982       78.170       41.016        0.275      351.468       33.395      864.079
07/13/2014  12:01:00      119.976      -81.435       28.606       98.698       85.556       70.037     9741.347     7319.901     4905.242        2.190        1.098      145.003       64.737        0.199      351.441       33.349      864.057
07/13/2014  12:02:00       16.443       39.763       44.950       61.739       69.964       42.186     3811.704     4894.985     1779.657        0.718        0.524       43.028       27.089        0.396      351.896       34.145      864.050
07/13/2014  12:03:00      124.292      105.531       26.503       74.520       48.964       42.790     5553.293     2397.473     1830.963        1.853        0.489      163.050       39.879        0.060      351.276       33.061      864.048
07/13/2014  12:04:00       41.863       44.946       16.710       70.374       57.999       27.478     4952.525     3363.881      755.041        0.656        0.454       61.422       19.915        0.105      351.228       32.978      864.027
07/13/2014  12:05:00      125.799       95.951       13.600      104.802       75.149       45.396    10983.515     5647.314     2060.760        2.195        0.935      158.215       26.125        0.027      351.414       33.302      864.008
07/13/2014  12:06:00      125.197       71.772       25.548       90.020       65.247       60.665     8103.624     4257.204     3680.220        1.876        0.802      144.311       37.002        0.066      351.525       33.495      863.998
07/13/2014  12:07:00      118.226       84.406       15.261       80.296       46.817       52.838     6447.468     2191.820     2791.804        1.638        0.572      145.265       25.229        0.030      351.610       33.644      864.003
07/13/2014  12:08:00      128.558       92.326       15.106       76.348       61.761       59.734     5829.052     3814.471     3568.142        1.924        0.661      158.276       42.036        0.071      351.542       33.523      863.989
07/13/2014  12:09:00      110.055      116.201       19.423      100.629       79.742       66.864    10126.238     6358.810     4470.811        2.347        1.048      160.046       53.805        0.113      351.515       33.477      863.979
07/13/2014  12:10:00       63.140       66.599        5.098       82.392       55.316       41.611     6788.422     3059.830     1731.436        1.001        0.579       91.771       28.063        0.094      351.657       33.728      863.978
07/13/2014  12:11:00        3.843       33.055       19.646       30.187       56.039       35.319      911.262     3140.423     1247.461        0.340        0.265       33.278       34.784        1.093      352.154       34.595      863.985
07/13/2014  12:12:00       30.181       -2.693       41.380       60.216       52.800       38.139     3626.005     2787.845     1454.600        0.525        0.393       30.300       29.934        0.976      352.204       34.684      863.960
07/13/2014  12:13:00      -16.521      -80.909        1.873       44.622       68.592       38.375     1991.100     4704.804     1472.621        0.749        0.408       82.578       22.463        0.074      351.751       33.891      863.936
07/13/2014  12:14:00      -34.631      -13.441       -6.580       44.473       62.568       40.385     1977.834     3914.702     1630.953        0.447        0.376       37.148       25.488        0.471      351.768       33.920      863.945
07/13/2014  12:15:00        3.327       43.979       24.612       26.871       45.149       25.648      722.064     2038.393      657.829        0.298        0.171       44.105       24.920        0.319      352.151       34.590      863.921
07/13/2014  12:16:00       79.604       67.373       -2.090       36.785       30.060       33.942     1353.115      903.605     1152.052        0.714        0.170      104.288       24.189        0.054      351.509       33.469      863.913
07/13/2014  12:17:00      147.652       99.248       27.123       95.122       62.881       47.552     9048.109     3954.056     2261.221        2.382        0.763      177.908       26.723        0.023      351.617       33.653      863.917
07/13/2014  12:18:00       38.035      -86.822       11.337       64.102       70.403       36.730     4109.115     4956.574     1349.113        0.976        0.521       94.788       33.203        0.123      351.550       33.539      863.910
07/13/2014  12:19:00       36.123      -23.963       41.523       50.005       53.733       43.731     2500.477     2887.267     1912.433        0.545        0.365       43.348       42.212        0.948      352.227       34.722      863.892
07/13/2014  12:20:00      109.508       73.401       29.233       69.794       64.867       49.958     4871.270     4207.682     2495.753        1.490        0.579      131.832       26.213        0.040      351.863       34.086      863.891
07/13/2014  12:21:00       29.757      -19.786       33.490       48.486       82.159       64.194     2350.854     6750.176     4120.899        0.781        0.661       35.734       67.424        3.560      351.961       34.257      863.895
07/13/2014  12:22:00      -62.557      -11.553       17.039       72.206       62.247       36.483     5213.730     3874.688     1330.995        0.738        0.521       63.615       41.082        0.417      352.063       34.437      863.878
07/13/2014  12:23:00      -68.064      -38.453        6.978       66.983       53.304       30.925     4486.757     2841.345      956.346        0.722        0.414       78.175       33.777        0.187      351.955       34.247      863.874
07/13/2014  12:24:00      -90.874       22.992       15.516       52.323       33.105       28.478     2737.693     1095.937      810.998        0.684        0.232       93.738       27.909        0.089      351.590       33.611      863.856
07/13/2014  12:25:00      -66.315       -9.265       -0.919       30.087       27.413       20.179      905.220      751.466      407.195        0.327        0.103       66.959       14.396        0.046      351.687       33.779      863.855
07/13/2014  12:26:00      -48.519       -6.823        2.498       46.258       38.643       32.946     2139.846     1493.261     1085.408        0.356        0.236       48.997        8.769        0.032      352.175       34.631      863.834
07/13/2014  12:27:00       71.247     -105.687        9.604       76.484      112.537       56.168     5849.860    12664.625     3154.844        1.900        1.083      127.459       61.244        0.231      352.151       34.588      863.819
07/13/2014  12:28:00        7.624     -165.782      -17.541      119.996       85.438       61.991    14399.007     7299.715     3842.844        2.669        1.277      165.958       46.440        0.078      351.743       33.874      863.806
07/13/2014  12:29:00      -77.121      -22.271        6.353       41.129       76.243       34.054     1691.575     5812.999     1159.664        0.757        0.433       80.272       33.763        0.177      351.603       33.632      863.802
07/13/2014  12:30:00      -43.262      -82.266      -10.182      101.584       72.650       54.280    10319.359     5278.084     2946.277        1.364        0.927       92.948       40.904        0.194      351.666       33.742      863.787
07/13/2014  12:31:00        9.113      -67.997       -0.910       47.960       67.084       48.485     2300.204     4500.204     2350.811        0.693        0.458       68.605       49.180        0.514      351.956       34.250      863.777
07/13/2014  12:32:00       85.147     -148.101      -29.245       96.153      124.585       42.476     9245.451    15521.428     1804.216        2.830        1.329      170.833       50.354        0.087      351.881       34.116      863.783
07/13/2014  12:33:00      110.039     -158.098       12.615       92.047       93.309       71.695     8472.658     8706.482     5140.170        2.979        1.116      192.623       69.568        0.130      351.731       33.852      863.758
07/13/2014  12:34:00      116.677     -185.730      -21.028       68.738       81.625       48.986     4724.873     6662.591     2399.664        3.117        0.689      219.338       50.536        0.053      351.815       33.999      863.759
07/13/2014  12:35:00       70.332      -57.340       54.700       84.929      149.996       72.407     7212.883    22498.706     5242.721        2.308        1.748       90.744       78.020        0.739      352.251       34.762      863.746
07/13/2014  12:36:00       40.083       37.428       71.892       60.053       40.680       48.494     3606.338     1654.822     2351.692        0.789        0.381       54.841       24.477        0.199      352.136       34.564      863.766
07/13/2014  12:37:00      -93.469       95.850      -21.816       62.586       38.456       30.608     3917.057     1478.876      936.821        1.236        0.317      133.880       19.487        0.021      351.675       33.759      863.727
07/13/2014  12:38:00      -86.049       80.705       -0.504       66.146       53.737       46.479     4375.257     2887.635     2160.331        1.167        0.471      117.973       56.878        0.232      351.744       33.878      863.706
07/13/2014  12:39:00      170.058      112.003       44.974      111.021       82.081       55.920    12325.562     6737.222     3126.996        3.283        1.109      203.628       26.305        0.017      351.662       33.733      863.709
07/13/2014  12:40:00      151.521       94.338       45.412      129.971       68.428       66.596    16892.451     4682.380     4435.001        2.996        1.300      178.489       47.281        0.070      351.842       34.048      863.694
07/13/2014  12:41:00       90.162       85.821       10.494       52.426       45.834       39.652     2748.443     2100.710     1572.319        1.101        0.321      124.476       30.612        0.060      351.598       33.622      863.683
07/13/2014  12:42:00       10.235      116.158       -5.426       50.486       82.591       37.623     2548.871     6821.262     1415.474        1.220        0.539      116.608       47.723        0.167      351.872       34.100      863.667
07/13/2014  12:43:00       51.129      121.445      -10.184       77.632      100.441       49.927     6026.793    10088.436     2492.730        1.803        0.930      131.769       51.891        0.155      351.990       34.305      863.650
07/13/2014  12:44:00       36.655      109.755       -6.847       51.126       54.384       35.442     2613.866     2957.595     1256.135        1.013        0.341      115.714       33.853        0.086      351.828       34.026      863.646
07/13/2014  12:45:00       28.029       55.531        4.597       65.727       44.727       51.602     4320.052     2000.470     2662.818        0.644        0.449       62.203       36.144        0.338      352.074       34.455      863.644
07/13/2014  12:46:00       78.850       47.184       32.836       51.559       34.822       36.749     2658.374     1212.567     1350.508        0.737        0.261       91.890       26.512        0.083      351.824       34.018      863.618
07/13/2014  12:47:00       18.288     -106.982        8.174       83.294       88.644       45.409     6937.868     7857.786     2062.017        1.435        0.843      108.533       39.638        0.133      351.935       34.211      863.616
07/13/2014  12:48:00      -64.108      -53.797      -16.790       82.242       42.387       25.605     6763.676     1796.655      655.635        0.825        0.461       83.690       20.571        0.060      351.735       33.864      863.609
07/13/2014  12:49:00      -82.672      -67.442      -24.081       59.673       85.675       26.860     3560.894     7340.270      721.463        1.179        0.581      106.691       17.146        0.026      351.536       33.514      863.566
07/13/2014  12:50:00      -40.384       34.226       16.737       44.178       40.132       37.565     1951.698     1610.559     1411.131        0.403        0.249       52.937       29.142        0.303      352.256       34.774      863.570
07/13/2014  12:51:00       21.696      -26.998       18.371       56.459       63.342       32.365     3187.618     4012.156     1047.481        0.489        0.412       34.635       38.870        1.259      352.628       35.425      863.549
07/13/2014  12:52:00       10.278      -49.203       31.354       42.108       37.831       27.145     1773.045     1431.189      736.849        0.372        0.197       50.265       13.405        0.071      352.220       34.710      863.534
07/13/2014  12:53:00       -3.773     -111.194       -1.327       40.636       99.951       48.140     1651.289     9990.237     2317.414        1.317        0.698      111.258       44.204        0.158      352.151       34.588      863.537
07/13/2014  12:54:00       66.476     -126.654       25.636       87.971      146.613       78.756     7738.843    21495.343     6202.560        2.827        1.772      143.040       96.897        0.459      351.928       34.200      863.518
07/13/2014  12:55:00       57.359      -97.981        7.086       59.458       97.345       50.298     3535.311     9476.092     2529.929        1.424        0.777      113.536       58.099        0.262      352.113       34.522      863.525
07/13/2014  12:56:00        1.433      -25.800       28.145       40.973       69.143       48.457     1678.752     4780.696     2348.053        0.513        0.440       25.840       53.178        4.235      352.305       34.860      863.518
07/13/2014  12:57:00       11.386       12.166       37.062       46.536       54.741       28.391     2165.635     2996.547      806.021        0.381        0.298       16.663       26.399        2.510      352.256       34.774      863.508
07/13/2014  12:58:00      -66.601      -23.123       10.199       68.660       47.369       26.116     4714.203     2243.861      682.035        0.636        0.382       70.501       28.569        0.164      352.465       35.138      863.471
07/13/2014  12:59:00      -80.056      -54.803       -1.099       42.146       45.524       20.729     1776.254     2072.398      429.699        0.685        0.214       97.017       18.386        0.036      351.982       34.295      863.456
07/13/2014  13:00:00      -27.496      -24.536        0.040       37.475       30.994       20.131     1404.349      960.618      405.238        0.206        0.139       36.852        9.098        0.061      352.152       34.591      863.458
07/13/2014  13:01:00       90.170      -63.962       46.927       67.405      138.232       79.608     4543.469    19108.018     6337.424        2.220        1.499      110.552       95.154        0.741      352.276       34.806      863.455
07/13/2014  13:02:00       92.889     -170.113        8.299       52.840       89.451       43.936     2792.085     8001.432     1930.386        2.518        0.636      193.821       50.519        0.068      351.763       33.908      863.448
07/13/2014  13:03:00       25.794      -55.827       10.299       43.002       44.189       39.775     1849.136     1952.632     1582.060        0.463        0.269       61.498       30.596        0.248      352.078       34.463      863.430
07/13/2014  13:04:00      106.605      -72.420       53.720      133.620      177.837       94.329    17854.384    31625.979     8897.985        3.892        2.919      128.877      119.092        0.854      352.322       34.887      863.413
07/13/2014  13:05:00      189.246      -68.670       56.149      125.651      107.370       75.137    15788.086    11528.222     5645.578        3.832        1.648      201.320       75.665        0.141      352.092       34.483      863.422
07/13/2014  13:06:00      114.365       15.596       77.013       80.536      131.332       72.667     6486.093    17248.186     5280.461        2.413        1.451      115.424       70.461        0.373      352.255       34.769      863.410
07/13/2014  13:07:00      152.067      135.694      102.927      137.978       65.511       58.505    19037.931     4291.647     3422.889        3.944        1.338      203.807       54.383        0.071      352.415       35.048      863.404
07/13/2014  13:08:00       66.260       65.136       60.895       71.954       77.726       50.248     5177.324     6041.402     2524.813        1.304        0.687       92.914       50.344        0.294      352.257       34.772      863.408
07/13/2014  13:09:00       93.102      -59.116       29.123       70.210      135.324       62.076     4929.424    18312.480     3853.473        2.005        1.355      110.284       69.360        0.396      352.300       34.847      863.387
07/13/2014  13:10:00       17.511       13.265       42.140       36.353       37.307       28.034     1321.539     1391.801      785.917        0.288        0.175       21.968       22.424        1.042      352.615       35.403      863.370
07/13/2014  13:11:00      103.235       73.746       25.108       88.833       68.150       54.639     7891.339     4644.460     2985.458        1.612        0.776      126.870       29.125        0.053      352.538       35.264      863.336
07/13/2014  13:12:00      185.897      114.313       64.302      121.389       86.656       69.294    14735.228     7509.309     4801.608        3.940        1.352      218.232       62.907        0.083      352.504       35.203      863.295
07/13/2014  13:13:00      165.484       91.885       89.483      126.358      116.926       95.909    15966.218    13671.602     9198.455        4.133        1.942      189.282       91.764        0.235      351.932       34.203      863.279
07/13/2014  13:14:00      152.621      105.712       56.630       85.091       55.131       60.511     7240.483     3039.462     3661.553        2.581        0.697      185.656       40.215        0.047      351.876       34.106      863.275
07/13/2014  13:15:00       67.151       49.132       65.236       72.461       69.784       47.123     5250.543     4869.764     2220.618        1.176        0.617       83.206       40.776        0.240      352.094       34.491      863.253
07/13/2014  13:16:00       84.580       99.822       57.823       88.983       44.225       61.470     7918.013     1955.809     3778.587        1.705        0.683      130.836       60.558        0.214      352.007       34.337      863.238
07/13/2014  13:17:00       32.402       49.040       20.305       52.118       61.490       59.761     2716.235     3780.997     3571.399        0.697        0.503       58.778       43.813        0.556      352.227       34.723      863.216
07/13/2014  13:18:00       37.415       33.089       25.015       42.151       39.445       35.093     1776.727     1555.892     1231.531        0.384        0.228       49.947       17.442        0.122      352.617       35.405      863.193
07/13/2014  13:19:00       48.644       50.867       23.144       44.510       52.617       41.942     1981.126     2768.526     1759.136        0.600        0.325       70.382       21.320        0.092      352.440       35.095      863.177
07/13/2014  13:20:00       13.047       35.656       13.413       44.023       29.133       24.849     1937.985      848.740      617.489        0.251        0.170       37.968       19.962        0.276      352.232       34.731      863.159
07/13/2014  13:21:00        3.444      101.404        7.190       28.852       62.053       33.698      832.457     3850.632     1135.548        0.808        0.291      101.462       35.385        0.122      352.378       34.987      863.143
07/13/2014  13:22:00       12.814       39.166       28.088       37.744       44.815       23.941     1424.589     2008.354      573.192        0.325        0.200       41.209       14.655        0.126      352.657       35.476      863.127
07/13/2014  13:23:00        9.414      -15.076       13.862       42.656       37.107       28.053     1819.532     1376.923      786.985        0.224        0.199       17.774       11.881        0.447      352.206       34.686      863.112
07/13/2014  13:24:00       15.806       18.131        1.515       23.200       32.576       42.115      538.217     1061.174     1773.676        0.198        0.169       24.053       14.011        0.339      352.378       34.987      863.095
07/13/2014  13:25:00       17.150        8.495       11.972       33.785       24.800       24.348     1141.446      615.046      592.811        0.143        0.117       19.139       12.913        0.455      352.417       35.056      863.083
07/13/2014  13:26:00       36.491       84.097       -7.718       41.444       65.708       40.006     1717.611     4317.497     1600.498        0.805        0.382       91.673       27.598        0.091      352.231       34.729      863.065
07/13/2014  13:27:00      -74.617       76.192        7.572       56.789       48.725       37.510     3224.945     2374.090     1406.964        0.922        0.350      106.643       34.525        0.105      352.652       35.465      863.039
07/13/2014  13:28:00      -47.744      117.428      -10.724       33.469       48.793       31.463     1120.183     2380.794      989.941        1.034        0.225      126.763       27.801        0.048      352.546       35.280      863.040
07/13/2014  13:29:00       40.632       44.533       23.289       49.744       35.120       27.838     2474.467     1233.449      774.968        0.433        0.224       60.284       21.455        0.127      353.070       36.197      863.044
07/13/2014  13:30:00      222.859      111.696       45.490       89.427       54.306       46.391     7997.267     2949.136     2152.170        3.865        0.655      249.283       33.620        0.018      352.189       34.653      863.035
07/13/2014  13:31:00      261.496      170.957       32.705      133.398       78.021       79.584    17794.912     6087.340     6333.631        6.444        1.511      312.420       34.476        0.012      352.342       34.919      863.000
07/13/2014  13:32:00      224.104      183.074       29.588      113.189       83.529       80.891    12811.775     6977.027     6543.289        5.547        1.317      289.376       43.753        0.023      352.222       34.707      862.994
07/13/2014  13:33:00      269.317      217.746       26.821      157.225      119.853       98.858    24719.642    14364.659     9772.922        8.475        2.443      346.331       54.557        0.025      352.379       34.982      862.979
07/13/2014  13:34:00      132.660      220.365      -16.753      148.294      158.827       76.211    21991.102    25226.025     5808.142        5.972        2.651      257.215       83.501        0.105      352.334       34.907      862.993
07/13/2014  13:35:00       13.103      248.080      -41.958       42.733       73.282       30.471     1826.134     5370.278      928.467        3.580        0.406      248.425       35.090        0.020      352.000       34.322      863.018
07/13/2014  13:36:00       -6.199       78.130        6.072       47.681       57.721       32.159     2273.484     3331.695     1034.212        0.641        0.332       78.375       35.389        0.204      352.639       35.442      863.001
07/13/2014  13:37:00       75.319       84.326        9.992       69.370       71.071       40.146     4812.193     5051.078     1611.739        1.218        0.574      113.065       31.770        0.079      352.670       35.496      862.970
07/13/2014  13:38:00      -14.918      195.588      -31.387       54.627       81.775       29.322     2984.122     6687.189      859.771        2.499        0.527      196.156       28.910        0.022      352.313       34.871      862.980
07/13/2014  13:39:00      -67.100       64.966      -19.165       46.684       63.078       33.966     2179.440     3978.823     1153.715        0.820        0.366       93.397       33.347        0.127      352.495       35.192      862.963
07/13/2014  13:40:00      -48.202       -5.596      -28.296       39.335       38.106       20.689     1547.268     1452.035      428.053        0.329        0.171       48.526       23.607        0.237      352.144       34.576      862.944
07/13/2014  13:41:00      -41.302       56.755        2.253       54.497       78.150       45.230     2969.968     6107.415     2045.780        0.803        0.556       70.192       43.400        0.382      352.377       34.985      862.922
07/13/2014  13:42:00      -49.444       87.790       13.240       46.021       63.511       43.174     2117.921     4033.610     1863.960        0.917        0.401      100.756       42.925        0.181      352.872       35.851      862.907
07/13/2014  13:43:00      -35.007       97.041       10.539       40.583       72.104       41.574     1646.980     5199.053     1728.374        0.966        0.429      103.162       35.647        0.119      352.973       36.029      862.905
07/13/2014  13:44:00      -22.116      116.042        2.962       39.496       47.112       29.552     1559.943     2219.587      873.321        0.931        0.233      118.131       24.245        0.042      352.884       35.872      862.891
07/13/2014  13:45:00     -104.484      110.168      -22.569       55.349       53.198       37.634     3063.557     2830.048     1416.340        1.544        0.365      151.835       29.552        0.038      352.543       35.274      862.889
07/13/2014  13:46:00     -103.634       13.781       -7.273       70.845       60.516       32.027     5019.039     3662.167     1025.720        1.034        0.485      104.546       14.323        0.019      352.508       35.213      862.874
07/13/2014  13:47:00     -110.877       78.386       -2.305       56.480      125.714       41.046     3190.042    15803.896     1684.778        1.956        1.034      135.787       47.519        0.122      352.544       35.275      862.854
07/13/2014  13:48:00      -26.709       76.002       13.938       37.551       64.081       39.678     1410.114     4106.391     1574.324        0.689        0.355       80.559       42.338        0.276      352.786       35.700      862.861
07/13/2014  13:49:00      -47.037       22.739       34.296       75.933       61.337       39.997     5765.748     3762.285     1599.726        0.751        0.556       52.245       32.249        0.381      353.161       36.357      862.844
07/13/2014  13:50:00        0.231       81.529        2.541       31.366       61.353       31.509      983.828     3764.161      992.802        0.620        0.287       81.529       33.472        0.169      352.750       35.639      862.853
07/13/2014  13:51:00      -34.283      162.589      -26.782       51.214       59.519       36.311     2622.923     3542.493     1318.490        1.790        0.374      166.164       26.230        0.025      352.586       35.349      862.864
07/13/2014  13:52:00      -53.853      300.044      -30.487       80.806      108.919       45.237     6529.534    11863.398     2046.418        5.714        1.022      304.839       46.213        0.023      352.507       35.207      862.851
07/13/2014  13:53:00       10.258      251.037      -34.591       65.564       83.467       42.623     4298.589     6966.792     1816.722        3.870        0.654      251.246       50.251        0.040      352.399       35.018      862.867
07/13/2014  13:54:00     -113.555      171.488      -15.044       76.770      141.348       51.773     5893.654    19979.256     2680.428        3.554        1.428      205.677       50.122        0.059      352.590       35.355      862.861
07/13/2014  13:55:00     -265.889       31.331      -35.808       88.273      110.040       52.318     7792.158    12108.720     2737.168        4.780        1.132      267.729       38.902        0.021      352.446       35.099      862.828
07/13/2014  13:56:00     -133.482       -7.130       13.325      107.649       50.041       48.157    11588.347     2504.138     2319.119        1.723        0.821      133.672       60.954        0.208      352.641       35.446      862.815
07/13/2014  13:57:00      -77.861      148.418       13.636       87.437       98.430       59.702     7645.289     9688.411     3564.299        2.458        1.045      167.601       73.665        0.193      352.841       35.795      862.803
07/13/2014  13:58:00     -168.714      136.831      -30.626       76.051       65.327       50.152     5783.773     4267.658     2515.176        3.034        0.628      217.225       50.071        0.053      352.606       35.383      862.812
07/13/2014  13:59:00     -255.939       84.469      -32.097       76.159      104.622       46.631     5800.186    10945.779     2174.496        4.629        0.946      269.517       34.289        0.016      352.400       35.019      862.795
07/13/2014  14:00:00     -338.821      -81.936      -42.657      119.949      121.268       52.881    14387.713    14705.959     2796.404        7.760        1.595      348.587       49.066        0.020      352.437       35.084      862.745
07/13/2014  14:01:00     -313.065       -1.763      -46.519      122.723      185.536       64.632    15060.878    34423.566     4177.249        7.691        2.683      313.070       62.656        0.040      352.432       35.075      862.753
07/13/2014  14:02:00      -76.455       59.632        1.608       82.920       65.683       44.271     6875.674     4314.250     1959.957        1.127        0.657       96.961       38.068        0.154      352.693       35.538      862.793
07/13/2014  14:03:00     -102.308      124.947      -11.629       67.873       68.533       47.240     4606.756     4696.837     2231.589        1.887        0.577      161.489       37.164        0.053      352.820       35.759      862.776
07/13/2014  14:04:00     -104.840      188.159      -22.348       49.644       69.655       42.637     2464.491     4851.761     1817.909        2.801        0.457      215.395       40.244        0.035      352.580       35.338      862.785
07/13/2014  14:05:00      -86.747      155.604      -22.332       57.753       80.028       33.143     3335.428     6404.468     1098.444        2.154        0.542      178.151       28.735        0.026      352.542       35.270      862.779
07/13/2014  14:06:00      -36.444      101.882       10.102       53.227       48.062       39.129     2833.099     2309.936     1531.107        0.924        0.334      108.204       42.297        0.153      352.905       35.911      862.762
07/13/2014  14:07:00      -61.685       51.498       16.952       64.324       33.825       38.994     4137.605     1144.122     1520.503        0.677        0.340       80.357       43.129        0.288      352.997       36.070      862.735
07/13/2014  14:08:00     -183.360        4.092      -19.671       69.771       82.260       28.982     4868.056     6766.708      839.955        2.325        0.624      183.406       29.864        0.027      352.604       35.380      862.733
07/13/2014  14:09:00     -255.850     -121.962      -21.346       99.481       49.752       37.028     9896.503     2475.310     1371.037        4.726        0.687      283.432       27.355        0.009      352.540       35.266      862.731
07/13/2014  14:10:00      -91.948      -55.130       14.669       74.053       70.919       50.313     5483.914     5029.558     2531.431        1.237        0.652      107.209       54.299        0.257      352.853       35.817      862.740
07/13/2014  14:11:00      -24.485      -16.288       20.247       34.820       29.762       23.186     1212.433      885.757      537.577        0.195        0.132       29.407       21.853        0.552      353.241       36.498      862.727
07/13/2014  14:12:00     -177.191      -25.341       -0.175      111.050      105.247       60.788    12332.188    11076.865     3695.184        2.957        1.355      178.994       34.720        0.038      353.021       36.109      862.705
07/13/2014  14:13:00     -120.184       73.290       -3.557       93.519       77.288       49.551     8745.850     5973.433     2455.296        1.850        0.859      140.768       56.795        0.163      352.785       35.699      862.728
07/13/2014  14:14:00      -52.214       14.114        3.874       95.288       52.806       30.242     9079.891     2788.456      914.573        0.786        0.639       54.088       26.589        0.242      352.988       36.053      862.720
07/13/2014  14:15:00     -145.980      -38.829       -0.816       69.700       80.874       52.941     4858.066     6540.651     2802.736        1.851        0.710      151.056       43.131        0.082      352.922       35.936      862.705
07/13/2014  14:16:00     -181.746     -113.217       -0.541      113.466       73.212       50.167    12874.639     5359.940     2516.722        3.330        1.038      214.125       44.581        0.043      352.855       35.818      862.676
07/13/2014  14:17:00     -289.174      -57.004       -4.971       96.019       88.901       59.872     9219.660     7903.310     3584.675        5.380        1.035      294.739       47.706        0.026      352.753       35.636      862.679
07/13/2014  14:18:00     -156.533      -26.292      -14.685       75.145       49.617       37.327     5646.809     2461.846     1393.299        1.745        0.475      158.725       42.110        0.070      352.657       35.474      862.704
07/13/2014  14:19:00     -200.543     -124.284       -2.511       77.397       67.877       33.669     5990.238     4607.295     1133.591        3.370        0.587      235.932       29.254        0.015      352.736       35.608      862.678
07/13/2014  14:20:00     -228.860        7.534       -4.638      118.208       94.254       54.579    13973.067     8883.838     2978.871        3.914        1.292      228.984       61.427        0.072      352.898       35.893      862.671
07/13/2014  14:21:00     -222.930      -56.608       -6.160       90.961       61.900       43.327     8273.832     3831.607     1877.236        3.346        0.699      230.005       51.111        0.049      352.581       35.336      862.690
07/13/2014  14:22:00     -129.223      -61.379        8.737       94.328       83.487       45.808     8897.799     6970.157     2098.414        1.925        0.898      143.059       42.467        0.088      352.872       35.848      862.677
07/13/2014  14:23:00     -157.281       15.311        1.442       92.088       69.580       37.424     8480.257     4841.391     1400.566        1.985        0.736      158.025       41.810        0.070      353.007       36.086      862.665
07/13/2014  14:24:00     -153.784      -25.221        2.490       77.750       76.871       30.960     6045.001     5909.143      958.529        1.860        0.646      155.839       30.411        0.038      352.842       35.796      862.648
07/13/2014  14:25:00     -199.502     -115.105       -0.193       64.876       49.993       35.939     4208.843     2499.344     1291.605        3.052        0.400      230.326       26.079        0.013      352.599       35.369      862.624
07/13/2014  14:26:00     -197.230      -78.156       -3.153       53.949       59.794       30.684     2910.472     3575.350      941.530        2.622        0.371      212.151       20.527        0.009      352.656       35.470      862.608
07/13/2014  14:27:00     -187.891      -45.802       -8.807       72.368       56.682       33.745     5237.083     3212.831     1138.701        2.353        0.479      193.393       38.514        0.040      352.666       35.489      862.586
07/13/2014  14:28:00     -273.526      -54.342      -24.812       58.964       32.233       26.110     3476.699     1038.938      681.738        4.179        0.260      278.872       26.638        0.009      352.404       35.028      862.575
07/13/2014  14:29:00     -203.344       36.488      -25.449       59.588       53.118       31.116     3550.710     2821.497      968.224        2.533        0.367      206.592       28.174        0.019      352.587       35.350      862.575
07/13/2014  14:30:00      -67.707       91.159      -11.383       71.799       54.737       38.255     5155.153     2996.172     1463.443        1.132        0.481      113.553       47.486        0.175      352.850       35.813      862.569
07/13/2014  14:31:00       17.008      -13.532       21.555       57.185       57.331       32.022     3270.147     3286.833     1025.413        0.426        0.379       21.734       24.437        1.264      353.017       36.104      862.564
07/13/2014  14:32:00      -36.894      -31.295        9.555       43.960       31.787       25.118     1932.513     1010.444      630.929        0.300        0.179       48.379       21.357        0.195      352.999       36.074      862.538
07/13/2014  14:33:00      -25.708      -14.873        7.909       37.244       36.296       22.689     1387.137     1317.422      514.794        0.208        0.161       29.700       20.941        0.497      352.946       35.981      862.520
07/13/2014  14:34:00      -25.888       64.290        3.684       52.572       54.140       33.687     2763.805     2931.119     1134.791        0.582        0.341       69.307       22.995        0.110      352.964       36.012      862.514
07/13/2014  14:35:00      -76.404       79.336       -3.473       70.408       60.557       42.911     4957.289     3667.131     1841.368        1.130        0.523      110.144       28.936        0.069      352.930       35.953      862.510
07/13/2014  14:36:00       91.574       48.016       30.045       71.256       42.826       34.049     5077.397     1834.088     1159.366        0.983        0.404      103.399       24.982        0.058      352.746       35.632      862.524
07/13/2014  14:37:00      122.547      130.739       25.220       50.750       41.152       57.838     2575.558     1693.515     3345.275        2.018        0.381      179.194       14.923        0.007      352.409       35.039      862.511
07/13/2014  14:38:00       70.128       34.680       22.968       61.255       80.759       39.311     3752.120     6522.076     1545.381        0.923        0.591       78.234       32.522        0.173      352.256       34.773      862.475
07/13/2014  14:39:00       61.950       46.815       34.934       53.754       57.590       53.186     2889.501     3316.630     2828.719        0.814        0.452       77.649       32.938        0.180      352.360       34.956      862.417
07/13/2014  14:40:00      105.465       62.759       50.163       94.316       78.179       53.405     8895.503     6111.964     2852.048        1.772        0.893      122.725       42.859        0.122      352.964       36.010      862.393
07/13/2014  14:41:00       99.981       77.592       22.305       76.039       54.117       47.054     5781.942     2928.683     2214.085        1.372        0.546      126.557       16.899        0.018      352.752       35.640      862.386
07/13/2014  14:42:00      -13.525       51.272        2.328       40.007       52.581       29.271     1600.549     2764.769      856.797        0.402        0.261       53.025       27.722        0.273      353.105       36.259      862.379
07/13/2014  14:43:00       -3.732       13.278       20.642       36.563       26.236       25.522     1336.864      688.327      651.375        0.165        0.134       13.792       14.155        1.053      353.227       36.473      862.367
07/13/2014  14:44:00      -60.610       11.709        9.489       39.743       25.874       34.465     1579.485      669.475     1187.834        0.367        0.172       61.730       23.667        0.147      353.005       36.084      862.353
07/13/2014  14:45:00       -9.597       12.620       24.532       29.402       50.217       26.644      864.454     2521.779      709.917        0.247        0.205       15.854       21.330        1.810      352.928       35.949      862.335
07/13/2014  14:46:00      -11.266       21.692       33.087       29.791       23.531       19.608      887.493      553.700      384.454        0.176        0.091       24.443       16.708        0.467      352.867       35.843      862.314
07/13/2014  14:47:00      -36.133      -17.885        4.405       55.646       35.690       27.042     3096.422     1273.804      731.285        0.337        0.255       40.317       23.037        0.326      352.895       35.891      862.311
07/13/2014  14:48:00      -37.461      -47.735        9.325       37.911       51.238       20.400     1437.256     2625.357      416.157        0.412        0.224       60.680       18.347        0.091      353.052       36.167      862.301
07/13/2014  14:49:00      -57.724      -31.431        3.301       36.034       39.511       27.136     1298.426     1561.116      736.352        0.396        0.180       65.727       25.917        0.155      353.005       36.085      862.292
07/13/2014  14:50:00     -161.324      -89.800       -1.247       69.158       71.823       34.450     4782.878     5158.612     1186.805        2.261        0.556      184.634       32.272        0.031      353.034       36.131      862.288
07/13/2014  14:51:00      -94.859      -83.973       16.569       62.682       83.520       39.773     3929.088     6975.618     1581.873        1.440        0.624      126.687       38.787        0.094      352.857       35.823      862.277
07/13/2014  14:52:00     -132.689      -74.894       11.157       80.284       71.845       41.425     6445.588     5161.775     1716.021        1.833        0.666      152.366       39.131        0.066      353.100       36.248      862.248
07/13/2014  14:53:00     -153.489     -101.123       14.529      135.272       81.772       51.367    18298.615     6686.589     2638.615        3.080        1.381      183.806       44.689        0.059      352.927       35.945      862.232
07/13/2014  14:54:00     -254.235     -227.656      -10.272      123.322      117.779       66.129    15208.434    13871.826     4373.007        7.500        1.673      341.267       65.077        0.036      352.816       35.748      862.221
07/13/2014  14:55:00     -228.726     -157.426       -5.038      113.155       85.463       57.324    12804.096     7303.904     3286.070        5.025        1.170      277.666       46.429        0.028      352.925       35.938      862.207
07/13/2014  14:56:00     -231.513     -120.722        8.173      124.158      105.867       59.429    15415.155    11207.818     3531.796        4.919        1.508      261.098       64.064        0.060      353.001       36.073      862.220
07/13/2014  14:57:00     -170.726      -25.549       -6.554       90.914       81.959       45.867     8265.362     6717.208     2103.814        2.346        0.854      172.627       52.810        0.094      353.134       36.308      862.247
07/13/2014  14:58:00     -102.752       34.506       -0.250       64.507       32.367       36.190     4161.106     1047.620     1309.749        0.913        0.326      108.391       33.778        0.097      353.117       36.280      862.234
07/13/2014  14:59:00      -57.325       61.477       12.403       63.433       47.093       34.823     4023.754     2217.718     1212.632        0.734        0.373       84.057       35.825        0.182      353.397       36.770      862.223
07/13/2014  15:00:00     -127.305       82.667      -14.120       61.268       44.088       36.975     3753.742     1943.756     1367.170        1.515        0.353      151.791       28.611        0.036      352.962       36.008      862.212
07/13/2014  15:01:00     -131.506       52.191       -9.568       94.306       46.842       27.309     8893.657     2194.219      745.787        1.597        0.592      141.484       21.108        0.022      353.132       36.307      862.203
07/13/2014  15:02:00     -262.588       16.157      -27.569       60.738       54.518       26.814     3689.069     2972.234      718.970        3.868        0.369      263.085       30.550        0.013      352.730       35.596      862.197
07/13/2014  15:03:00      -56.362       67.858        7.088       94.167       48.037       38.061     8867.331     2307.578     1448.603        1.023        0.631       88.213       33.387        0.143      352.962       36.008      862.195
07/13/2014  15:04:00      122.345       69.206       55.134       85.666       77.947       63.624     7338.746     6075.776     4048.073        2.013        0.873      140.563       54.538        0.151      352.933       35.955      862.163
07/13/2014  15:05:00       24.002       18.154       82.115       56.552       88.107       60.700     3198.155     7762.873     3684.465        1.114        0.732       30.094       48.881        2.638      352.989       36.056      862.138
07/13/2014  15:06:00       56.729       32.554       86.964       58.455       79.256       44.896     3417.026     6281.538     2015.655        1.178        0.586       65.405       47.556        0.529      353.077       36.209      862.117
07/13/2014  15:07:00       46.179       86.221      107.516       79.572       66.164       41.205     6331.659     4377.739     1697.813        1.676        0.620       97.809       30.578        0.098      353.484       36.923      862.077
07/13/2014  15:08:00       14.058       82.098      110.188       48.768       67.035       48.609     2378.337     4493.641     2362.854        1.416        0.462       83.293       38.333        0.212      353.157       36.349      862.056
07/13/2014  15:09:00      162.663       35.882       55.639      118.833       75.122       58.970    14121.353     5643.340     3477.501        2.704        1.162      166.573       52.437        0.099      352.976       36.029      862.041
07/13/2014  15:10:00      107.660     -128.318       20.473       90.557      129.384       71.534     8200.577    16740.221     5117.058        2.926        1.503      167.500       66.641        0.158      353.209       36.439      862.024
07/13/2014  15:11:00      184.816      -42.488       56.834       97.194       54.192       56.608     9446.596     2936.825     3204.521        2.739        0.779      189.637       45.154        0.057      352.762       35.657      862.021
07/13/2014  15:12:00       97.402       62.202       57.286       51.292       50.291       37.265     2630.896     2529.188     1388.706        1.159        0.327      115.569       15.108        0.017      352.945       35.978      862.015
07/13/2014  15:13:00       93.643       30.295       66.123       86.675       75.625       63.906     7512.579     5719.160     4084.014        1.568        0.866       98.421       58.312        0.351      352.789       35.705      862.010
07/13/2014  15:14:00      129.071      -11.677       31.782      107.465      134.236       71.691    11548.701    18019.270     5139.603        2.625        1.735      129.598       67.473        0.271      352.913       35.921      862.007
07/13/2014  15:15:00       66.101      -69.684       41.360      108.623      111.945       48.190    11799.019    12531.702     2322.271        1.879        1.333       96.048       55.182        0.330      353.133       36.306      862.013
07/13/2014  15:16:00       99.536      -87.015       28.047       88.409      130.016       51.104     7816.173    16904.271     2611.577        2.279        1.367      132.208       62.130        0.221      353.154       36.344      862.003
07/13/2014  15:17:00       40.641       14.165       29.628       43.491       56.447       31.078     1891.474     3186.279      965.862        0.439        0.302       43.039       22.511        0.274      353.169       36.372      862.005
07/13/2014  15:18:00       -0.959      -55.800      -27.594       48.797       57.308       22.457     2381.122     3284.211      504.298        0.502        0.308       55.809       19.493        0.122      353.424       36.819      862.006
07/13/2014  15:19:00      -17.836       -1.940        7.226       47.203       25.646       28.322     2228.096      657.696      802.159        0.203        0.184       17.941       28.698        2.559      353.213       36.450      861.997
07/13/2014  15:20:00        3.886       18.909       23.970       47.945       26.648       28.985     2298.769      710.130      840.131        0.240        0.192       19.304       16.440        0.725      352.957       36.002      861.986
07/13/2014  15:21:00      -27.610       56.448       21.490       55.929       45.573       38.561     3128.073     2076.855     1486.932        0.555        0.335       62.838       30.617        0.237      353.464       36.889      861.979
07/13/2014  15:22:00     -107.865       67.058        0.209      100.249       41.253       29.363    10049.831     1701.789      862.181        1.437        0.631      127.010       30.470        0.058      353.372       36.726      861.955
07/13/2014  15:23:00     -146.971       44.101       -9.584       80.682       54.273       41.127     6509.525     2945.568     1691.461        1.739        0.557      153.445       42.636        0.077      353.475       36.907      861.930
07/13/2014  15:24:00      -51.279      100.833        0.125       45.556       54.900       35.765     2075.384     3013.967     1279.169        0.958        0.318      113.123       24.635        0.047      353.399       36.773      861.915
07/13/2014  15:25:00       14.022       46.175       24.552       81.166       46.279       44.130     6587.974     2141.791     1947.483        0.680        0.534       48.257       25.721        0.284      353.420       36.812      861.889
07/13/2014  15:26:00       46.372       79.478       -2.074       57.036       48.781       36.900     3253.133     2379.558     1361.594        0.773        0.350       92.017       25.065        0.074      353.309       36.616      861.861
07/13/2014  15:27:00      107.147       72.723       44.079       73.115       49.317       39.753     5345.806     2432.199     1580.289        1.403        0.468      129.495       15.586        0.014      353.129       36.301      861.844
07/13/2014  15:28:00       82.452       68.055       98.083       92.279       83.447       67.246     8515.409     6963.413     4521.974        2.052        1.000      106.910       64.524        0.364      352.953       35.992      861.832
07/13/2014  15:29:00      122.996     -204.038      -23.513       67.949       74.477       44.150     4617.053     5546.769     1949.202        3.471        0.606      238.243       40.594        0.029      353.196       36.415      861.846
07/13/2014  15:30:00        0.908     -234.270       -3.086       92.283       96.937       44.274     8516.095     9396.730     1960.202        3.738        0.994      234.272       26.266        0.013      352.942       35.969      861.876
07/13/2014  15:31:00     -113.628     -148.366       -6.982      102.228      108.131       44.317    10450.478    11692.407     1964.009        2.953        1.205      186.879       45.802        0.060      353.207       36.435      861.865
07/13/2014  15:32:00       43.533      -50.284       49.745       69.398      135.052       87.676     4816.104    18239.174     7687.162        1.881        1.537       66.510       90.434        1.849      352.997       36.067      861.825
07/13/2014  15:33:00       46.688       84.638      114.657       68.553       77.217       50.517     4699.480     5962.390     2551.969        1.785        0.661       96.661       39.893        0.170      352.537       35.264      861.764
07/13/2014  15:34:00       57.777       -7.472       64.911       71.954      109.727       67.246     5177.317    12040.003     4522.032        1.467        1.087       58.258       77.044        1.749      352.478       35.161      861.725
07/13/2014  15:35:00       87.942     -114.246        4.404       93.745      135.580       68.321     8788.123    18382.070     4667.810        2.632        1.592      144.174       81.523        0.320      353.336       36.661      861.711
07/13/2014  15:36:00       51.494     -104.787       -5.792       57.386       78.064       45.236     3293.209     6093.939     2046.326        1.255        0.572      116.756       42.176        0.130      353.128       36.297      861.709
07/13/2014  15:37:00       47.839      -85.605        3.288       56.344       56.949       36.184     3174.627     3243.211     1309.296        0.868        0.386       98.065       31.092        0.101      353.485       36.926      861.697
07/13/2014  15:38:00      -60.278      -96.575      -13.123       73.623       62.630       38.830     5420.319     3922.526     1507.769        1.199        0.543      113.843       25.095        0.049      353.644       37.203      861.692
07/13/2014  15:39:00      -64.755      -34.954       11.664       60.061       48.991       36.978     3607.351     2400.081     1367.394        0.646        0.369       73.587       25.037        0.116      353.715       37.329      861.682
07/13/2014  15:40:00        0.582      -71.539       -8.027       47.800       47.176       26.186     2284.881     2225.590      685.715        0.519        0.260       71.542       22.126        0.096      353.293       36.588      861.682
07/13/2014  15:41:00       31.002      -37.077       36.133       69.106       99.499       56.484     4775.633     9899.985     3190.395        1.075        0.893       48.330       62.413        1.668      353.434       36.835      861.667
07/13/2014  15:42:00       13.956      -25.327       32.561       50.323       96.958       63.293     2532.430     9400.866     4005.997        0.891        0.797       28.918       56.811        3.860      353.159       36.354      861.642
07/13/2014  15:43:00       16.621      -42.905       40.897       69.438      113.305       59.551     4821.682    12837.958     3546.353        1.249        1.060       46.012       74.541        2.625      352.951       35.989      861.638
07/13/2014  15:44:00       96.233     -130.724        3.789      100.257       78.111       45.751    10051.379     6101.313     2093.159        2.230        0.912      162.326       42.857        0.070      353.191       36.408      861.658
07/13/2014  15:45:00        3.975      -34.505       14.493       45.386       48.343       33.276     2059.933     2337.042     1107.308        0.346        0.275       34.733       26.848        0.597      353.614       37.152      861.640
07/13/2014  15:46:00       -4.775      -15.351       15.514       44.904       53.754       32.662     2016.354     2889.483     1066.827        0.323        0.299       16.076       31.256        3.780      353.782       37.446      861.647
07/13/2014  15:47:00       38.997     -150.515       -0.171      102.695       78.386       48.631    10546.264     6144.386     2364.945        2.161        0.953      155.485       42.035        0.073      353.263       36.533      861.663
07/13/2014  15:48:00       16.338      -91.284        6.787       77.221       69.792       44.058     5963.026     4870.854     1941.074        1.071        0.639       92.735       35.058        0.143      353.329       36.651      861.663
07/13/2014  15:49:00        9.260     -138.189        4.085      101.859      115.697       65.345    10375.243    13385.810     4270.014        2.361        1.402      138.499       56.296        0.165      353.488       36.929      861.628
07/13/2014  15:50:00      -68.405     -158.662       -4.559       72.092       84.078       43.173     5197.228     7069.146     1863.928        2.200        0.707      172.780       42.756        0.061      353.431       36.827      861.668
07/13/2014  15:51:00      -21.320      -95.251       12.725       65.231      101.273       34.470     4255.084    10256.265     1188.201        1.269        0.785       97.607       34.578        0.125      353.707       37.313      861.642
07/13/2014  15:52:00      -62.575     -211.207       -2.469      114.133      118.691       49.277    13026.293    14087.494     2428.204        3.903        1.477      220.281       23.761        0.012      353.363       36.708      861.612
07/13/2014  15:53:00     -183.010      -72.229       53.362      191.128      145.588       70.420    36530.018    21195.769     4958.950        5.211        3.134      196.748       88.396        0.202      353.593       37.112      861.607
07/13/2014  15:54:00     -191.576     -102.322       -8.367      114.997      124.799       53.771    13224.314    15574.718     2891.276        3.946        1.585      217.189       59.596        0.075      353.637       37.189      861.599
07/13/2014  15:55:00     -420.898     -213.481       -8.354      178.466      175.721       75.036    31850.108    30877.724     5630.330       14.556        3.418      471.942       74.138        0.025      353.296       36.589      861.579
07/13/2014  15:56:00     -203.764     -131.933       -0.064       97.842      119.454       57.784     9573.092    14269.206     3339.011        4.305        1.359      242.747       53.014        0.048      353.557       37.048      861.573
07/13/2014  15:57:00     -203.318       21.650       -0.144       82.993       93.850       51.115     6887.771     8807.788     2612.782        3.005        0.915      204.467       34.636        0.029      353.615       37.150      861.567
07/13/2014  15:58:00     -208.475      -65.808       14.768      135.888       90.982       54.231    18465.542     8277.790     2941.040        3.884        1.484      218.615       73.684        0.114      353.512       36.969      861.528
07/13/2014  15:59:00      -92.118      -28.662       10.028       85.479       64.335       45.593     7306.614     4138.996     2078.728        1.146        0.676       96.474       43.432        0.203      353.840       37.547      861.507
07/13/2014  16:00:00     -262.910     -108.530      -12.628      149.664      145.321       58.062    22399.328    21118.270     3371.158        6.396        2.344      284.430       72.353        0.065      353.571       37.074      861.535
07/13/2014  16:01:00     -332.127     -126.339       10.718      144.065      145.500       69.398    20754.830    21170.183     4816.062        8.655        2.337      355.345       70.653        0.040      353.435       36.832      861.519
07/13/2014  16:02:00     -160.227     -149.832        5.946      107.415       75.970       54.267    11538.036     5771.507     2944.958        3.420        1.013      219.368       51.493        0.055      353.519       36.981      861.535
07/13/2014  16:03:00     -180.985      -51.792       -2.539      126.831       72.396       52.045    16085.986     5241.202     2708.711        2.974        1.202      188.250       59.127        0.099      353.625       37.168      861.534
07/13/2014  16:04:00     -323.882     -228.887       -9.460      182.212      162.690       81.669    33201.169    26468.063     6669.777       11.185        3.317      396.597      109.991        0.077      353.591       37.109      861.528
07/13/2014  16:05:00     -293.046     -123.397       -4.420      131.440      122.705       57.092    17276.538    15056.524     3259.537        6.835        1.780      317.967       55.124        0.030      353.561       37.056      861.535
07/13/2014  16:06:00     -162.303      -59.702       13.436      111.627       89.369       46.721    12460.629     7986.768     2182.834        2.635        1.132      172.935       50.146        0.084      353.689       37.281      861.541
07/13/2014  16:07:00     -109.054      -21.581       -2.460      104.774      100.602       50.323    10977.604    10120.862     2532.424        1.799        1.182      111.169       47.787        0.185      353.596       37.119      861.520
07/13/2014  16:08:00     -237.024       38.044      -18.243      101.376       75.924       52.515    10277.108     5764.414     2757.823        3.838        0.940      240.057       54.413        0.051      353.518       36.978      861.501
07/13/2014  16:09:00      -65.740     -109.202        6.372       99.136       86.519       57.766     9827.997     7485.559     3336.920        1.846        1.033      127.463       50.134        0.155      353.483       36.920      861.502
07/13/2014  16:10:00     -111.071      -77.166       19.232      167.488      107.191       64.368    28052.069    11489.994     4143.269        3.116        2.184      135.246       76.737        0.322      353.615       37.152      861.480
07/13/2014  16:11:00     -176.857      -44.057        1.981      115.961       96.245       55.867    13446.859     9263.180     3121.086        2.952        1.292      182.262       57.325        0.099      353.725       37.342      861.499
07/13/2014  16:12:00     -304.679     -296.911      -12.263      210.521      135.689       81.710    44319.216    18411.404     6676.452       12.526        3.470      425.424       92.066        0.047      353.320       36.631      861.482
07/13/2014  16:13:00     -341.118     -114.150      -20.190      111.817      145.191       58.421    12503.118    21080.327     3412.971        8.339        1.850      359.710       55.505        0.024      353.088       36.224      861.513
07/13/2014  16:14:00     -386.122       41.837      -47.547       74.078       64.675       40.150     5487.518     4182.902     1612.051        8.219        0.564      388.382       41.514        0.011      352.974       36.025      861.498
07/13/2014  16:15:00     -116.371       49.769       -8.528       59.126       36.392       33.160     3495.866     1324.398     1099.564        1.100        0.296      126.567       33.099        0.068      353.161       36.356      861.490
07/13/2014  16:16:00     -128.413       56.671      -17.920       43.459       41.910       28.677     1888.669     1756.466      822.347        1.224        0.223      140.362       23.385        0.028      353.250       36.512      861.469
07/13/2014  16:17:00      -43.087      -91.241       -5.411       65.721       47.562       47.513     4319.301     2262.162     2257.485        0.952        0.442      100.903       33.641        0.111      353.402       36.781      861.465
07/13/2014  16:18:00      -73.699     -118.136      -23.707       52.213       66.943       31.489     2726.237     4481.352      991.545        1.407        0.410      139.239       14.302        0.011      353.420       36.809      861.477
07/13/2014  16:19:00     -113.347     -123.026       -7.587       58.341       65.448       30.092     3403.652     4283.495      905.541        1.831        0.430      167.281       25.969        0.024      353.101       36.251      861.482
07/13/2014  16:20:00      -15.395      -94.328        6.622       40.953       35.199       32.284     1677.166     1238.985     1042.239        0.657        0.198       95.576       10.202        0.011      353.511       36.970      861.476
07/13/2014  16:21:00       -4.526       -7.832       13.093       27.222       21.123       26.856      741.028      446.190      721.223        0.108        0.095        9.046       10.536        1.357      353.634       37.187      861.484
07/13/2014  16:22:00      -32.642      -10.455       14.161       36.229       35.934       24.387     1312.508     1291.220      594.735        0.229        0.160       34.275       19.885        0.337      353.454       36.871      861.495
07/13/2014  16:23:00      -39.040       25.229       12.261       31.688       30.129       21.923     1004.098      907.768      480.599        0.235        0.120       46.482       19.496        0.176      353.595       37.117      861.494
07/13/2014  16:24:00     -348.225     -106.637      -18.220      247.178      123.872       65.152    61096.818    15344.160     4244.747       10.681        4.034      364.187       71.529        0.039      353.439       36.842      861.465
07/13/2014  16:25:00     -175.582     -134.643       11.565      137.047      123.508       63.984    18781.986    15254.286     4093.973        4.360        1.907      221.264       63.021        0.081      353.629       37.175      861.455
07/13/2014  16:26:00     -180.838     -132.216       -7.442      118.583       94.456       62.973    14062.014     8922.001     3965.583        3.859        1.347      224.017       57.856        0.067      353.522       36.987      861.482
07/13/2014  16:27:00     -193.668     -153.851        3.454      126.651      103.518       61.520    16040.398    10715.973     3784.671        4.586        1.527      247.340       56.969        0.053      353.461       36.880      861.443
07/13/2014  16:28:00     -306.521      -80.488       -5.206      159.384      169.192       82.775    25403.260    28625.811     6851.764        8.066        3.044      316.912       81.431        0.066      353.545       37.026      861.416
07/13/2014  16:29:00     -433.937      -80.463      -33.675      194.047      135.947       80.467    37654.322    18481.643     6475.005       12.925        3.131      441.334       91.117        0.043      353.490       36.930      861.433
07/13/2014  16:30:00     -273.947      -86.094      -14.294      146.959       86.993       57.885    21596.857     7567.821     3350.628        5.758        1.626      287.156       60.514        0.044      353.466       36.887      861.426
07/13/2014  16:31:00     -218.986     -142.845        9.076      153.105      123.220       68.177    23441.058    15183.260     4648.127        5.585        2.164      261.457       71.940        0.076      353.732       37.356      861.428
07/13/2014  16:32:00     -397.017     -240.976      -10.618      179.271      146.883       77.345    32138.031    21574.661     5982.213       13.774        2.985      464.427       85.517        0.034      353.271       36.545      861.444
07/13/2014  16:33:00     -254.189      -91.779      -15.103      124.108      134.635       59.647    15402.735    18126.535     3557.725        5.517        1.854      270.251       53.294        0.039      353.338       36.663      861.451
07/13/2014  16:34:00     -235.309      -79.486      -11.544      126.282      142.855       58.893    15947.212    20407.531     3468.444        5.081        1.991      248.371       65.645        0.070      353.529       36.999      861.426
07/13/2014  16:35:00     -320.018     -133.996       -8.378      144.891      120.070       67.500    20993.324    14416.727     4556.314        8.019        1.998      346.939       70.740        0.042      353.359       36.700      861.406
07/13/2014  16:36:00     -224.252     -160.349        0.837      134.751       85.392       63.847    18157.902     7291.723     4076.472        5.276        1.476      275.682       64.792        0.055      353.292       36.583      861.390
07/13/2014  16:37:00      -35.595     -121.669       -0.536       65.203       64.848       52.460     4251.485     4205.251     2752.015        1.364        0.560      126.769       36.437        0.083      353.411       36.795      861.344
07/13/2014  16:38:00     -154.698      -32.472      -22.272       52.199       68.249       24.628     2724.773     4657.903      606.553        1.673        0.399      158.069       21.112        0.018      353.262       36.533      861.342
07/13/2014  16:39:00     -125.392        9.562       -3.096       44.662       57.286       28.566     1994.725     3281.636      816.014        1.096        0.305      125.756       31.101        0.061      353.359       36.704      861.374
07/13/2014  16:40:00      -97.258      -12.829      -10.005       76.113       62.181       31.148     5793.162     3866.510      970.221        1.017        0.531       98.100       33.771        0.119      353.629       37.178      861.363
07/13/2014  16:41:00     -334.586      -85.800      -19.670      194.693      118.287       63.798    37905.369    13991.723     4070.233        8.782        2.798      345.412       63.352        0.034      353.657       37.225      861.373
07/13/2014  16:42:00     -390.972     -125.413      -31.367      186.509      132.229       70.784    34785.783    17484.548     5010.388       11.341        2.864      410.594       79.877        0.038      353.478       36.908      861.360
07/13/2014  16:43:00     -299.431      -97.340       -1.358      146.582      110.916       75.730    21486.340    12302.438     5735.058        6.932        1.976      314.856       64.181        0.042      353.581       37.090      861.392
07/13/2014  16:44:00     -295.538       50.919      -19.345      153.923      141.006       72.902    23692.250    19882.669     5314.705        6.959        2.444      299.893       90.528        0.091      353.639       37.193      861.403
07/13/2014  16:45:00     -227.379       48.004       -5.560      146.091      101.292       50.396    21342.703    10260.038     2539.795        4.408        1.707      232.391       55.390        0.057      353.656       37.223      861.400
07/13/2014  16:46:00     -276.106      -80.588      -12.769      132.201      138.795       69.832    17477.068    19263.971     4876.497        6.225        2.081      287.626       56.640        0.039      353.560       37.053      861.389
07/13/2014  16:47:00     -258.324      -30.087      -31.337      126.777      102.101       60.930    16072.329    10424.591     3712.469        4.941        1.510      260.070       45.165        0.030      353.558       37.050      861.406
07/13/2014  16:48:00     -201.533      -71.341      -24.393      118.298       89.962       59.585    13994.412     8093.143     3550.322        3.596        1.282      213.787       52.648        0.061      353.546       37.029      861.406
07/13/2014  16:49:00     -374.505     -161.607      -35.593      102.996      132.855       66.640    10608.120    17650.561     4440.951       10.016        1.635      407.886       48.667        0.014      353.355       36.693      861.391
07/13/2014  16:50:00     -346.396      -94.442      -29.596      151.892      110.176       70.639    23071.249    12138.777     4989.914        8.498        2.010      359.040       73.528        0.042      353.544       37.026      861.391
07/13/2014  16:51:00     -425.351     -152.733      -14.445      253.957      150.609       90.446    64494.056    22683.183     8180.568       14.989        4.768      451.941      108.741        0.058      353.461       36.881      861.382
07/13/2014  16:52:00     -305.793     -112.612        4.521      221.787      136.902       79.242    49189.605    18742.202     6279.300        9.020        3.711      325.870      101.801        0.098      353.432       36.829      861.453
07/13/2014  16:53:00     -305.909      -65.279       -1.119      157.275      157.305       74.299    24735.475    24744.735     5520.322        7.641        2.750      312.796       73.920        0.056      353.382       36.742      861.443
07/13/2014  16:54:00     -194.121     -144.316       -6.116      138.831      138.240       64.582    19274.123    19110.416     4170.865        5.054        2.128      241.888       75.911        0.098      353.383       36.742      861.429
07/13/2014  16:55:00     -216.327      -56.558       -0.994      185.650      107.929       72.106    34465.917    11648.576     5199.260        5.065        2.566      223.598       93.303        0.174      353.616       37.152      861.439
07/13/2014  16:56:00     -170.095      -49.804       -5.469       97.202       86.339       47.213     9448.147     7454.419     2229.021        2.528        0.957      177.236       43.537        0.060      353.516       36.976      861.443
07/13/2014  16:57:00     -108.913     -133.345       -9.256       71.245       63.546       34.351     5075.892     4038.134     1179.970        2.001        0.515      172.171       27.443        0.025      353.425       36.817      861.450
07/13/2014  16:58:00     -151.228      -79.534        4.226      104.099       92.666       58.206    10836.561     8586.974     3387.907        2.601        1.141      170.867       66.827        0.153      353.493       36.936      861.457
07/13/2014  16:59:00     -124.398     -125.655       -5.805      100.372       75.528       53.795    10074.508     5704.464     2893.917        2.498        0.934      176.816       51.693        0.085      353.301       36.601      861.459
07/13/2014  17:00:00      -90.439        0.574       19.919      102.077       51.350       38.418    10419.807     2636.794     1475.934        1.155        0.727       90.441       54.339        0.361      353.379       36.739      861.447
07/13/2014  17:01:00     -328.774     -117.395      -14.739       71.988       76.721       39.202     5182.343     5886.063     1536.770        6.735        0.630      349.104       26.434        0.006      353.270       36.542      861.422
07/13/2014  17:02:00     -399.257      -16.540      -32.654      100.800      109.744       63.371    10160.561    12043.674     4015.908        9.348        1.311      399.599       56.630        0.020      353.333       36.655      861.414
07/13/2014  17:03:00     -334.007      -50.266      -16.742      119.319      126.141       58.042    14237.022    15911.505     3368.833        7.394        1.676      337.768       53.713        0.025      353.469       36.894      861.413
07/13/2014  17:04:00     -376.122      -76.831      -17.957      137.468       92.297       65.659    18897.488     8518.792     4311.105        8.970        1.586      383.889       60.383        0.025      353.354       36.692      861.413
07/13/2014  17:05:00     -382.112     -187.661       -5.989      141.438       71.375       60.030    20004.620     5094.390     3603.625       10.498        1.435      425.707       67.952        0.025      353.101       36.248      861.446
07/13/2014  17:06:00     -194.795     -117.902       -6.347      103.082       85.426       58.200    10625.893     7297.646     3387.294        3.659        1.066      227.697       54.046        0.056      353.338       36.664      861.443
07/13/2014  17:07:00     -227.858     -120.800        7.605      135.871      109.086       74.401    18460.988    11899.740     5535.472        5.123        1.795      257.899       71.311        0.076      353.319       36.630      861.437
07/13/2014  17:08:00     -353.151     -160.857      -14.876      162.142      150.469       72.081    26289.898    22641.043     5195.734       10.246        2.706      388.060       76.026        0.038      353.257       36.520      861.434
07/13/2014  17:09:00     -154.803      -97.364       12.072      117.761      103.339       58.388    13867.758    10678.961     3409.177        3.077        1.398      182.877       57.745        0.100      353.326       36.644      861.417
07/13/2014  17:10:00     -234.197     -197.738        4.909      192.745      145.814       63.273    37150.552    21261.594     4003.483        7.818        3.121      306.510       76.398        0.062      353.382       36.741      861.421
07/13/2014  17:11:00     -518.951     -261.354      -12.833      253.832      236.851      119.636    64430.797    56098.219    14312.845       23.628        6.742      581.047      140.430        0.058      353.155       36.343      861.372
07/13/2014  17:12:00     -578.836     -279.848      -40.031      249.534      252.202      110.626    62267.238    63605.744    12238.059       27.651        6.906      642.935      111.263        0.030      353.068       36.190      861.380
07/13/2014  17:13:00     -314.078      -61.525        8.543      237.187      136.300       85.906    56257.502    18577.664     7379.899        9.234        4.111      320.047      102.323        0.102      353.209       36.437      861.404
07/13/2014  17:14:00     -345.320     -137.374       -4.433      235.323      164.903       93.057    55376.927    27192.981     8659.546       11.466        4.561      371.641      100.297        0.073      353.209       36.439      861.413
07/13/2014  17:15:00     -362.849     -153.450        3.064      265.886      210.895      111.697    70695.421    44476.637    12476.153       14.141        6.382      393.962      135.308        0.118      353.181       36.387      861.385
07/13/2014  17:16:00     -429.608     -327.608        9.411      288.739      201.487      139.791    83370.166    40597.168    19541.528       21.772        7.175      540.268      159.009        0.087      353.031       36.126      861.361
07/13/2014  17:17:00     -307.892     -267.952        5.212      227.557      193.601      120.161    51782.267    37481.347    14438.728       13.514        5.185      408.161      123.815        0.092      353.136       36.308      861.347
07/13/2014  17:18:00     -273.892     -180.641       -0.268      271.052      180.038      103.851    73469.281    32413.542    10785.051       11.213        5.833      328.097      108.261        0.109      353.325       36.642      861.409
07/13/2014  17:19:00     -478.294     -286.371      -18.894      261.448      205.409      118.464    68355.253    42193.024    14033.602       21.783        6.229      557.471      130.395        0.055      352.979       36.035      861.423
07/13/2014  17:20:00     -417.217     -297.265       -7.602      343.132      202.201      118.212   117739.398    40885.111    13974.163       21.751        8.630      512.286      156.467        0.093      352.878       35.856      861.428
07/13/2014  17:21:00     -551.853     -289.376      -16.428      312.647      204.036      117.310    97748.126    41630.865    13761.635       27.081        7.657      623.121      142.659        0.052      352.785       35.693      861.424
07/13/2014  17:22:00     -571.664     -269.177      -22.448      256.043      180.647      109.581    65558.150    32633.231    12007.912       25.496        5.510      631.867      114.384        0.033      352.815       35.747      861.387
07/13/2014  17:23:00     -488.426     -296.191      -14.220      257.707      224.283      112.936    66412.919    50302.676    12754.571       22.795        6.474      571.217      114.753        0.040      352.883       35.865      861.411
07/13/2014  17:24:00     -491.223     -184.201      -26.475      242.722      186.657       93.290    58913.799    34840.767     8702.981       18.917        5.123      524.624      101.810        0.038      352.900       35.895      861.435
07/13/2014  17:25:00     -472.969     -218.479      -18.470      262.683      207.112      112.025    69002.491    42895.540    12549.606       19.809        6.222      520.992      136.769        0.069      352.879       35.859      861.422
07/13/2014  17:26:00     -398.078     -195.626        0.362      251.690      223.013      129.693    63348.095    49734.639    16820.303       16.329        6.495      443.549      140.733        0.101      352.897       35.891      861.406
07/13/2014  17:27:00     -470.830     -241.078      -19.694      249.419      229.262      106.001    62210.070    52560.897    11236.127       20.307        6.300      528.961      118.085        0.050      352.827       35.767      861.407
07/13/2014  17:28:00     -557.134     -248.719      -40.338      215.526      198.783       87.181    46451.530    39514.549     7600.573       23.371        4.678      610.131       91.080        0.022      352.752       35.636      861.427
07/13/2014  17:29:00     -452.497     -190.379      -12.498      222.209      182.454      109.204    49376.806    33289.543    11925.605       16.785        4.730      490.915      116.946        0.057      352.816       35.749      861.440
07/13/2014  17:30:00     -446.419     -238.329        4.194      261.594      200.593      104.614    68431.179    40237.355    10944.078       18.784        5.981      506.054      131.895        0.068      352.877       35.855      861.420
07/13/2014  17:31:00     -455.731     -254.203       -2.079      257.980      165.829       99.609    66553.850    27499.113     9922.006       18.812        5.199      521.834      113.782        0.048      352.826       35.765      861.426
07/13/2014  17:32:00     -528.694     -276.890      -14.993      208.235      157.088       88.485    43361.900    24676.765     7829.531       21.612        3.793      596.813       91.257        0.023      352.791       35.705      861.417
07/13/2014  17:33:00     -474.637     -168.139      -15.697      196.779      173.563       74.273    38722.070    30124.153     5516.504       16.406        3.718      503.538       85.091        0.029      352.842       35.793      861.402
07/13/2014  17:34:00     -472.443      -36.984      -21.186      225.757      183.234      102.857    50966.019    33574.660    10579.658       16.005        4.756      473.889      109.631        0.054      352.988       36.050      861.426
07/13/2014  17:35:00     -441.328      -92.106       -6.901      222.379      182.389       92.401    49452.358    33265.707     8537.956       14.726        4.563      450.837       91.406        0.041      352.908       35.909      861.420
07/13/2014  17:36:00     -566.399     -117.600      -40.513      190.440      135.089       89.880    36267.432    18248.964     8078.471       19.942        3.130      578.479       86.867        0.023      352.854       35.815      861.393
07/13/2014  17:37:00     -482.994       -2.679      -15.681      217.321      171.826       91.298    47228.588    29524.237     8335.340       15.929        4.254      483.001       92.574        0.037      352.836       35.786      861.353
07/13/2014  17:38:00     -391.341      -86.234       -2.399      232.180      165.911      104.026    53907.611    27526.327    10821.405       12.640        4.613      400.729       99.877        0.062      352.946       35.976      861.355
07/13/2014  17:39:00     -203.179     -108.537        1.180      198.325      138.916       82.231    39332.750    19297.722     6761.971        5.922        3.270      230.352       87.708        0.145      353.023       36.112      861.364
07/13/2014  17:40:00     -271.247     -117.262        3.546      203.275      144.436       78.051    41320.678    20861.747     6091.895        7.779        3.414      295.509       85.982        0.085      353.008       36.086      861.375
07/13/2014  17:41:00     -535.226     -274.122      -24.135      224.728      161.752       95.682    50502.736    26163.610     9155.051       22.399        4.291      601.339      114.331        0.036      352.789       35.701      861.368
07/13/2014  17:42:00     -496.385     -117.032      -25.063      207.683      194.265       91.284    43132.199    37738.792     8332.807       17.495        4.460      509.994       91.692        0.032      352.822       35.758      861.345
07/13/2014  17:43:00     -364.099     -111.796        5.350      202.203      197.526       96.223    40886.104    39016.551     9258.841       11.711        4.458      380.876      104.273        0.075      352.831       35.774      861.343
07/13/2014  17:44:00     -298.106     -184.434       -5.108      158.147      154.371       81.280    25010.432    23830.308     6606.431        8.917        2.772      350.547       84.679        0.058      352.844       35.797      861.347
07/13/2014  17:45:00     -288.455     -208.376        7.261      191.397      137.835       90.932    36632.873    18998.391     8268.652        9.528        3.195      355.847      101.251        0.081      352.866       35.836      861.343
07/13/2014  17:46:00     -400.322     -166.713       -5.173      269.583      180.969      107.373    72674.729    32749.872    11528.894       15.249        5.848      433.648      131.018        0.091      352.785       35.695      861.353
07/13/2014  17:47:00     -368.581      -60.319      -26.414      154.519      171.106       74.474    23876.135    29277.120     5546.321        9.943        2.935      373.484       67.523        0.033      352.915       35.922      861.353
07/13/2014  17:48:00     -472.920     -102.830      -14.860      171.425      148.145       87.774    29386.483    21946.981     7704.225       14.673        2.952      483.971       79.799        0.027      352.891       35.879      861.350
07/13/2014  17:49:00     -367.992     -182.836       -3.931      220.770      149.512       82.856    48739.583    22353.744     6865.087       12.339        3.898      410.910      101.371        0.061      352.898       35.891      861.374
07/13/2014  17:50:00     -311.970     -160.966      -11.746      182.595      147.303       69.276    33340.931    21698.157     4799.102        9.159        2.992      351.049       81.469        0.054      352.876       35.854      861.365
07/13/2014  17:51:00     -504.304     -311.314      -21.630      221.608      192.317      103.201    49109.916    36985.982    10650.411       22.421        4.837      592.654      110.012        0.034      352.654       35.464      861.347
07/13/2014  17:52:00     -336.828     -148.229       12.927      215.909      155.087       86.786    46616.493    24051.986     7531.847       10.688        3.910      368.001      105.847        0.083      352.731       35.600      861.344
07/13/2014  17:53:00     -445.073     -346.940      -28.641      244.811      197.219      118.869    59932.373    38895.329    14129.779       21.610        5.648      564.321      133.094        0.056      352.636       35.434      861.298
07/13/2014  17:54:00     -365.091     -186.342        2.586      203.113      201.377       86.370    41254.939    40552.579     7459.741       12.863        4.463      409.896       99.056        0.058      352.714       35.570      861.302
07/13/2014  17:55:00     -401.764     -119.010      -26.434      219.699      155.479       73.494    48267.581    24173.650     5401.429       12.704        3.892      419.020       85.888        0.042      352.773       35.674      861.328
07/13/2014  17:56:00     -507.958       66.883      -49.873      220.405      143.548       84.391    48578.486    20605.931     7121.915       17.063        3.815      512.342       97.836        0.036      352.888       35.874      861.356
07/13/2014  17:57:00     -374.801     -103.708      -18.760      250.212      169.700       90.830    62606.127    28798.036     8250.171       12.560        4.983      388.884      109.716        0.080      352.808       35.735      861.343
07/13/2014  17:58:00     -417.413      -44.071       -6.259      265.791      158.704       74.223    70644.874    25187.006     5508.981       13.876        5.067      419.733       93.720        0.050      352.836       35.784      861.353
07/13/2014  17:59:00     -566.948     -128.129       -8.584      334.907      248.190      152.658   112162.685    61598.211    23304.422       26.745        9.853      581.246      186.149        0.103      352.641       35.442      861.365
07/13/2014  18:00:00     -558.071      -10.076      -21.552      256.405      164.992      115.881    65743.436    27222.402    13428.447       20.918        5.320      558.162      119.897        0.046      352.659       35.474      861.351
07/13/2014  18:01:00     -351.482      -49.997      -14.598      170.028      123.284       77.242    28909.426    15198.912     5966.387        8.815        2.504      355.020       76.546        0.046      352.805       35.727      861.381
07/13/2014  18:02:00     -167.842      -58.878       28.663      207.424      188.129       97.945    43024.686    35392.531     9593.228        6.022        4.401      177.870      104.020        0.342      352.755       35.643      861.399
07/13/2014  18:03:00     -512.048     -112.619      -28.329      293.087      177.726       86.564    85899.955    31586.386     7493.344       20.030        6.249      524.286      109.582        0.044      352.617       35.401      861.411
07/13/2014  18:04:00     -679.616      -36.890      -38.942      238.893      205.842       94.709    57069.858    42370.849     8969.798       28.656        5.421      680.617      102.042        0.022      352.529       35.246      861.362
07/13/2014  18:05:00     -428.998      -29.226      -22.153      189.936      119.767       77.276    36075.516    14344.080     5971.638       12.088        2.820      429.993       82.802        0.037      352.744       35.621      861.405
07/13/2014  18:06:00     -464.139      -98.711      -13.653      199.786      136.181       81.967    39914.276    18545.367     6718.663       14.525        3.259      474.520       87.855        0.034      352.712       35.568      861.416
07/13/2014  18:07:00     -428.650      -94.937      -17.217      226.062      181.561       97.243    51104.164    32964.370     9456.162       14.327        4.676      439.037      111.944        0.065      352.704       35.552      861.417
07/13/2014  18:08:00     -547.415      -67.576      -29.279      237.718      180.081       95.492    56509.653    32429.283     9118.708       20.155        4.903      551.570       93.054        0.028      352.647       35.454      861.400
07/13/2014  18:09:00     -648.578      -40.185      -48.153      223.078      226.524      102.342    49763.944    51312.946    10473.846       26.805        5.578      649.822       85.488        0.017      352.535       35.255      861.402
07/13/2014  18:10:00     -499.860     -134.235      -22.110      215.488      176.580       92.049    46435.084    31180.490     8473.015       17.721        4.304      517.570       94.482        0.033      352.573       35.323      861.442
07/13/2014  18:11:00     -342.603      -92.124       18.606      236.600      203.782      115.390    55979.732    41526.969    13314.913       11.849        5.541      354.773      130.025        0.134      352.526       35.241      861.451
07/13/2014  18:12:00     -406.407      -21.045        0.904      194.005      135.371       81.088    37637.811    18325.244     6575.303       11.406        3.127      406.951       96.910        0.057      352.533       35.253      861.460
07/13/2014  18:13:00     -276.723      -70.286       13.811      253.528      184.006       95.192    64276.447    33858.264     9061.523        9.443        5.360      285.510      124.593        0.190      352.563       35.307      861.467
07/13/2014  18:14:00     -549.617       -4.706      -30.204      206.476      134.555       76.911    42632.237    18104.999     5915.281       18.482        3.333      549.637       90.233        0.027      352.531       35.248      861.447
07/13/2014  18:15:00     -430.568      -69.754      -24.620      266.784      123.861       87.605    71173.542    15341.443     7674.652       14.251        4.709      436.182      121.010        0.077      352.567       35.312      861.446
07/13/2014  18:16:00     -436.286     -200.992       10.117      227.311      232.162      107.213    51670.375    53899.385    11494.633       17.393        5.853      480.358      116.693        0.059      352.468       35.138      861.454
07/13/2014  18:17:00     -367.243     -300.650       -1.785      268.099      240.514      121.451    71877.155    57847.045    14750.265       18.484        7.224      474.613      124.363        0.069      352.462       35.129      861.415
07/13/2014  18:18:00     -416.420     -143.413      -26.807      213.260      165.346       80.078    45479.714    27339.265     6412.418       13.695        3.962      440.424       81.273        0.034      352.554       35.289      861.460
07/13/2014  18:19:00     -274.081      -82.399        0.882      184.698      119.066       71.693    34113.385    14176.827     5139.887        6.766        2.672      286.199       91.417        0.102      352.744       35.624      861.485
07/13/2014  18:20:00     -376.183       24.650      -10.091      236.179      137.782       85.359    55780.683    18983.802     7286.087       11.212        4.103      376.990      103.137        0.075      352.648       35.454      861.480
07/13/2014  18:21:00     -270.376     -171.965       11.998      308.333      210.906      110.569    95068.994    44481.290    12225.611       12.727        7.589      320.430      137.001        0.183      352.650       35.457      861.469
07/13/2014  18:22:00     -326.370      -86.535       21.536      281.403      196.243      126.521    79187.919    38511.163    16007.454       12.406        6.685      337.648      143.609        0.181      352.498       35.191      861.443
07/13/2014  18:23:00     -502.844     -136.627      -26.189      276.063      207.991       90.705    76211.026    43260.213     8227.465       19.993        6.385      521.075      109.075        0.044      352.442       35.096      861.487
07/13/2014  18:24:00     -331.410      -45.759        8.679      209.969      170.087       85.366    44087.115    28929.475     7287.310        9.614        4.015      334.554       92.194        0.076      352.480       35.161      861.501
07/13/2014  18:25:00     -233.892     -210.668       23.154      226.586      184.249       93.338    51341.321    33947.649     8711.943        9.679        4.700      314.780      103.484        0.108      352.417       35.051      861.483
07/13/2014  18:26:00     -271.426        3.138      -24.147      186.344      137.158       73.468    34724.217    18812.329     5397.474        6.659        2.947      271.445       61.454        0.051      352.513       35.218      861.496
07/13/2014  18:27:00     -452.585      -52.584      -37.338      224.101      174.753       85.349    50221.230    30538.703     7284.405       14.850        4.402      455.630       91.764        0.041      352.466       35.134      861.500
07/13/2014  18:28:00     -698.461       39.211      -56.043      260.419      209.302       92.220    67817.874    43807.478     8504.566       30.630        6.006      699.560       92.559        0.018      352.354       34.939      861.466
07/13/2014  18:29:00     -600.767       51.861      -45.354      236.959      195.647      100.801    56149.668    38277.775    10160.936       23.511        5.229      603.001      110.618        0.034      352.358       34.947      861.462
07/13/2014  18:30:00     -362.357      -20.061      -13.049      194.926      158.133       90.291    37996.090    25006.169     8152.393       10.150        3.558      362.912       92.634        0.065      352.465       35.133      861.518
07/13/2014  18:31:00     -416.730      -80.579      -29.497      217.588      152.048       95.593    47344.576    23118.631     9138.051       13.030        3.980      424.449      114.895        0.073      352.339       34.912      861.521
07/13/2014  18:32:00     -242.308     -175.322       -3.264      237.143      168.328       91.405    56236.696    28334.293     8354.941        9.118        4.646      299.084      110.263        0.136      352.299       34.844      861.538
07/13/2014  18:33:00     -483.336     -133.058       -1.377      315.164      215.952      131.322    99328.394    46635.328    17245.409       20.723        8.160      501.316      151.307        0.091      352.256       34.769      861.494
07/13/2014  18:34:00     -373.358     -117.034      -14.973      201.905      146.551       96.241    40765.766    21477.302     9262.399       11.240        3.575      391.271       91.669        0.055      352.284       34.816      861.537
07/13/2014  18:35:00     -447.589     -100.705      -15.565      216.746      184.691       99.477    46978.784    34110.816     9895.731       15.083        4.549      458.779      100.039        0.048      352.254       34.765      861.583
07/13/2014  18:36:00     -590.049     -114.012      -50.481      265.437      192.457       97.343    70456.961    37039.813     9475.588       24.032        5.849      600.963      117.787        0.038      352.131       34.549      861.558
07/13/2014  18:37:00     -344.485      -46.461       -3.636      226.055      157.002       97.762    51100.641    24649.771     9557.430       10.306        4.265      347.604      115.346        0.110      352.160       34.600      861.576
07/13/2014  18:38:00     -597.869      -93.830      -38.407      207.600      160.150       84.860    43097.759    25647.968     7201.303       22.182        3.797      605.187       86.487        0.020      352.126       34.539      861.593
07/13/2014  18:39:00     -465.732      -85.446      -15.772      185.624      162.604       85.378    34456.332    26439.935     7289.350       14.631        3.409      473.506       84.855        0.032      352.196       34.663      861.583
07/13/2014  18:40:00     -405.338      -52.286      -11.874      154.394      124.891       73.436    23837.595    15597.814     5392.860       10.599        2.241      408.696       72.193        0.031      352.231       34.723      861.615
07/13/2014  18:41:00     -376.372     -147.667       -3.446      166.247      186.692       81.204    27638.024    34854.023     6594.079       11.627        3.454      404.304       78.329        0.038      352.193       34.659      861.626
07/13/2014  18:42:00     -509.785       33.708      -23.273      325.937      135.019       97.198   106234.711    18230.103     9447.394       19.771        6.696      510.898      137.400        0.072      352.150       34.585      861.618
07/13/2014  18:43:00     -444.763      -83.039       -5.656      202.902      160.812       83.324    41169.115    25860.508     6942.877       13.934        3.699      452.448       85.003        0.035      352.143       34.569      861.631
07/13/2014  18:44:00     -336.110      -62.037        4.119      155.441      155.238       96.892    24161.919    24098.907     9388.020        8.723        2.882      341.787       95.713        0.078      352.121       34.531      861.632
07/13/2014  18:45:00     -333.400      -63.558       -5.807      209.628      195.301      100.925    43943.785    38142.528    10185.809       10.373        4.614      339.405       86.713        0.065      352.138       34.561      861.633
07/13/2014  18:46:00     -470.964      -62.532      -12.307      236.975      210.555      116.071    56157.321    44333.593    13472.470       16.989        5.698      475.097      124.273        0.068      352.060       34.424      861.623
07/13/2014  18:47:00     -567.504     -109.600      -13.221      264.196      172.491      106.410    69799.770    29753.205    11323.173       22.254        5.544      577.990      110.912        0.037      352.017       34.350      861.622
07/13/2014  18:48:00     -675.481     -189.642      -41.171      242.974      245.886      117.619    59036.284    60459.725    13834.175       31.361        6.667      701.597      119.338        0.029      351.946       34.225      861.614
07/13/2014  18:49:00     -348.246     -150.931       -9.660      224.939      186.450      104.436    50597.540    34763.463    10906.841       12.019        4.813      379.546       96.747        0.065      352.030       34.373      861.634
07/13/2014  18:50:00     -237.505     -141.778       11.237      191.034      156.020       78.380    36494.103    24342.381     6143.380        7.179        3.349      276.604       92.315        0.111      352.084       34.469      861.627
07/13/2014  18:51:00     -350.141      -92.362       -8.583      179.375      159.083       81.195    32175.350    25307.406     6592.695        9.763        3.204      362.118       80.019        0.049      352.107       34.509      861.640
07/13/2014  18:52:00     -387.719     -187.517      -10.102      269.045      160.926       88.533    72385.131    25897.135     7838.123       14.583        5.306      430.684       97.361        0.051      352.041       34.392      861.653
07/13/2014  18:53:00     -570.852      -78.129      -44.984      215.131      156.395       80.521    46281.463    24459.478     6483.584       20.560        3.861      576.173       75.529        0.017      352.000       34.321      861.647
07/13/2014  18:54:00     -373.984      -94.307       20.759      360.770      181.288      105.101   130155.239    32865.436    11046.206       16.159        8.703      385.691      145.299        0.142      351.987       34.299      861.626
07/13/2014  18:55:00     -463.955     -130.674      -11.553      279.671      224.689      100.955    78215.844    50485.357    10191.978       18.565        6.945      482.006      113.314        0.055      352.005       34.328      861.616
07/13/2014  18:56:00     -457.449     -117.942       -4.591      250.711      151.161      101.592    62856.181    22849.680    10320.982       15.959        4.801      472.408      123.939        0.069      351.973       34.273      861.622
07/13/2014  18:57:00     -485.496     -273.714       -4.894      265.004      230.532      114.289    70227.376    53144.849    13061.862       22.351        6.822      557.338      124.800        0.050      351.919       34.179      861.640
07/13/2014  18:58:00     -691.424     -266.300      -34.826      270.736      231.950      117.903    73298.246    53800.834    13901.057       34.557        7.050      740.934      124.200        0.028      351.837       34.035      861.627
07/13/2014  18:59:00     -421.581     -206.333      -13.196      256.650      185.702      112.307    65869.355    34485.357    12612.827       16.670        5.648      469.365      125.497        0.071      351.911       34.164      861.635
07/13/2014  19:00:00     -341.244     -212.393       -5.030      250.247      178.430      112.534    62623.772    31837.315    12663.837       13.433        5.356      401.943      123.957        0.095      351.894       34.135      861.646
07/13/2014  19:01:00     -373.480      -49.024      -18.341      216.846      165.857       81.876    47022.397    27508.551     6703.740       11.171        4.062      376.684       86.858        0.053      351.932       34.203      861.661
07/13/2014  19:02:00     -291.124     -179.874       18.081      228.497      163.020      108.247    52210.831    26575.369    11717.372       10.395        4.525      342.210      132.990        0.151      351.931       34.201      861.658
07/13/2014  19:03:00     -437.611     -178.462      -22.351      240.556      173.847      105.030    57866.971    30222.758    11031.369       16.147        4.956      472.601      122.639        0.067      351.908       34.159      861.672
07/13/2014  19:04:00     -407.047     -168.430       16.796      231.302      185.636      109.084    53500.457    34460.898    11899.295       14.708        4.993      440.518      115.959        0.069      351.915       34.172      861.665
07/13/2014  19:05:00     -468.141     -301.977        9.010      290.874      182.843      119.138    84607.491    33431.721    14193.947       22.130        6.612      557.088      145.659        0.068      351.839       34.039      861.672
07/13/2014  19:06:00     -373.567     -236.744       -2.496      248.918      240.608      121.125    61960.268    57892.217    14671.179       16.504        6.726      442.267      147.615        0.111      351.857       34.071      861.669
07/13/2014  19:07:00     -506.345     -310.818       -0.117      252.421      196.265      104.834    63716.160    38519.939    10990.127       23.309        5.661      594.132      125.223        0.044      351.825       34.013      861.653
07/13/2014  19:08:00     -463.361      -22.601       -0.339      311.219      206.214      112.565    96857.176    42524.377    12670.947       18.360        7.603      463.912      147.559        0.101      351.834       34.030      861.656
07/13/2014  19:09:00     -447.655      -70.343      -10.173      207.731      210.166       98.990    43152.223    44169.797     9799.057       15.126        4.856      453.148      105.531        0.054      351.850       34.058      861.662
07/13/2014  19:10:00     -450.302     -207.155      -14.804      247.277      176.204       93.529    61145.690    31047.824     8747.660       17.340        5.047      495.666       96.862        0.038      351.831       34.024      861.642
07/13/2014  19:11:00     -277.777     -168.079        0.516      210.882      169.216       97.051    44471.240    28634.016     9418.809        9.395        4.126      324.671      102.826        0.100      351.853       34.063      861.658
07/13/2014  19:12:00     -388.589     -263.233       -9.880      202.224      173.810       95.687    40894.693    30209.974     9155.961       15.031        4.013      469.354       87.090        0.034      351.817       34.001      861.652
07/13/2014  19:13:00     -227.635     -124.635       20.146      212.120      155.562       82.930    44994.789    24199.611     6877.460        7.190        3.804      259.522      102.206        0.155      351.804       33.979      861.641
07/13/2014  19:14:00     -469.485     -157.995      -10.204      232.665      173.842       90.510    54133.196    30221.186     8192.044       16.900        4.627      495.357      103.922        0.044      351.798       33.968      861.619
07/13/2014  19:15:00     -389.303     -119.301       -9.057      184.188      184.224       80.091    33925.105    33938.485     6414.491       12.006        3.714      407.172       84.636        0.043      351.796       33.963      861.622
07/13/2014  19:16:00     -336.857     -129.806      -13.072      170.684      149.655       72.811    29132.925    22396.649     5301.396        9.365        2.842      361.001       93.475        0.067      351.831       34.026      861.629
07/13/2014  19:17:00     -425.635     -189.077       -0.143      210.421      171.854       85.541    44276.830    29533.756     7317.221       14.901        4.056      465.742      100.614        0.047      351.789       33.950      861.620
07/13/2014  19:18:00     -350.408     -160.724       -8.494      219.828      168.395       99.650    48324.138    28357.020     9930.109       11.763        4.331      385.510      108.422        0.079      351.775       33.928      861.593
07/13/2014  19:19:00     -345.442     -129.663      -17.146      154.361      202.437       84.671    23827.410    40980.567     7169.160       10.419        3.599      368.975       88.945        0.058      351.779       33.934      861.581
07/13/2014  19:20:00     -267.241      -99.738       19.373      243.627      195.950      111.031    59353.922    38396.303    12327.787        9.589        5.504      285.246      134.296        0.222      351.796       33.965      861.567
07/13/2014  19:21:00     -519.863     -306.150      -13.781      289.971      228.792      106.531    84083.406    52345.740    11348.956       25.595        7.389      603.312      139.376        0.053      351.720       33.834      861.579
07/13/2014  19:22:00     -556.075     -257.764       -9.009      299.998      190.340      119.633    89998.795    36229.245    14312.015       25.811        7.027      612.912      130.561        0.045      351.688       33.778      861.554
07/13/2014  19:23:00     -291.222     -181.386       -8.082      222.863      159.407       93.540    49667.914    25410.679     8749.642       10.079        4.191      343.091      103.839        0.092      351.725       33.843      861.573
07/13/2014  19:24:00     -305.142     -117.233        9.829      223.933      173.355       85.469    50145.848    30051.858     7304.940        9.721        4.375      326.887       95.124        0.085      351.726       33.845      861.573
07/13/2014  19:25:00     -390.863     -148.924        4.169      228.814      195.363      104.949    52355.632    38166.634    11014.239       13.823        5.077      418.273      114.347        0.075      351.679       33.761      861.570
07/13/2014  19:26:00     -490.770     -148.798      -31.031      268.641      187.749      103.670    72168.047    35249.528    10747.500       19.104        5.908      512.831      115.052        0.050      351.688       33.777      861.577
07/13/2014  19:27:00     -628.307     -353.712      -32.390      221.197      197.340      113.636    48928.063    38942.895    12913.253       31.084        5.039      721.029      101.813        0.020      351.630       33.677      861.562
07/13/2014  19:28:00     -377.482     -130.402        0.568      202.268      175.483       75.911    40912.450    30794.214     5762.463       11.847        3.873      399.371       88.175        0.049      351.652       33.716      861.575
07/13/2014  19:29:00     -662.131     -135.743      -40.842      309.567      165.961      104.077    95832.029    27542.912    10832.052       29.633        6.710      675.902      143.806        0.045      351.603       33.632      861.589
07/13/2014  19:30:00     -245.379     -138.099       10.356      237.457      176.378       94.465    56385.848    31109.154     8923.671        8.788        4.821      281.571      111.756        0.158      351.623       33.666      861.595
07/13/2014  19:31:00     -420.420     -179.153      -23.327      145.724      125.037       69.542    21235.451    15634.211     4836.036       12.554        2.085      457.000       72.954        0.025      351.613       33.648      861.594
07/13/2014  19:32:00     -488.894      -54.564      -39.148      279.268      141.402       95.655    77990.539    19994.390     9149.909       17.531        5.357      491.930      122.441        0.062      351.585       33.600      861.595
07/13/2014  19:33:00     -501.748     -145.709      -25.879      198.382      195.560      100.302    39355.226    38243.771    10060.477       18.064        4.383      522.477       95.993        0.034      351.588       33.604      861.591
07/13/2014  19:34:00     -452.379     -196.969      -16.798      287.255      212.242      105.140    82515.670    45046.853    11054.517       19.114        6.931      493.400      114.309        0.054      351.596       33.619      861.588
07/13/2014  19:35:00     -363.761     -186.531       17.498      365.014      190.610      146.225   133235.009    36332.103    21381.636       17.915        9.547      408.798      192.103        0.221      351.557       33.550      861.596
07/13/2014  19:36:00     -317.113     -167.636        4.882      194.289      187.028      105.844    37748.314    34979.582    11202.862       10.629        4.197      358.696      103.862        0.084      351.576       33.584      861.619
07/13/2014  19:37:00     -468.709      -88.917      -19.008      281.928      172.720       99.419    79483.117    29832.320     9884.092       17.355        5.960      477.069      108.372        0.052      351.571       33.574      861.655
07/13/2014  19:38:00     -424.695     -204.206      -19.981      193.925      210.384       99.360    37606.810    44261.445     9872.362       15.708        4.587      471.239       95.713        0.041      351.544       33.527      861.663
07/13/2014  19:39:00     -493.684     -148.902      -19.190      238.924      158.957       94.776    57084.910    25267.347     8982.465       17.878        4.567      515.650      100.247        0.038      351.512       33.471      861.694
07/13/2014  19:40:00     -261.343     -139.320       -5.754      196.292      183.659       91.843    38530.638    33730.677     8435.149        8.420        4.035      296.159      107.870        0.133      351.525       33.493      861.723
07/13/2014  19:41:00     -398.137       -8.600        2.694      351.199      175.960      102.974   123341.075    30961.995    10603.656       16.172        8.245      398.230      134.299        0.114      351.484       33.423      861.721
07/13/2014  19:42:00     -502.673     -133.233      -30.230      219.735      185.925      102.780    48283.482    34568.253    10563.812       18.236        4.671      520.031      110.345        0.045      351.469       33.397      861.728
07/13/2014  19:43:00     -338.405      -28.249        0.638      218.145      138.097       90.506    47587.421    19070.878     8191.325        9.507        3.742      339.582       96.103        0.080      351.472       33.401      861.749
07/13/2014  19:44:00     -365.600     -127.881       -1.263      160.736      170.579       89.641    25836.090    29097.261     8035.449       10.648        3.148      387.320       92.458        0.057      351.457       33.375      861.747
07/13/2014  19:45:00     -521.470     -119.276      -24.893      213.542      218.138       95.879    45600.302    47584.257     9192.836       19.456        5.119      534.937       94.167        0.031      351.450       33.362      861.733
07/13/2014  19:46:00     -421.566      -93.268      -18.662      308.451      173.953       80.290    95142.123    30259.606     6446.459       15.928        6.592      431.760      113.721        0.069      351.434       33.334      861.741
07/13/2014  19:47:00     -584.815     -160.881      -39.878      252.506      212.308      109.109    63759.245    45074.510    11904.854       24.509        6.037      606.540      118.977        0.038      351.418       33.306      861.732
07/13/2014  19:48:00     -450.495     -175.323      -18.614      261.864      193.586       94.788    68572.595    37475.732     8984.770       17.451        5.752      483.408      114.746        0.056      351.411       33.294      861.725
07/13/2014  19:49:00     -496.806      -38.808      -22.805      233.827      175.012       98.970    54675.277    30629.161     9795.060       17.195        4.755      498.320      109.144        0.048      351.386       33.250      861.724
07/13/2014  19:50:00     -366.028     -182.979        3.792      172.468      192.092       89.544    29745.066    36899.251     8018.183       12.105        3.733      409.216       79.345        0.038      351.390       33.258      861.724
07/13/2014  19:51:00     -308.688     -214.167       -2.516      220.798      216.031       93.947    48751.753    46669.210     8826.056       12.268        5.212      375.707      112.325        0.089      351.369       33.220      861.721
07/13/2014  19:52:00     -546.395     -207.832      -19.487      348.400      221.523      110.774   121382.286    49072.461    12270.942       26.239        9.136      584.587      145.784        0.062      351.361       33.207      861.690
07/13/2014  19:53:00     -482.962     -369.723      -34.758      241.272      192.017      109.899    58212.035    36870.502    12077.682       23.914        5.358      608.233      109.710        0.033      351.337       33.165      861.697
07/13/2014  19:54:00     -468.601     -250.671        0.091      294.442      221.254      116.041    86696.346    48953.537    13465.542       21.574        7.456      531.435      142.347        0.072      351.306       33.110      861.698
07/13/2014  19:55:00     -339.465     -103.301       10.089      214.577      144.590       97.169    46043.276    20906.143     9441.742       10.119        3.820      354.835      121.391        0.117      351.281       33.068      861.716
07/13/2014  19:56:00     -374.326     -149.470        0.339      258.101      169.764      103.466    66615.959    28819.931    10705.298       13.428        5.307      403.065      130.564        0.105      351.304       33.107      861.722
07/13/2014  19:57:00     -448.981     -119.460      -31.226      188.179      126.483       88.846    35411.388    15998.048     7893.564       13.805        2.965      464.602       83.557        0.032      351.292       33.086      861.732
07/13/2014  19:58:00     -342.835     -226.953        6.868      274.348      184.522      110.819    75266.947    34048.228    12280.797       14.532        6.080      411.150      137.283        0.111      351.245       33.005      861.735
07/13/2014  19:59:00     -437.787     -225.341       -3.929      255.303      189.193      104.483    65179.429    35794.003    10916.662       17.715        5.595      492.378      128.793        0.068      351.228       32.974      861.751
07/13/2014  20:00:00     -310.093     -122.929        8.968      195.758      167.508       87.796    38321.279    28059.046     7708.201        9.270        3.704      333.570       99.776        0.089      351.218       32.958      861.747
07/13/2014  20:01:00     -523.247     -283.113      -20.008      200.035      166.136      101.689    40014.106    27601.337    10340.734       21.613        3.898      594.929      100.483        0.029      351.249       33.010      861.757
07/13/2014  20:02:00     -297.814     -134.755        4.251      192.237      171.140       85.087    36955.161    29288.793     7239.837        9.016        3.674      326.882       96.586        0.087      351.219       32.960      861.773
07/13/2014  20:03:00     -475.890      -82.857      -23.981      246.479      161.985       88.691    60751.672    26239.145     7866.148       16.437        4.743      483.050      104.833        0.047      351.211       32.945      861.785
07/13/2014  20:04:00     -323.264     -148.637      -12.113      226.191      151.725       95.602    51162.305    23020.423     9139.747       10.501        4.166      355.799      110.128        0.096      351.170       32.872      861.790
07/13/2014  20:05:00     -341.511     -158.733      -14.355      124.746      123.798       70.114    15561.462    15325.870     4915.924        8.891        1.790      376.598       69.035        0.034      351.187       32.902      861.818
07/13/2014  20:06:00     -196.165      -67.237       11.488      183.985      126.471       89.211    33850.388    15994.916     7958.568        5.046        2.890      207.368       89.216        0.185      351.163       32.862      861.818
07/13/2014  20:07:00     -379.471     -242.885      -16.562      220.824      196.849      100.606    48763.160    38749.519    10121.467       15.043        4.882      450.546      106.802        0.056      351.160       32.855      861.834
07/13/2014  20:08:00     -361.180      -57.610      -14.531      217.210      166.759       86.614    47180.375    27808.490     7501.943       10.822        4.125      365.746      111.505        0.093      351.138       32.818      861.840
07/13/2014  20:09:00     -256.998      -46.978      -11.724      183.807      106.431       60.433    33784.975    11327.655     3652.133        5.857        2.438      261.256       65.872        0.064      351.116       32.780      861.857
07/13/2014  20:10:00     -558.975     -156.096      -16.860      230.418      185.896      104.814    53092.392    34557.417    10986.059       21.785        4.932      580.361      117.041        0.041      351.110       32.768      861.829
07/13/2014  20:11:00     -551.620      -98.884      -29.836      187.079      161.131       81.481    34998.457    25963.191     6639.114       19.126        3.380      560.413       69.528        0.015      351.105       32.759      861.859
07/13/2014  20:12:00     -457.003      -93.805       -9.210      214.179      187.913       96.145    45872.489    35311.413     9243.809       15.406        4.521      466.531       83.715        0.032      351.112       32.772      861.860
07/13/2014  20:13:00     -501.051     -172.974      -24.781      241.391      186.292      104.830    58269.379    34704.623    10989.431       19.275        5.198      530.068      129.786        0.060      351.086       32.726      861.878
07/13/2014  20:14:00     -223.488      -49.312       11.603      152.653      134.424       87.192    23303.025    18069.814     7602.491        5.073        2.449      228.863       91.319        0.159      351.023       32.616      861.882
07/13/2014  20:15:00     -317.295     -218.617       -3.439      210.209      165.594       85.743    44187.717    27421.516     7351.873       11.371        3.948      385.317      101.491        0.069      351.054       32.670      861.902
07/13/2014  20:16:00     -480.310     -186.827        2.135      179.029      166.747       99.578    32051.272    27804.562     9915.799       16.768        3.489      515.366      104.404        0.041      351.048       32.661      861.893
07/13/2014  20:17:00     -497.435     -156.536      -17.689      200.189      210.518       95.137    40075.675    44317.637     9051.127       18.283        4.672      521.483       89.381        0.029      351.038       32.642      861.895
07/13/2014  20:18:00     -265.243     -135.079       18.349      215.802      152.887       99.955    46570.459    23374.533     9990.962        8.442        3.997      297.658      110.497        0.138      351.022       32.615      861.889
07/13/2014  20:19:00     -124.778      -87.778       24.552      195.878      145.705       87.662    38368.342    21230.037     7684.688        4.557        3.364      152.560       97.900        0.412      350.952       32.495      861.892
07/13/2014  20:20:00     -435.825      -43.119      -22.094      272.258      148.319      103.993    74124.401    21998.664    10814.539       14.959        5.347      437.953      110.201        0.063      350.993       32.564      861.895
07/13/2014  20:21:00     -379.402      -79.808      -15.745      204.214      131.082       78.543    41703.455    17182.575     6169.073       10.780        3.253      387.705       82.325        0.045      350.951       32.492      861.916
07/13/2014  20:22:00     -358.578     -105.214        0.156      240.629      186.497       97.411    57902.309    34781.138     9488.979       12.089        5.109      373.696       94.604        0.064      350.953       32.496      861.912
07/13/2014  20:23:00     -529.485     -105.624      -36.520      244.257      165.771       87.721    59661.505    27479.939     7695.059       19.382        4.742      539.917       96.102        0.032      350.959       32.506      861.919
07/13/2014  20:24:00     -174.811      -69.954        7.304      124.611       91.781       55.595    15527.812     8423.801     3090.777        3.127        1.352      188.288       55.937        0.088      350.918       32.437      861.937
07/13/2014  20:25:00     -302.561      -74.549       14.253      160.368      113.563       83.500    25717.936    12896.584     6972.274        7.144        2.279      311.610       85.718        0.076      350.869       32.349      861.935
07/13/2014  20:26:00     -288.390      -80.979       -2.295      168.296      140.363       78.860    28323.521    19701.642     6218.937        7.198        2.712      299.544       95.339        0.101      350.877       32.364      861.935
07/13/2014  20:27:00     -271.345     -107.413        9.698      211.842      149.998       81.723    44877.021    22499.376     6678.624        7.964        3.703      291.831      103.402        0.126      350.823       32.269      861.922
07/13/2014  20:28:00     -247.343        7.624       19.883      163.491      132.792       87.842    26729.459    17633.746     7716.180        5.685        2.604      247.461       90.856        0.135      350.799       32.229      861.921
07/13/2014  20:29:00     -344.820      -91.286      -12.497      181.268      140.263       81.545    32858.200    19673.646     6649.575        9.327        2.959      356.699       86.684        0.059      350.811       32.251      861.943
07/13/2014  20:30:00     -258.351      -82.206        5.130      162.275      126.277       64.064    26333.045    15945.908     4104.152        5.995        2.319      271.115       68.537        0.064      350.790       32.211      861.943
07/13/2014  20:31:00     -217.550      -54.388        8.295      125.935      121.282       71.399    15859.613    14709.379     5097.774        4.300        1.783      224.245       53.315        0.057      350.773       32.182      861.946
07/13/2014  20:32:00     -351.844      -42.205        7.004      228.503      131.683       97.193    52213.587    17340.365     9446.507       10.230        3.950      354.366      111.345        0.099      350.767       32.173      861.944
07/13/2014  20:33:00     -444.466      -58.842      -12.698      188.064      136.045       82.645    35367.941    18508.325     6830.232       13.093        3.035      448.344       93.108        0.043      350.785       32.205      861.939
07/13/2014  20:34:00     -618.722      -92.113      -52.737      260.198      218.021       99.322    67702.855    47533.308     9864.765       25.957        6.255      625.541       99.408        0.025      350.790       32.213      861.925
07/13/2014  20:35:00     -298.473      -48.228        6.681      149.956      157.445       83.024    22486.788    24788.819     6893.039        7.280        2.708      302.345       79.450        0.069      350.763       32.165      861.949
07/13/2014  20:36:00     -420.157        8.581      -22.116      208.937      131.267       88.204    43654.827    17230.947     7779.899       12.287        3.433      420.245       96.594        0.053      350.758       32.158      861.961
07/13/2014  20:37:00     -370.650     -156.101      -22.598      179.433      133.731       75.345    32196.339    17884.042     5676.795       10.900        2.788      402.181       71.215        0.031      350.758       32.157      861.973
07/13/2014  20:38:00     -381.716      -67.675       -0.945      208.902      142.658       76.442    43640.088    20351.341     5843.328       11.005        3.492      387.668       87.034        0.050      350.776       32.188      861.970
07/13/2014  20:39:00     -439.152     -154.394      -23.044      173.901      140.738       79.954    30241.506    19807.235     6392.650       13.682        2.822      465.502       89.085        0.037      350.772       32.181      861.986
07/13/2014  20:40:00     -553.998      -83.736      -54.439      218.539      160.840       94.979    47759.452    25869.658     9021.002       19.975        4.133      560.290      100.678        0.032      350.757       32.154      861.981
07/13/2014  20:41:00     -398.096     -113.869        7.835      227.203      160.998       91.993    51621.078    25920.222     8462.739       12.874        4.300      414.061      114.036        0.076      350.711       32.074      861.977
07/13/2014  20:42:00     -239.930      -71.098        8.778      164.610      125.035       75.853    27096.576    15633.648     5753.678        5.558        2.424      250.243       77.878        0.097      350.688       32.035      861.996
07/13/2014  20:43:00     -282.144      -71.356      -10.819      178.695      125.692       76.650    31932.054    15798.461     5875.230        6.920        2.680      291.027       69.203        0.057      350.688       32.033      862.005
07/13/2014  20:44:00     -442.373     -124.064      -26.156      229.922      210.873      105.339    52864.073    44467.351    11096.275       16.008        5.421      459.441      125.127        0.074      350.705       32.064      861.995
07/13/2014  20:45:00     -495.056      -62.046      -30.788      164.556      127.491       92.874    27078.736    16253.932     8625.548       15.091        2.598      498.929       90.992        0.033      350.727       32.103      861.985
07/13/2014  20:46:00     -478.412      -97.382      -23.915      209.405      141.554       95.074    43850.506    20037.637     9039.007       15.592        3.646      488.223      103.628        0.045      350.719       32.088      862.012
07/13/2014  20:47:00     -457.119      -93.648        1.344      262.277      175.515      111.986    68789.146    30805.372    12540.900       16.491        5.607      466.613      137.222        0.086      350.736       32.118      862.004
07/13/2014  20:48:00     -408.028      -43.138      -22.623      165.393      134.325       77.978    27354.730    18043.125     6080.615       11.016        2.574      410.301       74.098        0.033      350.746       32.136      862.045
07/13/2014  20:49:00     -287.947      -57.797       -2.188      178.407      141.123       81.697    31829.152    19915.761     6674.366        7.233        2.921      293.690       79.517        0.073      350.674       32.009      862.040
07/13/2014  20:50:00     -405.919       -6.425      -15.000      213.527      128.189       80.934    45593.578    16432.455     6550.259       11.679        3.429      405.970       99.006        0.059      350.651       31.970      862.053
07/13/2014  20:51:00     -429.097       15.750      -27.994      235.085      163.472       88.682    55264.851    26723.209     7864.552       13.749        4.493      429.386      102.136        0.057      350.588       31.859      862.052
07/13/2014  20:52:00     -492.700     -103.827      -16.828      160.226      129.071       89.777    25672.290    16659.350     8059.848       15.209        2.520      503.521       84.216        0.028      350.635       31.941      862.063
07/13/2014  20:53:00     -333.822      -69.788        1.550      196.434      125.419       82.600    38586.486    15729.992     6822.803        8.871        3.057      341.038       83.217        0.060      350.586       31.857      862.075
07/13/2014  20:54:00     -247.937      -89.407       -3.412      162.430      125.056       65.319    26383.533    15639.075     4266.521        5.787        2.314      263.565       73.759        0.078      350.559       31.809      862.089
07/13/2014  20:55:00     -270.813      -90.860        9.821      165.445      106.192       62.444    27372.083    11276.686     3899.192        6.211        2.127      285.649       69.020        0.058      350.543       31.781      862.108
07/13/2014  20:56:00     -410.773      -41.779       -2.949      220.197      190.736       98.929    48486.656    36380.295     9786.914       13.255        4.733      412.892      101.829        0.061      350.598       31.877      862.081
07/13/2014  20:57:00     -309.659     -160.317        1.671      212.725      160.484       99.896    45251.774    25754.979     9979.225       10.127        4.049      348.698       99.655        0.082      350.564       31.820      862.116
07/13/2014  20:58:00     -343.105      -72.336       -4.520      152.108      145.769       75.421    23136.900    21248.476     5688.396        8.651        2.504      350.648       66.721        0.036      350.619       31.914      862.151
07/13/2014  20:59:00     -294.253      -74.822       -6.129      184.135      125.158       70.909    33905.760    15664.469     5028.028        7.340        2.730      303.617       79.043        0.068      350.559       31.808      862.161
07/13/2014  21:00:00     -434.893      -11.676      -18.787      177.772      128.353       85.764    31602.726    16474.462     7355.477       12.252        2.772      435.050       81.385        0.035      350.579       31.844      862.160
07/13/2014  21:01:00     -374.318      -49.530       -7.509      189.943      120.844       66.674    36078.440    14603.174     4445.420        9.886        2.756      377.581       72.597        0.037      350.550       31.794      862.160
07/13/2014  21:02:00     -291.936     -138.485        0.179      197.590      155.882       82.620    39041.849    24299.295     6825.984        8.727        3.508      323.117       97.166        0.090      350.525       31.751      862.157
07/13/2014  21:03:00     -311.921     -108.578       10.624      149.639      127.953       70.559    22391.766    16371.868     4978.630        7.646        2.187      330.279       80.557        0.059      350.501       31.707      862.172
07/13/2014  21:04:00     -305.415      -86.302      -10.307      202.306      140.869       78.044    40927.706    19844.084     6090.854        8.383        3.343      317.374       79.121        0.062      350.541       31.778      862.191
07/13/2014  21:05:00     -318.220      -30.256       -5.636      195.141      139.354       81.620    38079.994    19419.401     6661.896        8.317        3.208      319.655       75.612        0.056      350.502       31.710      862.213
07/13/2014  21:06:00     -285.361      -70.453        9.960      211.213      148.066       75.710    44610.965    21923.472     5732.062        7.937        3.613      293.930       93.333        0.101      350.494       31.696      862.217
07/13/2014  21:07:00     -288.944      -82.593        1.533      168.224      158.278       88.533    28299.269    25051.975     7838.137        7.574        3.059      300.516       93.848        0.098      350.494       31.695      862.233
07/13/2014  21:08:00     -343.755      -78.574       14.376      250.667      154.540      103.726    62834.003    23882.487    10759.091       11.099        4.874      352.621      134.742        0.146      350.474       31.662      862.230
07/13/2014  21:09:00     -382.346     -155.227        3.091      211.234      195.872       98.894    44619.936    38366.017     9780.051       13.151        4.638      412.655      112.421        0.074      350.493       31.693      862.242
07/13/2014  21:10:00     -501.146      -62.448      -19.457      275.693      180.494      103.904    76006.889    32578.188    10796.142       18.738        5.969      505.021      130.604        0.067      350.502       31.710      862.261
07/13/2014  21:11:00     -367.412      -38.076      -16.291      206.922      112.095       80.122    42816.652    12565.376     6419.581        9.924        3.090      369.380       80.700        0.048      350.479       31.670      862.298
07/13/2014  21:12:00     -343.312      -75.364      -26.382      155.269       83.690       52.711    24108.523     7004.053     2778.443        7.906        1.695      351.487       54.556        0.024      350.485       31.677      862.308
07/13/2014  21:13:00     -292.701      -98.596      -17.674      266.178      119.301       74.185    70850.924    14232.795     5503.458        9.313        4.529      308.860      104.971        0.116      350.445       31.611      862.331
07/13/2014  21:14:00     -540.351     -218.755      -19.841      145.666      158.352       82.513    21218.682    25075.378     6808.379       19.665        2.655      582.952       68.842        0.014      350.494       31.695      862.319
07/13/2014  21:15:00     -277.581      -22.481      -17.711      152.891      135.852       55.477    23375.569    18455.837     3077.710        6.138        2.245      278.490       53.706        0.037      350.432       31.588      862.321
07/13/2014  21:16:00     -391.698     -127.754      -14.074      196.437      138.795       84.956    38587.390    19264.070     7217.451       11.749        3.253      412.005       97.674        0.056      350.396       31.526      862.329
07/13/2014  21:17:00     -469.719     -193.745       -8.953      264.106      196.143      108.592    69752.145    38472.001    11792.203       18.911        6.001      508.107      133.654        0.069      350.484       31.677      862.320
07/13/2014  21:18:00     -334.907     -149.406       16.199      234.244      147.058      101.667    54870.221    21626.135    10336.120       11.077        4.342      366.722      119.468        0.106      350.472       31.659      862.341
07/13/2014  21:19:00     -422.583      -54.689       -9.589      237.602      170.160      110.141    56454.575    28954.556    12131.024       13.958        4.877      426.107      128.629        0.091      350.491       31.690      862.372
07/13/2014  21:20:00     -385.454     -121.936       -3.353      201.167      177.539       91.737    40468.292    31520.165     8415.664       12.191        4.020      404.281      109.788        0.074      350.482       31.675      862.396
07/13/2014  21:21:00     -451.727      -35.346      -21.704      219.281      107.261       73.078    48084.031    11505.005     5340.366       13.534        3.246      453.108       96.362        0.045      350.452       31.622      862.418
07/13/2014  21:22:00     -288.112      -26.256       -2.110      192.328      145.193       76.029    36990.161    21081.052     5780.470        7.376        3.193      289.306       80.506        0.077      350.395       31.524      862.417
07/13/2014  21:23:00     -387.595      -15.650      -26.203      201.482      127.308       83.838    40594.952    16207.231     7028.807       10.748        3.192      387.911       85.478        0.049      350.379       31.497      862.429
07/13/2014  21:24:00     -371.268      -78.354      -21.109      195.018      103.172       69.859    38032.046    10644.368     4880.314        9.898        2.678      379.446       86.513        0.052      350.371       31.482      862.431
07/13/2014  21:25:00     -418.527      -18.491      -22.204      178.009      158.861       72.876    31687.207    25236.698     5310.928       11.911        3.112      418.936       85.091        0.041      350.365       31.473      862.399
07/13/2014  21:26:00     -302.831       44.256      -11.739      149.002      118.041       62.609    22201.630    13933.657     3919.901        6.692        2.003      306.047       55.136        0.032      350.329       31.409      862.410
07/13/2014  21:27:00     -291.496      -96.537       13.673      233.084      174.548       85.576    54328.260    30466.920     7323.246        9.328        4.606      307.066       98.951        0.104      350.238       31.253      862.418
07/13/2014  21:28:00     -351.889      -49.343       -6.475      253.584      135.055       88.118    64304.735    18239.975     7764.845       10.829        4.515      355.331      128.273        0.130      350.336       31.422      862.422
07/13/2014  21:29:00     -304.027      -94.687        4.723      225.122      143.278       95.615    50679.767    20528.536     9142.177        9.087        4.018      318.431      101.844        0.102      350.309       31.376      862.438
07/13/2014  21:30:00     -385.706      -50.192      -37.407      194.097      127.473       65.771    37673.752    16249.417     4325.763       10.546        2.912      388.958       76.872        0.039      350.319       31.391      862.457
07/13/2014  21:31:00     -316.975      -59.309        7.033      189.300      133.570       87.486    35834.671    17840.997     7653.868        8.267        3.066      322.476       89.750        0.077      350.298       31.356      862.453
07/13/2014  21:32:00     -337.492      -61.822      -22.120      204.679      120.254       77.635    41893.368    14461.108     6027.191        9.028        3.119      343.107       89.782        0.068      350.289       31.341      862.490
07/13/2014  21:33:00     -404.461      -77.622       -3.215      206.197      114.467       70.378    42517.188    13102.708     4953.015       11.509        3.029      411.842       86.175        0.044      350.274       31.315      862.511
07/13/2014  21:34:00     -387.783     -184.425      -11.225      202.069      136.689       80.002    40831.879    18683.790     6400.367       12.520        3.296      429.405       82.674        0.037      350.235       31.247      862.509
07/13/2014  21:35:00     -292.309     -147.756       -4.616      184.021      152.096       77.074    33863.772    23133.333     5940.415        8.511        3.147      327.531       88.878        0.074      350.220       31.220      862.530
07/13/2014  21:36:00     -497.704      -63.415      -37.042      162.501      123.667       81.648    26406.443    15293.459     6666.447       15.073        2.418      501.728       89.306        0.032      350.217       31.215      862.537
07/13/2014  21:37:00     -438.909      -32.907      -34.655      168.027      128.927       85.228    28233.182    16622.250     7263.744       12.351        2.606      440.141       87.637        0.040      350.196       31.179      862.556
07/13/2014  21:38:00     -346.511      -31.417      -17.017      168.634      131.214       70.912    28437.469    17217.201     5028.446        8.600        2.534      347.933       71.009        0.042      350.153       31.104      862.564
07/13/2014  21:39:00     -367.039      -96.107       -8.635      179.675      131.423       76.373    32283.274    17271.951     5832.862        9.970        2.769      379.413       88.372        0.054      350.164       31.122      862.560
07/13/2014  21:40:00     -272.966      -60.079        4.907      140.216      101.475       61.090    19660.474    10297.181     3731.933        5.591        1.684      279.499       62.103        0.049      350.123       31.053      862.600
07/13/2014  21:41:00     -425.656       24.226      -27.588      171.710      113.751       74.486    29484.485    12939.249     5548.160       11.524        2.399      426.345       78.527        0.034      350.163       31.121      862.614
07/13/2014  21:42:00     -262.971        5.106      -10.580      112.584       93.862       58.721    12675.202     8810.051     3448.126        4.711        1.247      263.021       57.794        0.048      350.119       31.043      862.622
07/13/2014  21:43:00     -298.668      -29.923      -16.218      136.194      119.890       58.886    18548.766    14373.620     3467.518        6.337        1.819      300.163       58.706        0.038      350.099       31.009      862.640
07/13/2014  21:44:00     -489.154        2.558      -37.098      199.363      146.251       89.288    39745.476    21389.367     7972.419       15.487        3.455      489.160       87.236        0.032      350.167       31.126      862.632
07/13/2014  21:45:00     -491.407      -50.539      -60.052      182.579      172.298       79.679    33335.175    29686.525     6348.698       15.849        3.469      493.999       80.857        0.027      350.201       31.187      862.636
07/13/2014  21:46:00     -326.427      -94.067       -9.616      161.296      116.070       77.892    26016.330    13472.292     6067.146        8.052        2.278      339.711       88.691        0.068      350.119       31.044      862.675
07/13/2014  21:47:00     -413.334      -87.751      -28.023      140.036      159.213       77.022    19609.963    25348.928     5932.365       11.510        2.545      422.546       68.900        0.027      350.137       31.073      862.668
07/13/2014  21:48:00     -505.029       -4.541      -45.136      153.387      150.708       69.315    23527.512    22712.905     4804.507       15.407        2.552      505.049       71.424        0.020      350.148       31.095      862.685
07/13/2014  21:49:00     -404.652      -71.928      -30.386      183.138      105.264       74.308    33539.532    11080.575     5521.640       10.998        2.507      410.995       84.207        0.042      350.098       31.006      862.730
07/13/2014  21:50:00     -334.460      -64.101       -9.204      182.602      113.745       79.457    33343.377    12937.840     6313.480        8.432        2.630      340.547      100.598        0.087      350.098       31.007      862.743
07/13/2014  21:51:00     -454.001      -63.760      -37.202      167.489      105.803       68.233    28052.505    11194.222     4655.793       12.773        2.195      458.456       85.464        0.035      350.122       31.049      862.780
07/13/2014  21:52:00     -388.727      -15.684      -38.510      188.001      139.487       83.257    35344.434    19456.643     6931.667       10.727        3.087      389.043       79.730        0.042      350.106       31.021      862.797
07/13/2014  21:53:00     -320.844      -52.730      -15.293      125.598      107.253       63.963    15774.792    11503.302     4091.276        6.866        1.568      325.148       63.571        0.038      350.087       30.987      862.821
07/13/2014  21:54:00     -402.911     -120.712      -15.458      131.592      101.686       66.719    17316.363    10339.956     4451.438       10.462        1.605      420.605       67.173        0.026      350.066       30.950      862.856
07/13/2014  21:55:00     -297.261      -57.997      -12.324      132.232       95.670       68.822    17485.185     9152.753     4736.461        6.162        1.569      302.866       77.978        0.066      350.020       30.873      862.892
07/13/2014  21:56:00     -335.563      -79.306      -23.763      170.731      126.505       65.654    29149.200    16003.534     4310.396        8.445        2.473      344.808       66.945        0.038      350.038       30.904      862.892
07/13/2014  21:57:00     -276.770      -96.472      -17.507      123.637      100.606       60.777    15286.158    10121.667     3693.837        5.765        1.455      293.101       59.950        0.042      350.038       30.902      862.921
07/13/2014  21:58:00     -286.618     -140.874      -11.690      138.531       98.393       61.773    19190.754     9681.159     3815.947        6.740        1.634      319.367       63.085        0.039      350.016       30.864      862.962
07/13/2014  21:59:00     -256.645      -47.625      -18.273       91.380       92.765       52.978     8350.233     8605.321     2806.713        4.411        0.988      261.026       40.635        0.024      350.047       30.917      862.987
07/13/2014  22:00:00     -164.857      -34.687      -13.382       97.911       79.060       41.725     9586.496     6250.456     1740.969        2.307        0.879      168.467       36.059        0.046      350.014       30.862      863.003
07/13/2014  22:01:00      -36.879       39.204        5.496       58.622       72.545       33.771     3436.550     5262.709     1140.453        0.638        0.492       53.824       32.740        0.370      349.914       30.692      863.034
07/13/2014  22:02:00     -128.682      205.533      -23.280       57.215       79.939       44.249     3273.505     6390.291     1957.993        3.548        0.581      242.493       33.137        0.019      349.934       30.725      863.033
07/13/2014  22:03:00     -103.998      162.972      -10.373       73.828       95.552       55.397     5450.579     9130.231     3068.864        2.756        0.882      193.328       56.459        0.085      349.885       30.639      863.026
07/13/2014  22:04:00     -133.076       75.458       -7.926      128.643      106.772       61.282    16548.912    11400.342     3755.491        2.758        1.585      152.981       63.534        0.172      349.884       30.637      863.045
07/13/2014  22:05:00     -150.116       59.372      -14.804       85.357       79.980       46.797     7285.755     6396.812     2189.945        2.107        0.794      161.431       41.289        0.065      349.875       30.622      863.062
07/13/2014  22:06:00      -98.935       44.176       -5.686       45.871       72.713       37.603     2104.118     5287.222     1414.016        1.029        0.440      108.350       18.173        0.028      349.843       30.570      863.068
07/13/2014  22:07:00     -159.286       35.177       -9.617       73.875       44.624       43.274     5457.546     1991.258     1872.608        1.801        0.466      163.124       39.998        0.060      349.882       30.634      863.094
07/13/2014  22:08:00      -92.181       41.245       11.884       89.121       77.137       45.065     7942.485     5950.171     2030.877        1.313        0.796      100.988       37.532        0.138      349.838       30.559      863.108
07/13/2014  22:09:00     -184.407       96.909      -22.223      109.474       98.277       53.420    11984.475     9658.276     2853.701        3.419        1.225      208.320       59.425        0.081      349.854       30.586      863.100
07/13/2014  22:10:00     -163.614      104.688      -29.311       62.659       58.560       39.377     3926.128     3429.251     1550.573        2.375        0.445      194.240       29.935        0.024      349.888       30.644      863.119
07/13/2014  22:11:00      -99.749      154.430      -16.975       69.234       67.103       43.361     4793.345     4502.837     1880.176        2.263        0.559      183.844       41.822        0.052      349.786       30.467      863.118
07/13/2014  22:12:00     -163.226      191.362      -32.958       81.240       96.403       56.658     6599.888     9293.463     3210.082        4.172        0.955      251.520       50.103        0.040      349.749       30.401      863.110
07/13/2014  22:13:00     -119.748      157.929      -28.051       50.937       71.471       42.958     2594.548     5108.100     1845.356        2.481        0.477      198.195       31.561        0.025      349.708       30.331      863.103
07/13/2014  22:14:00     -127.371      195.070      -17.437       58.992       73.831       44.968     3480.052     5450.970     2022.091        3.276        0.548      232.972       40.319        0.030      349.732       30.372      863.101
07/13/2014  22:15:00     -123.843       63.164      -25.044       53.687       72.122       29.366     2882.346     5201.617      862.382        1.445        0.447      139.021       33.763        0.059      349.702       30.322      863.104
07/13/2014  22:16:00     -175.942      133.363      -23.301       89.227      132.253       61.833     7961.389    17490.732     3823.263        3.927        1.464      220.774       54.128        0.060      349.809       30.507      863.118
07/13/2014  22:17:00     -163.566       47.903       -8.866       79.355       73.085       39.662     6297.148     5341.434     1573.106        2.117        0.661      170.436       32.187        0.036      349.744       30.396      863.122
07/13/2014  22:18:00     -131.299      100.964      -12.505       96.189       74.975       60.422     9252.297     5621.317     3650.872        2.305        0.926      165.630       51.392        0.096      349.752       30.408      863.119
07/13/2014  22:19:00     -153.296      218.497      -46.927       58.309       85.654       42.062     3399.894     7336.545     1769.251        4.297        0.625      266.909       34.838        0.017      349.720       30.350      863.120
07/13/2014  22:20:00     -129.262      165.219      -22.553       78.005       75.867       50.163     6084.810     5755.749     2516.297        2.943        0.718      209.776       47.226        0.051      349.606       30.154      863.108
07/13/2014  22:21:00     -212.582      151.877      -42.513      104.775       62.740       49.693    10977.805     3936.282     2469.362        4.372        0.869      261.261       53.235        0.042      349.669       30.262      863.094
07/13/2014  22:22:00     -186.164      103.601      -25.966       91.983       81.718       56.901     8460.788     6677.817     3237.686        3.222        0.919      213.049       48.373        0.052      349.651       30.231      863.101
07/13/2014  22:23:00     -208.119      121.458      -34.724       73.666       71.037       49.671     5426.710     5046.281     2467.234        3.610        0.647      240.968       41.025        0.029      349.678       30.279      863.110
07/13/2014  22:24:00     -158.035      161.601      -35.254       66.588       89.337       53.062     4433.909     7981.042     2815.621        3.378        0.762      226.031       40.803        0.033      349.645       30.220      863.110
07/13/2014  22:25:00     -154.445       59.647      -17.348      104.566       92.358       50.903    10934.057     8530.044     2591.084        2.488        1.103      165.563       39.354        0.056      349.642       30.218      863.107
07/13/2014  22:26:00     -133.086       25.086      -14.644       47.896       97.083       45.386     2294.017     9425.111     2059.880        1.616        0.689      135.430       41.216        0.093      349.609       30.163      863.098
07/13/2014  22:27:00     -144.582       51.322      -17.135       85.423       89.733       49.534     7297.150     8051.943     2453.618        2.081        0.890      153.421       46.683        0.093      349.576       30.105      863.104
07/13/2014  22:28:00     -162.641       92.800      -34.546       78.750      104.769       52.072     6201.519    10976.540     2711.489        2.807        0.994      187.254       37.604        0.040      349.603       30.148      863.092
07/13/2014  22:29:00     -113.770       77.128      -10.212       57.429       84.314       41.430     3298.073     7108.771     1716.424        1.556        0.606      137.449       33.447        0.059      349.548       30.055      863.088
07/13/2014  22:30:00     -137.692       -6.138       -6.528       69.946       78.403       39.348     4892.485     6147.054     1548.293        1.581        0.629      137.828       34.342        0.062      349.560       30.074      863.091
07/13/2014  22:31:00     -178.592       67.019      -23.786       49.656       85.842       50.717     2465.698     7368.867     2572.245        2.468        0.620      190.753       24.728        0.017      349.582       30.112      863.110
07/13/2014  22:32:00     -166.891       67.882      -35.414       87.437       74.641       39.336     7645.242     5571.338     1547.320        2.424        0.738      180.169       43.800        0.059      349.553       30.062      863.124
07/13/2014  22:33:00     -119.247       32.072      -10.984       70.024       73.024       40.581     4903.301     5332.496     1646.823        1.362        0.594      123.484       30.812        0.062      349.542       30.045      863.111
07/13/2014  22:34:00     -185.281      -53.733      -19.759       57.311       75.612       41.190     3284.512     5717.111     1696.590        2.415        0.535      192.916       23.120        0.014      349.515       29.996      863.123
07/13/2014  22:35:00     -237.583      -72.997      -27.803       58.458       52.306       31.285     3417.300     2735.889      978.757        3.484        0.357      248.544       25.860        0.011      349.522       30.007      863.133
07/13/2014  22:36:00     -259.948      -49.997      -26.550       84.631       59.619       43.736     7162.384     3554.458     1912.827        4.170        0.631      264.713       41.911        0.025      349.528       30.019      863.128
07/13/2014  22:37:00     -251.979       -6.334      -21.620       91.571       79.681       46.210     8385.234     6349.098     2135.395        4.043        0.843      252.059       43.464        0.030      349.568       30.088      863.135
07/13/2014  22:38:00     -130.620      -33.383       -3.201       99.242       51.705       40.240     9849.046     2673.406     1619.247        1.616        0.707      134.818       41.713        0.096      349.475       29.928      863.143
07/13/2014  22:39:00     -170.116       45.679      -35.691       69.413       76.938       32.332     4818.165     5919.434     1045.360        2.204        0.589      176.142       28.558        0.026      349.468       29.918      863.152
07/13/2014  22:40:00     -105.262      -54.962       -2.377       54.597       54.745       31.573     2980.794     2996.983      996.846        1.054        0.349      118.747       18.434        0.024      349.464       29.909      863.159
07/13/2014  22:41:00     -134.578       72.339      -17.164       68.246       57.731       41.640     4657.497     3332.918     1733.876        1.668        0.486      152.788       26.496        0.030      349.457       29.898      863.160
07/13/2014  22:42:00     -114.215       53.423      -10.054       73.433       47.299       41.416     5392.415     2237.219     1715.295        1.267        0.467      126.091       39.379        0.098      349.408       29.814      863.159
07/13/2014  22:43:00      -95.911      135.613      -16.261       63.154      137.024       51.247     3988.434    18775.498     2626.237        2.662        1.270      166.102       29.902        0.032      349.365       29.738      863.166
07/13/2014  22:44:00     -145.432       81.442      -25.518       46.918       79.869       33.591     2201.275     6379.084     1128.378        1.907        0.485      166.683       26.240        0.025      349.393       29.787      863.144
07/13/2014  22:45:00     -147.546        7.860      -15.290       73.559       84.613       47.013     5410.967     7159.338     2210.220        1.842        0.739      147.755       39.864        0.073      349.429       29.850      863.142
07/13/2014  22:46:00     -195.323      -78.936       -8.657      109.942       91.334       54.665    12087.150     8341.877     2988.233        3.393        1.171      210.671       56.683        0.072      349.353       29.717      863.146
07/13/2014  22:47:00     -196.575      -39.625        3.824       89.543       96.805       45.052     8017.983     9371.231     2029.654        2.982        0.971      200.529       40.243        0.040      349.319       29.655      863.156
07/13/2014  22:48:00     -222.467      -57.042      -11.815       71.090       62.567       36.853     5053.829     3914.658     1358.121        3.160        0.516      229.663       27.273        0.014      349.291       29.609      863.161
07/13/2014  22:49:00      -94.149       26.780      -17.328       48.540       62.629       32.385     2356.148     3922.376     1048.786        0.860        0.366       97.884       29.939        0.094      349.295       29.616      863.158
07/13/2014  22:50:00      -91.359      110.627       -8.787       55.112       58.394       35.127     3037.302     3409.902     1233.919        1.417        0.384      143.474       26.162        0.033      349.333       29.683      863.136
07/13/2014  22:51:00     -106.703      108.173       -3.199       72.443      108.007       45.309     5248.004    11665.443     2052.905        2.103        0.948      151.944       45.605        0.090      349.316       29.651      863.121
07/13/2014  22:52:00      -89.661       32.333      -13.466       60.249       70.536       37.372     3629.883     4975.320     1396.692        0.963        0.500       95.313       25.363        0.071      349.306       29.637      863.137
07/13/2014  22:53:00      -99.010      -22.807        8.853       68.135       42.816       32.930     4642.350     1833.207     1084.354        0.898        0.378      101.603       38.142        0.141      349.189       29.436      863.134
07/13/2014  22:54:00     -218.696       15.797      -22.552       50.187       45.887       28.180     2518.721     2105.642      794.138        2.700        0.271      219.265       20.745        0.009      349.209       29.466      863.121
07/13/2014  22:55:00     -170.720      -12.599      -18.952       44.367       44.637       26.598     1968.448     1992.433      707.459        1.716        0.233      171.184       20.618        0.015      349.195       29.445      863.127
07/13/2014  22:56:00     -141.271       48.278      -16.608       54.365       57.888       36.957     2955.603     3351.033     1365.823        1.512        0.384      149.292       33.130        0.049      349.208       29.466      863.137
07/13/2014  22:57:00     -174.989        8.952      -31.012       74.830       56.590       48.315     5599.593     3202.468     2334.346        2.140        0.557      175.218       40.401        0.053      349.233       29.508      863.128
07/13/2014  22:58:00     -148.144       37.596      -11.755       79.754       67.435       43.098     6360.637     4547.535     1857.468        1.813        0.638      152.840       40.755        0.071      349.242       29.523      863.144
07/13/2014  22:59:00     -148.819      -17.318       -7.404       53.849       68.960       35.969     2899.664     4755.539     1293.774        1.572        0.447      149.823       25.773        0.030      349.262       29.562      863.131
07/13/2014  23:00:00     -149.767      -26.269      -13.097       41.699       44.016       34.694     1738.777     1937.401     1203.698        1.408        0.244      152.053       26.515        0.030      349.165       29.393      863.117
07/13/2014  23:01:00      -98.467       61.419      -10.219       51.514       43.463       29.773     2653.704     1889.037      886.407        0.950        0.271      116.052       29.697        0.065      349.193       29.441      863.101
07/13/2014  23:02:00     -131.520       34.329       -8.556       46.324       36.145       21.360     2145.931     1306.463      456.267        1.123        0.195      135.926       14.891        0.012      349.263       29.562      863.111
07/13/2014  23:03:00     -114.720       14.161      -17.327       60.533       56.442       28.428     3664.285     3185.709      808.144        1.066        0.383      115.590       23.467        0.041      349.321       29.662      863.112
07/13/2014  23:04:00     -124.257       28.022      -15.720       45.065       53.667       32.200     2030.846     2880.125     1036.857        1.121        0.297      127.378       24.315        0.036      349.260       29.558      863.107
07/13/2014  23:05:00      -88.764       -6.587       -3.551       41.240       50.583       33.055     1700.762     2558.684     1092.611        0.664        0.268       89.008       26.146        0.086      349.237       29.519      863.101
07/13/2014  23:06:00      -76.231       90.930      -12.433       41.544       62.277       33.784     1725.899     3878.372     1141.328        1.049        0.337      118.657       31.931        0.072      349.229       29.501      863.095
07/13/2014  23:07:00     -136.946      113.433      -28.648       61.843       61.471       33.383     3824.511     3778.675     1114.418        2.058        0.436      177.824       34.702        0.038      349.399       29.796      863.090
07/13/2014  23:08:00     -108.314       35.547       -1.986       40.788       53.851       26.647     1663.645     2899.942      710.082        0.914        0.264      113.998       20.773        0.033      349.218       29.484      863.092
07/13/2014  23:09:00     -127.292      164.770      -23.743       57.494       79.395       36.483     3305.563     6303.639     1330.991        2.743        0.547      208.212       26.315        0.016      349.227       29.498      863.104
07/13/2014  23:10:00     -105.865      138.164      -23.902       56.512      109.865       35.435     3193.618    12070.398     1255.662        2.369        0.826      174.060       30.782        0.031      349.181       29.420      863.092
07/13/2014  23:11:00     -143.147      203.667      -42.091       63.900       78.148       42.813     4083.249     6107.180     1832.945        3.788        0.601      248.940       45.038        0.033      349.155       29.372      863.071
07/13/2014  23:12:00     -153.374       94.823      -20.731       82.075       64.916       43.493     6736.336     4214.147     1891.616        2.289        0.642      180.319       36.401        0.041      349.100       29.278      863.071
07/13/2014  23:13:00     -144.774      119.732      -18.204       49.318       66.229       36.854     2432.221     4386.282     1358.220        2.190        0.409      187.870       29.936        0.025      349.102       29.281      863.067
07/13/2014  23:14:00     -142.024      137.071      -25.132       64.553      109.662       38.823     4167.133    12025.734     1507.239        2.864        0.885      197.381       42.388        0.046      349.059       29.207      863.074
07/13/2014  23:15:00     -188.781      162.427      -29.548       81.226       62.650       50.292     6597.715     3924.994     2529.305        3.797        0.653      249.040       49.482        0.039      348.998       29.101      863.090
07/13/2014  23:16:00     -139.180      147.597      -21.054       62.328       94.064       44.678     3884.798     8847.966     1996.120        2.816        0.736      202.869       43.902        0.047      348.989       29.085      863.100
07/13/2014  23:17:00     -169.275      186.377      -32.198       85.947       88.312       57.869     7386.933     7799.014     3348.772        4.148        0.927      251.774       63.494        0.064      349.009       29.117      863.098
07/13/2014  23:18:00     -129.961      166.216      -24.427       68.779       59.283       42.580     4730.516     3514.488     1813.059        2.758        0.503      210.992       41.782        0.039      348.975       29.059      863.084
07/13/2014  23:19:00      -93.054      143.682      -19.759       60.833       54.127       39.294     3700.678     2929.727     1544.054        1.893        0.409      171.183       31.638        0.034      348.882       28.901      863.075
07/13/2014  23:20:00     -119.950      146.436      -29.525       55.406       53.732       33.456     3069.777     2887.168     1119.293        2.189        0.354      189.293       26.505        0.020      348.965       29.044      863.068
07/13/2014  23:21:00     -165.181      153.142      -28.197       71.328       85.551       45.708     5087.727     7319.053     2089.186        3.301        0.725      225.249       39.750        0.031      349.041       29.173      863.060
07/13/2014  23:22:00     -152.578      165.213      -35.732       58.507       88.863       35.987     3423.035     7896.708     1295.043        3.223        0.631      224.890       40.739        0.033      349.057       29.204      863.054
07/13/2014  23:23:00     -162.235      148.832      -38.302       75.784       54.345       39.479     5743.196     2953.426     1558.615        3.009        0.513      220.162       42.222        0.037      349.038       29.169      863.051
07/13/2014  23:24:00     -120.756      148.636      -25.215       64.345       50.968       40.877     4140.306     2597.777     1670.939        2.286        0.420      191.507       41.226        0.046      349.002       29.109      863.050
07/13/2014  23:25:00     -113.381      115.517      -18.182       47.210       39.945       26.534     2228.774     1595.640      704.042        1.553        0.226      161.862       22.186        0.019      348.995       29.097      863.053
07/13/2014  23:26:00     -169.738      179.116      -41.716       71.133       81.417       43.454     5059.941     6628.657     1888.221        3.810        0.679      246.766       33.596        0.019      348.937       28.995      863.081
07/13/2014  23:27:00     -106.226      110.772      -11.414       61.055       72.261       35.875     3727.692     5221.580     1287.007        1.696        0.512      153.475       34.881        0.052      348.832       28.815      863.072
07/13/2014  23:28:00     -110.508      116.547      -23.150       58.629       53.279       31.594     3437.313     2838.605      998.150        1.680        0.364      160.609       30.160        0.035      348.762       28.694      863.085
07/13/2014  23:29:00     -111.709      217.901      -24.149       65.331       72.855       35.510     4268.106     5307.860     1260.955        3.569        0.542      244.867       31.803        0.017      348.819       28.791      863.096
07/13/2014  23:30:00     -132.506      204.762      -24.334       72.343       93.019       40.710     5233.524     8652.493     1657.345        3.781        0.777      243.896       48.904        0.040      348.824       28.799      863.100
07/13/2014  23:31:00     -150.715      203.047      -43.417       71.722       62.831       39.103     5144.018     3947.736     1529.043        3.822        0.531      252.870       47.162        0.035      348.862       28.866      863.112
07/13/2014  23:32:00     -154.957      233.458      -29.902       58.641       75.379       44.276     3438.792     5681.955     1960.329        4.524        0.554      280.204       40.754        0.021      348.753       28.676      863.126
07/13/2014  23:33:00      -83.817      185.837      -16.142       65.105       93.154       45.258     4238.635     8677.724     2048.245        2.839        0.748      203.864       21.408        0.011      348.678       28.547      863.147
07/13/2014  23:34:00     -101.565      254.502      -27.903       57.705      114.104       44.007     3329.856    13019.623     1936.589        4.707        0.914      274.019       46.805        0.029      348.679       28.547      863.160
07/13/2014  23:35:00     -129.913      204.576      -26.049      101.478      113.760       52.986    10297.853    12941.323     2807.506        4.272        1.302      242.340       53.944        0.050      348.660       28.516      863.174
07/13/2014  23:36:00     -186.876      239.809      -53.242       77.665       83.985       43.034     6031.870     7053.532     1851.914        5.510        0.747      304.025       45.484        0.022      348.771       28.706      863.191
07/13/2014  23:37:00     -180.175      132.879      -29.272       63.376       61.745       39.305     4016.571     3812.407     1544.919        3.017        0.469      223.875       35.129        0.025      348.733       28.640      863.194
07/13/2014  23:38:00     -128.498      136.184      -16.421       72.630       53.984       36.450     5275.086     2914.235     1328.582        2.242        0.476      187.237       31.503        0.028      348.700       28.586      863.187
07/13/2014  23:39:00      -72.058      165.327      -13.108       44.244       57.383       37.428     1957.547     3292.830     1400.856        1.967        0.333      180.348       31.049        0.030      348.650       28.500      863.189
07/13/2014  23:40:00     -136.853       73.352      -15.561       97.902       52.894       34.787     9584.751     2797.756     1210.124        1.897        0.680      155.271       43.327        0.078      348.652       28.505      863.198
07/13/2014  23:41:00      -79.374       24.454      -11.138       56.314       48.955       35.010     3171.292     2396.557     1225.709        0.691        0.340       83.055       30.046        0.131      348.689       28.569      863.188
07/13/2014  23:42:00     -138.112        8.374       -4.843       57.759       43.783       25.321     3336.070     1916.944      641.135        1.253        0.295      138.365       21.989        0.025      348.701       28.590      863.183
07/13/2014  23:43:00      -60.609       22.748        7.403       64.131       30.491       31.301     4112.721      929.674      979.761        0.513        0.301       64.737       38.078        0.346      348.630       28.467      863.179
07/13/2014  23:44:00     -100.032       94.160      -25.110       70.953       66.738       38.750     5034.280     4454.014     1501.563        1.524        0.549      137.378       39.722        0.084      348.677       28.548      863.182
07/13/2014  23:45:00      -91.867       23.515       -3.997       61.861       77.570       27.077     3826.731     6017.115      733.161        0.979        0.529       94.829       21.194        0.050      348.653       28.506      863.153
07/13/2014  23:46:00     -113.566      -17.124      -10.468       42.963       47.095       22.497     1845.816     2217.909      506.135        0.893        0.228      114.850       19.848        0.030      348.640       28.483      863.157
07/13/2014  23:47:00      -56.288       -1.086        4.366       57.148       45.217       26.539     3265.864     2044.569      704.338        0.460        0.301       56.298       28.140        0.250      348.446       28.146      863.168
07/13/2014  23:48:00      -27.079       36.342       11.026       57.040       53.874       35.353     3253.587     2902.430     1249.857        0.479        0.370       45.321       35.161        0.602      348.431       28.122      863.172
07/13/2014  23:49:00      -70.738       44.139       -3.668       49.214       53.596       26.258     2421.995     2872.585      689.483        0.647        0.299       83.380       27.381        0.108      348.529       28.291      863.192
07/13/2014  23:50:00      -29.940      100.084       -2.981       79.505       67.010       40.325     6321.030     4490.302     1626.083        1.168        0.622      104.467       42.223        0.163      348.505       28.249      863.203
07/13/2014  23:51:00      -18.041      185.788      -29.664       52.811       47.932       27.424     2789.001     2297.468      752.073        2.078        0.292      186.662       21.461        0.013      348.576       28.371      863.189
07/13/2014  23:52:00     -136.402       65.248      -19.768       57.529       41.341       26.181     3309.554     1709.077      685.426        1.448        0.285      151.204       22.998        0.023      348.568       28.358      863.202
07/13/2014  23:53:00     -107.990      103.855      -29.756       61.991       55.337       34.481     3842.879     3062.166     1188.951        1.571        0.405      149.825       30.250        0.041      348.589       28.394      863.212
07/13/2014  23:54:00     -103.416       92.941      -33.739       69.322       72.407       27.303     4805.500     5242.755      745.476        1.563        0.540      139.043       33.090        0.057      348.588       28.391      863.213
07/13/2014  23:55:00      -90.371       78.881      -26.261       45.736       87.413       36.087     2091.768     7641.007     1302.256        1.305        0.552      119.954       34.664        0.084      348.571       28.362      863.204
07/13/2014  23:56:00      -26.476      -45.892        0.500       74.154       73.574       29.038     5498.818     5413.193      843.218        0.728        0.588       52.982       35.782        0.456      348.530       28.292      863.203
07/13/2014  23:57:00      -88.778      -72.245        9.752      118.783       63.066       37.159    14109.467     3977.379     1380.755        1.633        0.973      114.459       46.534        0.165      348.493       28.228      863.186
07/13/2014  23:58:00     -142.935      -77.764        1.489       66.548       61.594       37.033     4428.698     3793.807     1371.408        1.804        0.480      162.720       27.813        0.029      348.457       28.164      863.192
07/13/2014  23:59:00     -230.981      -51.490      -25.633       83.072       58.031       31.324     6900.986     3367.597      981.168        3.395        0.562      236.651       29.597        0.016      348.485       28.212      863.190
